<?xml version="1.0" encoding="UTF-8" standalone="yes"?>
<gpx
 xmlns="http://www.topografix.com/GPX/1/1"
 creator="OziExplorer Version 3956f - http://www.oziexplorer.com"
 version="1.1"
 xmlns:xsi="http://www.w3.org/2001/XMLSchema-instance"
 xsi:schemaLocation="http://www.topografix.com/GPX/1/1 http://www.topografix.com/GPX/1/1/gpx.xsd">
<metadata>
 <time>2018-05-01T05:03:21Z</time>
 <bounds minlat="31.774400" minlon="35.014080" maxlat="31.796608" maxlon="35.088360"/>
</metadata>
<trk>
 <name>Masrek-Kisalon_Full, 24 km.</name>
 <desc>Masrek-Kisalon_Full, 24 km.</desc>
<trkseg>
<trkpt lat="31.7784545" lon="35.0173140">
<ele>274.309998</ele>
<time>2018-03-13T16:52:13.000Z</time>
</trkpt>
<trkpt lat="31.7784930" lon="35.0172979">
<ele>275.130005</ele>
<time>2018-03-13T16:54:22.000Z</time>
</trkpt>
<trkpt lat="31.7784710" lon="35.0172388">
<ele>275.809998</ele>
<time>2018-03-13T16:58:05.000Z</time>
</trkpt>
<trkpt lat="31.7785513" lon="35.0173167">
<ele>275.709991</ele>
<time>2018-03-13T16:58:32.000Z</time>
</trkpt>
<trkpt lat="31.7785880" lon="35.0174395">
<ele>276.070007</ele>
<time>2018-03-13T16:58:37.000Z</time>
</trkpt>
<trkpt lat="31.7786320" lon="35.0175661">
<ele>276.529999</ele>
<time>2018-03-13T16:58:42.000Z</time>
</trkpt>
<trkpt lat="31.7786959" lon="35.0176878">
<ele>276.950012</ele>
<time>2018-03-13T16:58:47.000Z</time>
</trkpt>
<trkpt lat="31.7787615" lon="35.0177863">
<ele>277.339996</ele>
<time>2018-03-13T16:58:51.000Z</time>
</trkpt>
<trkpt lat="31.7788496" lon="35.0178674">
<ele>277.489990</ele>
<time>2018-03-13T16:58:55.000Z</time>
</trkpt>
<trkpt lat="31.7789472" lon="35.0179320">
<ele>277.660004</ele>
<time>2018-03-13T16:58:59.000Z</time>
</trkpt>
<trkpt lat="31.7790370" lon="35.0179733">
<ele>277.489990</ele>
<time>2018-03-13T16:59:02.000Z</time>
</trkpt>
<trkpt lat="31.7791393" lon="35.0180120">
<ele>277.860016</ele>
<time>2018-03-13T16:59:05.000Z</time>
</trkpt>
<trkpt lat="31.7792727" lon="35.0180549">
<ele>277.059998</ele>
<time>2018-03-13T16:59:08.000Z</time>
</trkpt>
<trkpt lat="31.7793777" lon="35.0180905">
<ele>276.209991</ele>
<time>2018-03-13T16:59:10.000Z</time>
</trkpt>
<trkpt lat="31.7794808" lon="35.0181363">
<ele>275.839996</ele>
<time>2018-03-13T16:59:12.000Z</time>
</trkpt>
<trkpt lat="31.7795721" lon="35.0181756">
<ele>275.769989</ele>
<time>2018-03-13T16:59:14.000Z</time>
</trkpt>
<trkpt lat="31.7796969" lon="35.0182037">
<ele>276.089996</ele>
<time>2018-03-13T16:59:17.000Z</time>
</trkpt>
<trkpt lat="31.7798365" lon="35.0182436">
<ele>275.820007</ele>
<time>2018-03-13T16:59:20.000Z</time>
</trkpt>
<trkpt lat="31.7799384" lon="35.0182787">
<ele>275.500000</ele>
<time>2018-03-13T16:59:22.000Z</time>
</trkpt>
<trkpt lat="31.7800365" lon="35.0183208">
<ele>275.220001</ele>
<time>2018-03-13T16:59:24.000Z</time>
</trkpt>
<trkpt lat="31.7801252" lon="35.0183703">
<ele>275.449982</ele>
<time>2018-03-13T16:59:26.000Z</time>
</trkpt>
<trkpt lat="31.7802281" lon="35.0184395">
<ele>275.790009</ele>
<time>2018-03-13T16:59:29.000Z</time>
</trkpt>
<trkpt lat="31.7802896" lon="35.0185219">
<ele>276.220001</ele>
<time>2018-03-13T16:59:32.000Z</time>
</trkpt>
<trkpt lat="31.7803471" lon="35.0186155">
<ele>276.259979</ele>
<time>2018-03-13T16:59:35.000Z</time>
</trkpt>
<trkpt lat="31.7804058" lon="35.0187093">
<ele>277.279999</ele>
<time>2018-03-13T16:59:38.000Z</time>
</trkpt>
<trkpt lat="31.7804539" lon="35.0188133">
<ele>277.419983</ele>
<time>2018-03-13T16:59:41.000Z</time>
</trkpt>
<trkpt lat="31.7805004" lon="35.0189200">
<ele>277.630005</ele>
<time>2018-03-13T16:59:44.000Z</time>
</trkpt>
<trkpt lat="31.7805325" lon="35.0190336">
<ele>278.130005</ele>
<time>2018-03-13T16:59:47.000Z</time>
</trkpt>
<trkpt lat="31.7805621" lon="35.0191544">
<ele>277.549988</ele>
<time>2018-03-13T16:59:50.000Z</time>
</trkpt>
<trkpt lat="31.7805875" lon="35.0192769">
<ele>278.429993</ele>
<time>2018-03-13T16:59:53.000Z</time>
</trkpt>
<trkpt lat="31.7806030" lon="35.0193981">
<ele>278.529999</ele>
<time>2018-03-13T16:59:56.000Z</time>
</trkpt>
<trkpt lat="31.7806041" lon="35.0195242">
<ele>278.410004</ele>
<time>2018-03-13T16:59:59.000Z</time>
</trkpt>
<trkpt lat="31.7806110" lon="35.0196434">
<ele>278.740021</ele>
<time>2018-03-13T17:00:02.000Z</time>
</trkpt>
<trkpt lat="31.7806017" lon="35.0197779">
<ele>277.990021</ele>
<time>2018-03-13T17:00:05.000Z</time>
</trkpt>
<trkpt lat="31.7805762" lon="35.0199130">
<ele>278.500000</ele>
<time>2018-03-13T17:00:08.000Z</time>
</trkpt>
<trkpt lat="31.7805443" lon="35.0200406">
<ele>278.779999</ele>
<time>2018-03-13T17:00:11.000Z</time>
</trkpt>
<trkpt lat="31.7804981" lon="35.0201564">
<ele>279.260010</ele>
<time>2018-03-13T17:00:14.000Z</time>
</trkpt>
<trkpt lat="31.7804420" lon="35.0202638">
<ele>279.760010</ele>
<time>2018-03-13T17:00:17.000Z</time>
</trkpt>
<trkpt lat="31.7803862" lon="35.0203675">
<ele>279.049988</ele>
<time>2018-03-13T17:00:20.000Z</time>
</trkpt>
<trkpt lat="31.7803319" lon="35.0204767">
<ele>279.449982</ele>
<time>2018-03-13T17:00:23.000Z</time>
</trkpt>
<trkpt lat="31.7802730" lon="35.0205866">
<ele>279.449982</ele>
<time>2018-03-13T17:00:26.000Z</time>
</trkpt>
<trkpt lat="31.7802074" lon="35.0206949">
<ele>279.869995</ele>
<time>2018-03-13T17:00:29.000Z</time>
</trkpt>
<trkpt lat="31.7801445" lon="35.0208084">
<ele>280.139984</ele>
<time>2018-03-13T17:00:32.000Z</time>
</trkpt>
<trkpt lat="31.7800816" lon="35.0209141">
<ele>279.830017</ele>
<time>2018-03-13T17:00:35.000Z</time>
</trkpt>
<trkpt lat="31.7800300" lon="35.0210195">
<ele>280.320007</ele>
<time>2018-03-13T17:00:38.000Z</time>
</trkpt>
<trkpt lat="31.7799682" lon="35.0211244">
<ele>279.919983</ele>
<time>2018-03-13T17:00:41.000Z</time>
</trkpt>
<trkpt lat="31.7799000" lon="35.0212460">
<ele>280.149994</ele>
<time>2018-03-13T17:00:44.000Z</time>
</trkpt>
<trkpt lat="31.7798314" lon="35.0213573">
<ele>280.230011</ele>
<time>2018-03-13T17:00:47.000Z</time>
</trkpt>
<trkpt lat="31.7797720" lon="35.0214682">
<ele>280.130005</ele>
<time>2018-03-13T17:00:50.000Z</time>
</trkpt>
<trkpt lat="31.7797106" lon="35.0215724">
<ele>280.980011</ele>
<time>2018-03-13T17:00:53.000Z</time>
</trkpt>
<trkpt lat="31.7796543" lon="35.0216841">
<ele>280.859985</ele>
<time>2018-03-13T17:00:56.000Z</time>
</trkpt>
<trkpt lat="31.7795944" lon="35.0217926">
<ele>281.200012</ele>
<time>2018-03-13T17:00:59.000Z</time>
</trkpt>
<trkpt lat="31.7795318" lon="35.0218931">
<ele>281.500000</ele>
<time>2018-03-13T17:01:02.000Z</time>
</trkpt>
<trkpt lat="31.7794734" lon="35.0219909">
<ele>281.869995</ele>
<time>2018-03-13T17:01:05.000Z</time>
</trkpt>
<trkpt lat="31.7794093" lon="35.0221044">
<ele>281.470001</ele>
<time>2018-03-13T17:01:08.000Z</time>
</trkpt>
<trkpt lat="31.7793468" lon="35.0222176">
<ele>281.440002</ele>
<time>2018-03-13T17:01:11.000Z</time>
</trkpt>
<trkpt lat="31.7792985" lon="35.0223281">
<ele>282.229980</ele>
<time>2018-03-13T17:01:14.000Z</time>
</trkpt>
<trkpt lat="31.7792551" lon="35.0224441">
<ele>282.809998</ele>
<time>2018-03-13T17:01:17.000Z</time>
</trkpt>
<trkpt lat="31.7792017" lon="35.0225615">
<ele>282.679993</ele>
<time>2018-03-13T17:01:20.000Z</time>
</trkpt>
<trkpt lat="31.7791484" lon="35.0226768">
<ele>282.910004</ele>
<time>2018-03-13T17:01:23.000Z</time>
</trkpt>
<trkpt lat="31.7791034" lon="35.0227902">
<ele>282.720001</ele>
<time>2018-03-13T17:01:26.000Z</time>
</trkpt>
<trkpt lat="31.7790532" lon="35.0228974">
<ele>283.440002</ele>
<time>2018-03-13T17:01:29.000Z</time>
</trkpt>
<trkpt lat="31.7790028" lon="35.0230225">
<ele>282.899994</ele>
<time>2018-03-13T17:01:32.000Z</time>
</trkpt>
<trkpt lat="31.7789533" lon="35.0231466">
<ele>283.510010</ele>
<time>2018-03-13T17:01:35.000Z</time>
</trkpt>
<trkpt lat="31.7789039" lon="35.0232646">
<ele>283.859985</ele>
<time>2018-03-13T17:01:38.000Z</time>
</trkpt>
<trkpt lat="31.7788564" lon="35.0233864">
<ele>283.500000</ele>
<time>2018-03-13T17:01:41.000Z</time>
</trkpt>
<trkpt lat="31.7788092" lon="35.0235054">
<ele>284.269989</ele>
<time>2018-03-13T17:01:44.000Z</time>
</trkpt>
<trkpt lat="31.7787490" lon="35.0236114">
<ele>284.710022</ele>
<time>2018-03-13T17:01:47.000Z</time>
</trkpt>
<trkpt lat="31.7787006" lon="35.0237243">
<ele>284.470001</ele>
<time>2018-03-13T17:01:50.000Z</time>
</trkpt>
<trkpt lat="31.7786517" lon="35.0238308">
<ele>285.429993</ele>
<time>2018-03-13T17:01:53.000Z</time>
</trkpt>
<trkpt lat="31.7785871" lon="35.0239241">
<ele>285.829987</ele>
<time>2018-03-13T17:01:56.000Z</time>
</trkpt>
<trkpt lat="31.7785159" lon="35.0240112">
<ele>286.279999</ele>
<time>2018-03-13T17:01:59.000Z</time>
</trkpt>
<trkpt lat="31.7784403" lon="35.0241002">
<ele>286.639984</ele>
<time>2018-03-13T17:02:02.000Z</time>
</trkpt>
<trkpt lat="31.7783714" lon="35.0241909">
<ele>286.660004</ele>
<time>2018-03-13T17:02:05.000Z</time>
</trkpt>
<trkpt lat="31.7783020" lon="35.0242820">
<ele>286.970001</ele>
<time>2018-03-13T17:02:08.000Z</time>
</trkpt>
<trkpt lat="31.7782346" lon="35.0243726">
<ele>287.179993</ele>
<time>2018-03-13T17:02:11.000Z</time>
</trkpt>
<trkpt lat="31.7781682" lon="35.0244606">
<ele>287.959991</ele>
<time>2018-03-13T17:02:14.000Z</time>
</trkpt>
<trkpt lat="31.7781032" lon="35.0245501">
<ele>288.269989</ele>
<time>2018-03-13T17:02:17.000Z</time>
</trkpt>
<trkpt lat="31.7780439" lon="35.0246459">
<ele>288.240021</ele>
<time>2018-03-13T17:02:20.000Z</time>
</trkpt>
<trkpt lat="31.7779999" lon="35.0247502">
<ele>288.250000</ele>
<time>2018-03-13T17:02:23.000Z</time>
</trkpt>
<trkpt lat="31.7779700" lon="35.0248565">
<ele>288.980011</ele>
<time>2018-03-13T17:02:26.000Z</time>
</trkpt>
<trkpt lat="31.7779460" lon="35.0249648">
<ele>289.549988</ele>
<time>2018-03-13T17:02:29.000Z</time>
</trkpt>
<trkpt lat="31.7779190" lon="35.0250827">
<ele>289.320007</ele>
<time>2018-03-13T17:02:32.000Z</time>
</trkpt>
<trkpt lat="31.7778913" lon="35.0252032">
<ele>289.579987</ele>
<time>2018-03-13T17:02:35.000Z</time>
</trkpt>
<trkpt lat="31.7778570" lon="35.0253311">
<ele>290.700012</ele>
<time>2018-03-13T17:02:39.000Z</time>
</trkpt>
<trkpt lat="31.7778278" lon="35.0254456">
<ele>291.390015</ele>
<time>2018-03-13T17:02:43.000Z</time>
</trkpt>
<trkpt lat="31.7778054" lon="35.0255657">
<ele>292.209991</ele>
<time>2018-03-13T17:02:47.000Z</time>
</trkpt>
<trkpt lat="31.7777739" lon="35.0256864">
<ele>292.679993</ele>
<time>2018-03-13T17:02:51.000Z</time>
</trkpt>
<trkpt lat="31.7777359" lon="35.0258053">
<ele>293.380005</ele>
<time>2018-03-13T17:02:55.000Z</time>
</trkpt>
<trkpt lat="31.7776798" lon="35.0259118">
<ele>294.209991</ele>
<time>2018-03-13T17:02:59.000Z</time>
</trkpt>
<trkpt lat="31.7775941" lon="35.0259959">
<ele>294.559998</ele>
<time>2018-03-13T17:03:03.000Z</time>
</trkpt>
<trkpt lat="31.7775037" lon="35.0260623">
<ele>295.630005</ele>
<time>2018-03-13T17:03:07.000Z</time>
</trkpt>
<trkpt lat="31.7774116" lon="35.0261241">
<ele>295.510010</ele>
<time>2018-03-13T17:03:11.000Z</time>
</trkpt>
<trkpt lat="31.7773337" lon="35.0261920">
<ele>296.149994</ele>
<time>2018-03-13T17:03:14.000Z</time>
</trkpt>
<trkpt lat="31.7772514" lon="35.0262736">
<ele>296.670013</ele>
<time>2018-03-13T17:03:18.000Z</time>
</trkpt>
<trkpt lat="31.7771900" lon="35.0263747">
<ele>297.459991</ele>
<time>2018-03-13T17:03:22.000Z</time>
</trkpt>
<trkpt lat="31.7771470" lon="35.0264863">
<ele>297.880005</ele>
<time>2018-03-13T17:03:26.000Z</time>
</trkpt>
<trkpt lat="31.7771326" lon="35.0266012">
<ele>299.410004</ele>
<time>2018-03-13T17:03:31.000Z</time>
</trkpt>
<trkpt lat="31.7771535" lon="35.0267124">
<ele>300.169983</ele>
<time>2018-03-13T17:03:37.000Z</time>
</trkpt>
<trkpt lat="31.7771914" lon="35.0268266">
<ele>301.000000</ele>
<time>2018-03-13T17:03:43.000Z</time>
</trkpt>
<trkpt lat="31.7772394" lon="35.0269331">
<ele>300.839996</ele>
<time>2018-03-13T17:03:49.000Z</time>
</trkpt>
<trkpt lat="31.7772971" lon="35.0270369">
<ele>300.809998</ele>
<time>2018-03-13T17:03:55.000Z</time>
</trkpt>
<trkpt lat="31.7773616" lon="35.0271084">
<ele>300.790009</ele>
<time>2018-03-13T17:04:00.000Z</time>
</trkpt>
<trkpt lat="31.7774308" lon="35.0271804">
<ele>305.459991</ele>
<time>2018-03-13T17:04:06.000Z</time>
</trkpt>
<trkpt lat="31.7775123" lon="35.0272417">
<ele>305.980011</ele>
<time>2018-03-13T17:04:12.000Z</time>
</trkpt>
<trkpt lat="31.7776068" lon="35.0272746">
<ele>305.959991</ele>
<time>2018-03-13T17:04:17.000Z</time>
</trkpt>
<trkpt lat="31.7776983" lon="35.0273170">
<ele>305.929993</ele>
<time>2018-03-13T17:04:22.000Z</time>
</trkpt>
<trkpt lat="31.7777900" lon="35.0273477">
<ele>305.910004</ele>
<time>2018-03-13T17:04:27.000Z</time>
</trkpt>
<trkpt lat="31.7778743" lon="35.0273867">
<ele>309.029999</ele>
<time>2018-03-13T17:04:32.000Z</time>
</trkpt>
<trkpt lat="31.7779621" lon="35.0274207">
<ele>309.540009</ele>
<time>2018-03-13T17:04:37.000Z</time>
</trkpt>
<trkpt lat="31.7780644" lon="35.0274653">
<ele>309.929993</ele>
<time>2018-03-13T17:04:43.000Z</time>
</trkpt>
<trkpt lat="31.7781584" lon="35.0275159">
<ele>310.290009</ele>
<time>2018-03-13T17:04:48.000Z</time>
</trkpt>
<trkpt lat="31.7782391" lon="35.0275869">
<ele>310.979980</ele>
<time>2018-03-13T17:04:53.000Z</time>
</trkpt>
<trkpt lat="31.7782476" lon="35.0277014">
<ele>311.809998</ele>
<time>2018-03-13T17:04:58.000Z</time>
</trkpt>
<trkpt lat="31.7782163" lon="35.0278392">
<ele>312.209991</ele>
<time>2018-03-13T17:05:03.000Z</time>
</trkpt>
<trkpt lat="31.7782015" lon="35.0279753">
<ele>312.329987</ele>
<time>2018-03-13T17:05:07.000Z</time>
</trkpt>
<trkpt lat="31.7781882" lon="35.0280931">
<ele>312.640015</ele>
<time>2018-03-13T17:05:11.000Z</time>
</trkpt>
<trkpt lat="31.7781766" lon="35.0282227">
<ele>313.559998</ele>
<time>2018-03-13T17:05:15.000Z</time>
</trkpt>
<trkpt lat="31.7781732" lon="35.0283500">
<ele>313.320007</ele>
<time>2018-03-13T17:05:19.000Z</time>
</trkpt>
<trkpt lat="31.7781738" lon="35.0284804">
<ele>313.399994</ele>
<time>2018-03-13T17:05:23.000Z</time>
</trkpt>
<trkpt lat="31.7781710" lon="35.0286115">
<ele>313.630005</ele>
<time>2018-03-13T17:05:27.000Z</time>
</trkpt>
<trkpt lat="31.7781654" lon="35.0287426">
<ele>313.859985</ele>
<time>2018-03-13T17:05:31.000Z</time>
</trkpt>
<trkpt lat="31.7781606" lon="35.0288787">
<ele>313.829987</ele>
<time>2018-03-13T17:05:35.000Z</time>
</trkpt>
<trkpt lat="31.7781633" lon="35.0290061">
<ele>314.700012</ele>
<time>2018-03-13T17:05:39.000Z</time>
</trkpt>
<trkpt lat="31.7781554" lon="35.0291359">
<ele>314.589996</ele>
<time>2018-03-13T17:05:43.000Z</time>
</trkpt>
<trkpt lat="31.7781592" lon="35.0292683">
<ele>315.250000</ele>
<time>2018-03-13T17:05:47.000Z</time>
</trkpt>
<trkpt lat="31.7781465" lon="35.0293878">
<ele>315.770020</ele>
<time>2018-03-13T17:05:51.000Z</time>
</trkpt>
<trkpt lat="31.7781502" lon="35.0295015">
<ele>316.330017</ele>
<time>2018-03-13T17:05:55.000Z</time>
</trkpt>
<trkpt lat="31.7781419" lon="35.0296435">
<ele>316.240021</ele>
<time>2018-03-13T17:05:59.000Z</time>
</trkpt>
<trkpt lat="31.7781357" lon="35.0297538">
<ele>317.140015</ele>
<time>2018-03-13T17:06:02.000Z</time>
</trkpt>
<trkpt lat="31.7781301" lon="35.0298621">
<ele>316.899994</ele>
<time>2018-03-13T17:06:05.000Z</time>
</trkpt>
<trkpt lat="31.7781217" lon="35.0299992">
<ele>317.220001</ele>
<time>2018-03-13T17:06:09.000Z</time>
</trkpt>
<trkpt lat="31.7780901" lon="35.0301285">
<ele>317.929993</ele>
<time>2018-03-13T17:06:13.000Z</time>
</trkpt>
<trkpt lat="31.7780373" lon="35.0302533">
<ele>317.839996</ele>
<time>2018-03-13T17:06:17.000Z</time>
</trkpt>
<trkpt lat="31.7779907" lon="35.0303521">
<ele>318.330017</ele>
<time>2018-03-13T17:06:20.000Z</time>
</trkpt>
<trkpt lat="31.7779463" lon="35.0304506">
<ele>318.839996</ele>
<time>2018-03-13T17:06:23.000Z</time>
</trkpt>
<trkpt lat="31.7778981" lon="35.0305432">
<ele>319.410004</ele>
<time>2018-03-13T17:06:26.000Z</time>
</trkpt>
<trkpt lat="31.7778479" lon="35.0306384">
<ele>319.540009</ele>
<time>2018-03-13T17:06:29.000Z</time>
</trkpt>
<trkpt lat="31.7777930" lon="35.0307251">
<ele>319.529999</ele>
<time>2018-03-13T17:06:32.000Z</time>
</trkpt>
<trkpt lat="31.7777188" lon="35.0308358">
<ele>320.559998</ele>
<time>2018-03-13T17:06:36.000Z</time>
</trkpt>
<trkpt lat="31.7776497" lon="35.0309144">
<ele>320.530029</ele>
<time>2018-03-13T17:06:39.000Z</time>
</trkpt>
<trkpt lat="31.7775595" lon="35.0310007">
<ele>321.029999</ele>
<time>2018-03-13T17:06:43.000Z</time>
</trkpt>
<trkpt lat="31.7774628" lon="35.0310851">
<ele>321.119995</ele>
<time>2018-03-13T17:06:47.000Z</time>
</trkpt>
<trkpt lat="31.7773787" lon="35.0311853">
<ele>322.399994</ele>
<time>2018-03-13T17:06:51.000Z</time>
</trkpt>
<trkpt lat="31.7773190" lon="35.0312947">
<ele>322.070007</ele>
<time>2018-03-13T17:06:55.000Z</time>
</trkpt>
<trkpt lat="31.7772651" lon="35.0314093">
<ele>322.950012</ele>
<time>2018-03-13T17:06:59.000Z</time>
</trkpt>
<trkpt lat="31.7772232" lon="35.0315279">
<ele>323.270020</ele>
<time>2018-03-13T17:07:03.000Z</time>
</trkpt>
<trkpt lat="31.7771794" lon="35.0316631">
<ele>323.570007</ele>
<time>2018-03-13T17:07:07.000Z</time>
</trkpt>
<trkpt lat="31.7771378" lon="35.0317776">
<ele>325.059998</ele>
<time>2018-03-13T17:07:12.000Z</time>
</trkpt>
<trkpt lat="31.7770915" lon="35.0318823">
<ele>326.119995</ele>
<time>2018-03-13T17:07:18.000Z</time>
</trkpt>
<trkpt lat="31.7770276" lon="35.0319758">
<ele>326.959991</ele>
<time>2018-03-13T17:07:24.000Z</time>
</trkpt>
<trkpt lat="31.7769448" lon="35.0320409">
<ele>327.809967</ele>
<time>2018-03-13T17:07:30.000Z</time>
</trkpt>
<trkpt lat="31.7768606" lon="35.0320998">
<ele>328.889984</ele>
<time>2018-03-13T17:07:36.000Z</time>
</trkpt>
<trkpt lat="31.7767622" lon="35.0321382">
<ele>328.759979</ele>
<time>2018-03-13T17:07:42.000Z</time>
</trkpt>
<trkpt lat="31.7766599" lon="35.0321750">
<ele>330.820007</ele>
<time>2018-03-13T17:07:49.000Z</time>
</trkpt>
<trkpt lat="31.7765701" lon="35.0322241">
<ele>331.360016</ele>
<time>2018-03-13T17:07:55.000Z</time>
</trkpt>
<trkpt lat="31.7764792" lon="35.0323055">
<ele>331.069977</ele>
<time>2018-03-13T17:08:00.000Z</time>
</trkpt>
<trkpt lat="31.7764006" lon="35.0323648">
<ele>331.870026</ele>
<time>2018-03-13T17:08:05.000Z</time>
</trkpt>
<trkpt lat="31.7763029" lon="35.0323666">
<ele>333.140015</ele>
<time>2018-03-13T17:08:12.000Z</time>
</trkpt>
<trkpt lat="31.7762749" lon="35.0322562">
<ele>334.470001</ele>
<time>2018-03-13T17:08:19.000Z</time>
</trkpt>
<trkpt lat="31.7763049" lon="35.0321460">
<ele>335.479980</ele>
<time>2018-03-13T17:08:25.000Z</time>
</trkpt>
<trkpt lat="31.7763179" lon="35.0320242">
<ele>336.370026</ele>
<time>2018-03-13T17:08:32.000Z</time>
</trkpt>
<trkpt lat="31.7762216" lon="35.0319891">
<ele>337.929993</ele>
<time>2018-03-13T17:08:39.000Z</time>
</trkpt>
<trkpt lat="31.7761531" lon="35.0320708">
<ele>339.260010</ele>
<time>2018-03-13T17:08:46.000Z</time>
</trkpt>
<trkpt lat="31.7760683" lon="35.0321505">
<ele>340.699982</ele>
<time>2018-03-13T17:08:53.000Z</time>
</trkpt>
<trkpt lat="31.7759959" lon="35.0322386">
<ele>341.580017</ele>
<time>2018-03-13T17:09:00.000Z</time>
</trkpt>
<trkpt lat="31.7758953" lon="35.0322905">
<ele>342.400024</ele>
<time>2018-03-13T17:09:06.000Z</time>
</trkpt>
<trkpt lat="31.7758072" lon="35.0323542">
<ele>342.970001</ele>
<time>2018-03-13T17:09:12.000Z</time>
</trkpt>
<trkpt lat="31.7757082" lon="35.0323991">
<ele>344.330017</ele>
<time>2018-03-13T17:09:19.000Z</time>
</trkpt>
<trkpt lat="31.7756010" lon="35.0324291">
<ele>345.380005</ele>
<time>2018-03-13T17:09:26.000Z</time>
</trkpt>
<trkpt lat="31.7755000" lon="35.0324688">
<ele>346.149994</ele>
<time>2018-03-13T17:09:33.000Z</time>
</trkpt>
<trkpt lat="31.7753879" lon="35.0325121">
<ele>347.289978</ele>
<time>2018-03-13T17:09:40.000Z</time>
</trkpt>
<trkpt lat="31.7752754" lon="35.0325468">
<ele>348.350006</ele>
<time>2018-03-13T17:09:47.000Z</time>
</trkpt>
<trkpt lat="31.7752036" lon="35.0324919">
<ele>349.570007</ele>
<time>2018-03-13T17:09:55.000Z</time>
</trkpt>
<trkpt lat="31.7752900" lon="35.0323882">
<ele>350.700012</ele>
<time>2018-03-13T17:10:01.000Z</time>
</trkpt>
<trkpt lat="31.7754002" lon="35.0323221">
<ele>351.040009</ele>
<time>2018-03-13T17:10:07.000Z</time>
</trkpt>
<trkpt lat="31.7754914" lon="35.0322678">
<ele>351.679993</ele>
<time>2018-03-13T17:10:13.000Z</time>
</trkpt>
<trkpt lat="31.7755643" lon="35.0322095">
<ele>352.750000</ele>
<time>2018-03-13T17:10:19.000Z</time>
</trkpt>
<trkpt lat="31.7756386" lon="35.0321434">
<ele>353.040009</ele>
<time>2018-03-13T17:10:24.000Z</time>
</trkpt>
<trkpt lat="31.7756656" lon="35.0320336">
<ele>355.279999</ele>
<time>2018-03-13T17:10:32.000Z</time>
</trkpt>
<trkpt lat="31.7755766" lon="35.0320505">
<ele>357.090027</ele>
<time>2018-03-13T17:10:40.000Z</time>
</trkpt>
<trkpt lat="31.7754946" lon="35.0321030">
<ele>358.030029</ele>
<time>2018-03-13T17:10:47.000Z</time>
</trkpt>
<trkpt lat="31.7754017" lon="35.0321545">
<ele>359.669983</ele>
<time>2018-03-13T17:10:55.000Z</time>
</trkpt>
<trkpt lat="31.7753075" lon="35.0321868">
<ele>360.139984</ele>
<time>2018-03-13T17:11:03.000Z</time>
</trkpt>
<trkpt lat="31.7752088" lon="35.0322203">
<ele>360.890015</ele>
<time>2018-03-13T17:11:10.000Z</time>
</trkpt>
<trkpt lat="31.7751184" lon="35.0322714">
<ele>362.500000</ele>
<time>2018-03-13T17:11:17.000Z</time>
</trkpt>
<trkpt lat="31.7750274" lon="35.0323014">
<ele>363.290009</ele>
<time>2018-03-13T17:11:24.000Z</time>
</trkpt>
<trkpt lat="31.7749248" lon="35.0323196">
<ele>363.750000</ele>
<time>2018-03-13T17:11:31.000Z</time>
</trkpt>
<trkpt lat="31.7748307" lon="35.0323755">
<ele>365.319977</ele>
<time>2018-03-13T17:11:38.000Z</time>
</trkpt>
<trkpt lat="31.7747449" lon="35.0324589">
<ele>365.550018</ele>
<time>2018-03-13T17:11:44.000Z</time>
</trkpt>
<trkpt lat="31.7746890" lon="35.0325584">
<ele>366.989990</ele>
<time>2018-03-13T17:11:51.000Z</time>
</trkpt>
<trkpt lat="31.7746491" lon="35.0326591">
<ele>368.329987</ele>
<time>2018-03-13T17:11:58.000Z</time>
</trkpt>
<trkpt lat="31.7746145" lon="35.0327691">
<ele>369.450012</ele>
<time>2018-03-13T17:12:05.000Z</time>
</trkpt>
<trkpt lat="31.7745884" lon="35.0328757">
<ele>369.880005</ele>
<time>2018-03-13T17:12:10.000Z</time>
</trkpt>
<trkpt lat="31.7745660" lon="35.0329830">
<ele>370.329987</ele>
<time>2018-03-13T17:12:16.000Z</time>
</trkpt>
<trkpt lat="31.7745409" lon="35.0330864">
<ele>371.410004</ele>
<time>2018-03-13T17:12:22.000Z</time>
</trkpt>
<trkpt lat="31.7745118" lon="35.0332050">
<ele>371.909973</ele>
<time>2018-03-13T17:12:29.000Z</time>
</trkpt>
<trkpt lat="31.7744881" lon="35.0333184">
<ele>372.820007</ele>
<time>2018-03-13T17:12:36.000Z</time>
</trkpt>
<trkpt lat="31.7744731" lon="35.0334316">
<ele>374.110016</ele>
<time>2018-03-13T17:12:43.000Z</time>
</trkpt>
<trkpt lat="31.7744501" lon="35.0335508">
<ele>375.169983</ele>
<time>2018-03-13T17:12:50.000Z</time>
</trkpt>
<trkpt lat="31.7744287" lon="35.0336575">
<ele>376.339996</ele>
<time>2018-03-13T17:12:56.000Z</time>
</trkpt>
<trkpt lat="31.7744423" lon="35.0337767">
<ele>377.489990</ele>
<time>2018-03-13T17:13:03.000Z</time>
</trkpt>
<trkpt lat="31.7744810" lon="35.0338858">
<ele>378.759979</ele>
<time>2018-03-13T17:13:10.000Z</time>
</trkpt>
<trkpt lat="31.7745650" lon="35.0339757">
<ele>378.089996</ele>
<time>2018-03-13T17:13:15.000Z</time>
</trkpt>
<trkpt lat="31.7746553" lon="35.0339502">
<ele>379.940002</ele>
<time>2018-03-13T17:13:21.000Z</time>
</trkpt>
<trkpt lat="31.7747085" lon="35.0338466">
<ele>381.929993</ele>
<time>2018-03-13T17:13:28.000Z</time>
</trkpt>
<trkpt lat="31.7747557" lon="35.0337505">
<ele>382.070007</ele>
<time>2018-03-13T17:13:33.000Z</time>
</trkpt>
<trkpt lat="31.7748090" lon="35.0336426">
<ele>382.540009</ele>
<time>2018-03-13T17:13:40.000Z</time>
</trkpt>
<trkpt lat="31.7748605" lon="35.0335617">
<ele>383.630005</ele>
<time>2018-03-13T17:13:46.000Z</time>
</trkpt>
<trkpt lat="31.7749375" lon="35.0334847">
<ele>384.449982</ele>
<time>2018-03-13T17:13:52.000Z</time>
</trkpt>
<trkpt lat="31.7750170" lon="35.0334050">
<ele>385.800018</ele>
<time>2018-03-13T17:13:58.000Z</time>
</trkpt>
<trkpt lat="31.7751076" lon="35.0333496">
<ele>386.179993</ele>
<time>2018-03-13T17:14:04.000Z</time>
</trkpt>
<trkpt lat="31.7751995" lon="35.0332939">
<ele>386.250000</ele>
<time>2018-03-13T17:14:09.000Z</time>
</trkpt>
<trkpt lat="31.7752969" lon="35.0332467">
<ele>388.120026</ele>
<time>2018-03-13T17:14:15.000Z</time>
</trkpt>
<trkpt lat="31.7753981" lon="35.0332433">
<ele>388.619995</ele>
<time>2018-03-13T17:14:21.000Z</time>
</trkpt>
<trkpt lat="31.7754936" lon="35.0332880">
<ele>390.239990</ele>
<time>2018-03-13T17:14:27.000Z</time>
</trkpt>
<trkpt lat="31.7755957" lon="35.0333249">
<ele>390.990021</ele>
<time>2018-03-13T17:14:33.000Z</time>
</trkpt>
<trkpt lat="31.7756892" lon="35.0333410">
<ele>392.010010</ele>
<time>2018-03-13T17:14:39.000Z</time>
</trkpt>
<trkpt lat="31.7757813" lon="35.0333675">
<ele>392.239990</ele>
<time>2018-03-13T17:14:46.000Z</time>
</trkpt>
<trkpt lat="31.7758701" lon="35.0334195">
<ele>393.880005</ele>
<time>2018-03-13T17:14:53.000Z</time>
</trkpt>
<trkpt lat="31.7759555" lon="35.0334869">
<ele>394.160004</ele>
<time>2018-03-13T17:15:00.000Z</time>
</trkpt>
<trkpt lat="31.7760442" lon="35.0335460">
<ele>394.959991</ele>
<time>2018-03-13T17:15:07.000Z</time>
</trkpt>
<trkpt lat="31.7761416" lon="35.0335641">
<ele>396.279999</ele>
<time>2018-03-13T17:15:14.000Z</time>
</trkpt>
<trkpt lat="31.7762361" lon="35.0335948">
<ele>396.290009</ele>
<time>2018-03-13T17:15:21.000Z</time>
</trkpt>
<trkpt lat="31.7763236" lon="35.0336302">
<ele>397.519989</ele>
<time>2018-03-13T17:15:27.000Z</time>
</trkpt>
<trkpt lat="31.7764221" lon="35.0336702">
<ele>398.410004</ele>
<time>2018-03-13T17:15:34.000Z</time>
</trkpt>
<trkpt lat="31.7765203" lon="35.0337053">
<ele>399.970001</ele>
<time>2018-03-13T17:15:41.000Z</time>
</trkpt>
<trkpt lat="31.7766114" lon="35.0337474">
<ele>400.480011</ele>
<time>2018-03-13T17:15:47.000Z</time>
</trkpt>
<trkpt lat="31.7767070" lon="35.0337937">
<ele>401.050018</ele>
<time>2018-03-13T17:15:53.000Z</time>
</trkpt>
<trkpt lat="31.7767889" lon="35.0338445">
<ele>401.449982</ele>
<time>2018-03-13T17:15:58.000Z</time>
</trkpt>
<trkpt lat="31.7768693" lon="35.0339067">
<ele>402.980011</ele>
<time>2018-03-13T17:16:03.000Z</time>
</trkpt>
<trkpt lat="31.7769475" lon="35.0339784">
<ele>404.309967</ele>
<time>2018-03-13T17:16:09.000Z</time>
</trkpt>
<trkpt lat="31.7770125" lon="35.0340610">
<ele>405.149994</ele>
<time>2018-03-13T17:16:15.000Z</time>
</trkpt>
<trkpt lat="31.7770365" lon="35.0341758">
<ele>406.409973</ele>
<time>2018-03-13T17:16:21.000Z</time>
</trkpt>
<trkpt lat="31.7770488" lon="35.0342867">
<ele>406.889984</ele>
<time>2018-03-13T17:16:27.000Z</time>
</trkpt>
<trkpt lat="31.7770659" lon="35.0343919">
<ele>407.970001</ele>
<time>2018-03-13T17:16:33.000Z</time>
</trkpt>
<trkpt lat="31.7770846" lon="35.0345076">
<ele>408.100006</ele>
<time>2018-03-13T17:16:39.000Z</time>
</trkpt>
<trkpt lat="31.7770977" lon="35.0346208">
<ele>408.519989</ele>
<time>2018-03-13T17:16:45.000Z</time>
</trkpt>
<trkpt lat="31.7771158" lon="35.0347258">
<ele>410.359985</ele>
<time>2018-03-13T17:16:51.000Z</time>
</trkpt>
<trkpt lat="31.7771328" lon="35.0348341">
<ele>410.089996</ele>
<time>2018-03-13T17:16:57.000Z</time>
</trkpt>
<trkpt lat="31.7771509" lon="35.0349427">
<ele>410.989990</ele>
<time>2018-03-13T17:17:02.000Z</time>
</trkpt>
<trkpt lat="31.7771667" lon="35.0350498">
<ele>412.429993</ele>
<time>2018-03-13T17:17:08.000Z</time>
</trkpt>
<trkpt lat="31.7771804" lon="35.0351594">
<ele>412.950012</ele>
<time>2018-03-13T17:17:14.000Z</time>
</trkpt>
<trkpt lat="31.7771939" lon="35.0352707">
<ele>413.839996</ele>
<time>2018-03-13T17:17:20.000Z</time>
</trkpt>
<trkpt lat="31.7772042" lon="35.0353838">
<ele>414.600006</ele>
<time>2018-03-13T17:17:26.000Z</time>
</trkpt>
<trkpt lat="31.7772383" lon="35.0354820">
<ele>415.239990</ele>
<time>2018-03-13T17:17:32.000Z</time>
</trkpt>
<trkpt lat="31.7772725" lon="35.0355942">
<ele>415.839996</ele>
<time>2018-03-13T17:17:38.000Z</time>
</trkpt>
<trkpt lat="31.7772995" lon="35.0356955">
<ele>417.010010</ele>
<time>2018-03-13T17:17:44.000Z</time>
</trkpt>
<trkpt lat="31.7773349" lon="35.0358066">
<ele>417.750031</ele>
<time>2018-03-13T17:17:51.000Z</time>
</trkpt>
<trkpt lat="31.7773829" lon="35.0358985">
<ele>418.940002</ele>
<time>2018-03-13T17:17:57.000Z</time>
</trkpt>
<trkpt lat="31.7774476" lon="35.0359914">
<ele>419.830017</ele>
<time>2018-03-13T17:18:04.000Z</time>
</trkpt>
<trkpt lat="31.7775187" lon="35.0360652">
<ele>420.380005</ele>
<time>2018-03-13T17:18:10.000Z</time>
</trkpt>
<trkpt lat="31.7775892" lon="35.0361388">
<ele>421.529999</ele>
<time>2018-03-13T17:18:16.000Z</time>
</trkpt>
<trkpt lat="31.7776621" lon="35.0362137">
<ele>422.059998</ele>
<time>2018-03-13T17:18:22.000Z</time>
</trkpt>
<trkpt lat="31.7777347" lon="35.0362959">
<ele>423.480011</ele>
<time>2018-03-13T17:18:27.000Z</time>
</trkpt>
<trkpt lat="31.7777888" lon="35.0363861">
<ele>424.420013</ele>
<time>2018-03-13T17:18:33.000Z</time>
</trkpt>
<trkpt lat="31.7778344" lon="35.0364790">
<ele>425.690002</ele>
<time>2018-03-13T17:18:39.000Z</time>
</trkpt>
<trkpt lat="31.7778880" lon="35.0365687">
<ele>426.189972</ele>
<time>2018-03-13T17:18:45.000Z</time>
</trkpt>
<trkpt lat="31.7779248" lon="35.0366676">
<ele>426.789978</ele>
<time>2018-03-13T17:18:51.000Z</time>
</trkpt>
<trkpt lat="31.7779796" lon="35.0367593">
<ele>427.429993</ele>
<time>2018-03-13T17:18:56.000Z</time>
</trkpt>
<trkpt lat="31.7780131" lon="35.0368572">
<ele>428.320007</ele>
<time>2018-03-13T17:19:02.000Z</time>
</trkpt>
<trkpt lat="31.7780375" lon="35.0369583">
<ele>428.820007</ele>
<time>2018-03-13T17:19:08.000Z</time>
</trkpt>
<trkpt lat="31.7780564" lon="35.0370605">
<ele>429.750000</ele>
<time>2018-03-13T17:19:14.000Z</time>
</trkpt>
<trkpt lat="31.7780792" lon="35.0371623">
<ele>430.649994</ele>
<time>2018-03-13T17:19:20.000Z</time>
</trkpt>
<trkpt lat="31.7781120" lon="35.0372795">
<ele>431.429993</ele>
<time>2018-03-13T17:19:27.000Z</time>
</trkpt>
<trkpt lat="31.7781556" lon="35.0373794">
<ele>432.619995</ele>
<time>2018-03-13T17:19:34.000Z</time>
</trkpt>
<trkpt lat="31.7781999" lon="35.0374866">
<ele>433.259979</ele>
<time>2018-03-13T17:19:41.000Z</time>
</trkpt>
<trkpt lat="31.7782436" lon="35.0375958">
<ele>434.459991</ele>
<time>2018-03-13T17:19:48.000Z</time>
</trkpt>
<trkpt lat="31.7782817" lon="35.0376921">
<ele>435.059998</ele>
<time>2018-03-13T17:19:54.000Z</time>
</trkpt>
<trkpt lat="31.7783305" lon="35.0377857">
<ele>435.330017</ele>
<time>2018-03-13T17:20:00.000Z</time>
</trkpt>
<trkpt lat="31.7783835" lon="35.0378925">
<ele>436.159973</ele>
<time>2018-03-13T17:20:07.000Z</time>
</trkpt>
<trkpt lat="31.7784356" lon="35.0380010">
<ele>436.790009</ele>
<time>2018-03-13T17:20:13.000Z</time>
</trkpt>
<trkpt lat="31.7784782" lon="35.0380973">
<ele>438.399994</ele>
<time>2018-03-13T17:20:19.000Z</time>
</trkpt>
<trkpt lat="31.7785149" lon="35.0382112">
<ele>438.989990</ele>
<time>2018-03-13T17:20:26.000Z</time>
</trkpt>
<trkpt lat="31.7785351" lon="35.0383157">
<ele>440.290009</ele>
<time>2018-03-13T17:20:32.000Z</time>
</trkpt>
<trkpt lat="31.7785575" lon="35.0384289">
<ele>440.799988</ele>
<time>2018-03-13T17:20:38.000Z</time>
</trkpt>
<trkpt lat="31.7785775" lon="35.0385331">
<ele>442.000000</ele>
<time>2018-03-13T17:20:44.000Z</time>
</trkpt>
<trkpt lat="31.7786051" lon="35.0386359">
<ele>442.759979</ele>
<time>2018-03-13T17:20:50.000Z</time>
</trkpt>
<trkpt lat="31.7786358" lon="35.0387491">
<ele>443.850006</ele>
<time>2018-03-13T17:20:57.000Z</time>
</trkpt>
<trkpt lat="31.7786682" lon="35.0388624">
<ele>444.110016</ele>
<time>2018-03-13T17:21:03.000Z</time>
</trkpt>
<trkpt lat="31.7786982" lon="35.0389732">
<ele>444.859985</ele>
<time>2018-03-13T17:21:09.000Z</time>
</trkpt>
<trkpt lat="31.7787326" lon="35.0390707">
<ele>446.290009</ele>
<time>2018-03-13T17:21:15.000Z</time>
</trkpt>
<trkpt lat="31.7787552" lon="35.0391769">
<ele>446.949982</ele>
<time>2018-03-13T17:21:21.000Z</time>
</trkpt>
<trkpt lat="31.7787935" lon="35.0392748">
<ele>447.660004</ele>
<time>2018-03-13T17:21:27.000Z</time>
</trkpt>
<trkpt lat="31.7788249" lon="35.0393777">
<ele>449.040009</ele>
<time>2018-03-13T17:21:33.000Z</time>
</trkpt>
<trkpt lat="31.7788534" lon="35.0394890">
<ele>449.460022</ele>
<time>2018-03-13T17:21:39.000Z</time>
</trkpt>
<trkpt lat="31.7788887" lon="35.0396028">
<ele>450.079987</ele>
<time>2018-03-13T17:21:45.000Z</time>
</trkpt>
<trkpt lat="31.7789278" lon="35.0397180">
<ele>450.360016</ele>
<time>2018-03-13T17:21:51.000Z</time>
</trkpt>
<trkpt lat="31.7789653" lon="35.0398372">
<ele>451.770020</ele>
<time>2018-03-13T17:21:57.000Z</time>
</trkpt>
<trkpt lat="31.7790313" lon="35.0399208">
<ele>451.549988</ele>
<time>2018-03-13T17:22:02.000Z</time>
</trkpt>
<trkpt lat="31.7791149" lon="35.0399676">
<ele>451.889984</ele>
<time>2018-03-13T17:22:06.000Z</time>
</trkpt>
<trkpt lat="31.7792233" lon="35.0400067">
<ele>452.720001</ele>
<time>2018-03-13T17:22:12.000Z</time>
</trkpt>
<trkpt lat="31.7793205" lon="35.0400409">
<ele>453.360016</ele>
<time>2018-03-13T17:22:17.000Z</time>
</trkpt>
<trkpt lat="31.7794129" lon="35.0400997">
<ele>453.620026</ele>
<time>2018-03-13T17:22:23.000Z</time>
</trkpt>
<trkpt lat="31.7794839" lon="35.0401760">
<ele>454.709991</ele>
<time>2018-03-13T17:22:29.000Z</time>
</trkpt>
<trkpt lat="31.7795477" lon="35.0402542">
<ele>456.040009</ele>
<time>2018-03-13T17:22:35.000Z</time>
</trkpt>
<trkpt lat="31.7796078" lon="35.0403349">
<ele>456.989990</ele>
<time>2018-03-13T17:22:41.000Z</time>
</trkpt>
<trkpt lat="31.7796681" lon="35.0404249">
<ele>457.959991</ele>
<time>2018-03-13T17:22:47.000Z</time>
</trkpt>
<trkpt lat="31.7797302" lon="35.0405082">
<ele>458.890015</ele>
<time>2018-03-13T17:22:53.000Z</time>
</trkpt>
<trkpt lat="31.7798217" lon="35.0405601">
<ele>459.850006</ele>
<time>2018-03-13T17:23:00.000Z</time>
</trkpt>
<trkpt lat="31.7799192" lon="35.0405786">
<ele>460.680023</ele>
<time>2018-03-13T17:23:06.000Z</time>
</trkpt>
<trkpt lat="31.7800223" lon="35.0405979">
<ele>462.300018</ele>
<time>2018-03-13T17:23:13.000Z</time>
</trkpt>
<trkpt lat="31.7801150" lon="35.0406190">
<ele>463.320007</ele>
<time>2018-03-13T17:23:19.000Z</time>
</trkpt>
<trkpt lat="31.7802065" lon="35.0406622">
<ele>465.089996</ele>
<time>2018-03-13T17:23:26.000Z</time>
</trkpt>
<trkpt lat="31.7802841" lon="35.0407265">
<ele>465.589996</ele>
<time>2018-03-13T17:23:33.000Z</time>
</trkpt>
<trkpt lat="31.7803624" lon="35.0407998">
<ele>466.320007</ele>
<time>2018-03-13T17:23:40.000Z</time>
</trkpt>
<trkpt lat="31.7804439" lon="35.0408698">
<ele>467.459991</ele>
<time>2018-03-13T17:23:47.000Z</time>
</trkpt>
<trkpt lat="31.7805211" lon="35.0409361">
<ele>468.250000</ele>
<time>2018-03-13T17:23:53.000Z</time>
</trkpt>
<trkpt lat="31.7805977" lon="35.0409936">
<ele>468.500000</ele>
<time>2018-03-13T17:23:59.000Z</time>
</trkpt>
<trkpt lat="31.7806834" lon="35.0410456">
<ele>469.160004</ele>
<time>2018-03-13T17:24:05.000Z</time>
</trkpt>
<trkpt lat="31.7807874" lon="35.0410935">
<ele>469.529999</ele>
<time>2018-03-13T17:24:11.000Z</time>
</trkpt>
<trkpt lat="31.7808745" lon="35.0411326">
<ele>469.500000</ele>
<time>2018-03-13T17:24:15.000Z</time>
</trkpt>
<trkpt lat="31.7809798" lon="35.0411928">
<ele>469.939972</ele>
<time>2018-03-13T17:24:19.000Z</time>
</trkpt>
<trkpt lat="31.7810911" lon="35.0412422">
<ele>469.690002</ele>
<time>2018-03-13T17:24:23.000Z</time>
</trkpt>
<trkpt lat="31.7811781" lon="35.0412741">
<ele>470.069977</ele>
<time>2018-03-13T17:24:26.000Z</time>
</trkpt>
<trkpt lat="31.7812800" lon="35.0413062">
<ele>469.790009</ele>
<time>2018-03-13T17:24:29.000Z</time>
</trkpt>
<trkpt lat="31.7813967" lon="35.0413476">
<ele>469.670013</ele>
<time>2018-03-13T17:24:32.000Z</time>
</trkpt>
<trkpt lat="31.7814851" lon="35.0414464">
<ele>469.399994</ele>
<time>2018-03-13T17:24:35.000Z</time>
</trkpt>
<trkpt lat="31.7815519" lon="35.0415803">
<ele>468.760010</ele>
<time>2018-03-13T17:24:38.000Z</time>
</trkpt>
<trkpt lat="31.7815997" lon="35.0417161">
<ele>468.929993</ele>
<time>2018-03-13T17:24:41.000Z</time>
</trkpt>
<trkpt lat="31.7816369" lon="35.0418301">
<ele>469.609985</ele>
<time>2018-03-13T17:24:44.000Z</time>
</trkpt>
<trkpt lat="31.7816923" lon="35.0419159">
<ele>469.410004</ele>
<time>2018-03-13T17:24:47.000Z</time>
</trkpt>
<trkpt lat="31.7817900" lon="35.0419646">
<ele>469.049988</ele>
<time>2018-03-13T17:24:50.000Z</time>
</trkpt>
<trkpt lat="31.7819200" lon="35.0420083">
<ele>468.679993</ele>
<time>2018-03-13T17:24:53.000Z</time>
</trkpt>
<trkpt lat="31.7820396" lon="35.0420431">
<ele>468.919983</ele>
<time>2018-03-13T17:24:56.000Z</time>
</trkpt>
<trkpt lat="31.7821486" lon="35.0420870">
<ele>469.809998</ele>
<time>2018-03-13T17:24:59.000Z</time>
</trkpt>
<trkpt lat="31.7822456" lon="35.0421572">
<ele>471.000000</ele>
<time>2018-03-13T17:25:03.000Z</time>
</trkpt>
<trkpt lat="31.7823031" lon="35.0422524">
<ele>471.210022</ele>
<time>2018-03-13T17:25:07.000Z</time>
</trkpt>
<trkpt lat="31.7823342" lon="35.0423522">
<ele>472.370026</ele>
<time>2018-03-13T17:25:11.000Z</time>
</trkpt>
<trkpt lat="31.7823589" lon="35.0424686">
<ele>473.319977</ele>
<time>2018-03-13T17:25:16.000Z</time>
</trkpt>
<trkpt lat="31.7823636" lon="35.0425914">
<ele>473.730011</ele>
<time>2018-03-13T17:25:21.000Z</time>
</trkpt>
<trkpt lat="31.7823715" lon="35.0427097">
<ele>474.519989</ele>
<time>2018-03-13T17:25:26.000Z</time>
</trkpt>
<trkpt lat="31.7823722" lon="35.0428413">
<ele>475.110016</ele>
<time>2018-03-13T17:25:30.000Z</time>
</trkpt>
<trkpt lat="31.7823683" lon="35.0429594">
<ele>475.639984</ele>
<time>2018-03-13T17:25:35.000Z</time>
</trkpt>
<trkpt lat="31.7823753" lon="35.0430718">
<ele>476.959991</ele>
<time>2018-03-13T17:25:40.000Z</time>
</trkpt>
<trkpt lat="31.7823776" lon="35.0431816">
<ele>477.190002</ele>
<time>2018-03-13T17:25:45.000Z</time>
</trkpt>
<trkpt lat="31.7823838" lon="35.0432878">
<ele>477.640015</ele>
<time>2018-03-13T17:25:50.000Z</time>
</trkpt>
<trkpt lat="31.7823915" lon="35.0433941">
<ele>478.280029</ele>
<time>2018-03-13T17:25:55.000Z</time>
</trkpt>
<trkpt lat="31.7824018" lon="35.0435028">
<ele>479.090027</ele>
<time>2018-03-13T17:26:00.000Z</time>
</trkpt>
<trkpt lat="31.7824165" lon="35.0436195">
<ele>479.359985</ele>
<time>2018-03-13T17:26:05.000Z</time>
</trkpt>
<trkpt lat="31.7824339" lon="35.0437243">
<ele>480.729980</ele>
<time>2018-03-13T17:26:10.000Z</time>
</trkpt>
<trkpt lat="31.7824516" lon="35.0438313">
<ele>481.470001</ele>
<time>2018-03-13T17:26:15.000Z</time>
</trkpt>
<trkpt lat="31.7824623" lon="35.0439531">
<ele>481.870026</ele>
<time>2018-03-13T17:26:21.000Z</time>
</trkpt>
<trkpt lat="31.7824932" lon="35.0440639">
<ele>482.900024</ele>
<time>2018-03-13T17:26:27.000Z</time>
</trkpt>
<trkpt lat="31.7825315" lon="35.0441726">
<ele>484.170013</ele>
<time>2018-03-13T17:26:33.000Z</time>
</trkpt>
<trkpt lat="31.7825792" lon="35.0442894">
<ele>484.170013</ele>
<time>2018-03-13T17:26:38.000Z</time>
</trkpt>
<trkpt lat="31.7826165" lon="35.0443965">
<ele>486.119995</ele>
<time>2018-03-13T17:26:44.000Z</time>
</trkpt>
<trkpt lat="31.7826590" lon="35.0445005">
<ele>486.800018</ele>
<time>2018-03-13T17:26:50.000Z</time>
</trkpt>
<trkpt lat="31.7826919" lon="35.0446206">
<ele>486.940002</ele>
<time>2018-03-13T17:26:56.000Z</time>
</trkpt>
<trkpt lat="31.7827328" lon="35.0447376">
<ele>488.800018</ele>
<time>2018-03-13T17:27:02.000Z</time>
</trkpt>
<trkpt lat="31.7827656" lon="35.0448369">
<ele>489.179993</ele>
<time>2018-03-13T17:27:07.000Z</time>
</trkpt>
<trkpt lat="31.7827804" lon="35.0449501">
<ele>489.840027</ele>
<time>2018-03-13T17:27:12.000Z</time>
</trkpt>
<trkpt lat="31.7828097" lon="35.0450589">
<ele>490.799988</ele>
<time>2018-03-13T17:27:17.000Z</time>
</trkpt>
<trkpt lat="31.7828504" lon="35.0451657">
<ele>491.269989</ele>
<time>2018-03-13T17:27:23.000Z</time>
</trkpt>
<trkpt lat="31.7828817" lon="35.0452781">
<ele>491.920013</ele>
<time>2018-03-13T17:27:28.000Z</time>
</trkpt>
<trkpt lat="31.7828888" lon="35.0453842">
<ele>492.820007</ele>
<time>2018-03-13T17:27:34.000Z</time>
</trkpt>
<trkpt lat="31.7828839" lon="35.0454953">
<ele>494.049988</ele>
<time>2018-03-13T17:27:40.000Z</time>
</trkpt>
<trkpt lat="31.7828798" lon="35.0456039">
<ele>494.779999</ele>
<time>2018-03-13T17:27:46.000Z</time>
</trkpt>
<trkpt lat="31.7828584" lon="35.0457094">
<ele>495.679993</ele>
<time>2018-03-13T17:27:52.000Z</time>
</trkpt>
<trkpt lat="31.7828276" lon="35.0458145">
<ele>496.720001</ele>
<time>2018-03-13T17:27:58.000Z</time>
</trkpt>
<trkpt lat="31.7828052" lon="35.0459219">
<ele>497.590027</ele>
<time>2018-03-13T17:28:04.000Z</time>
</trkpt>
<trkpt lat="31.7827663" lon="35.0460359">
<ele>498.429993</ele>
<time>2018-03-13T17:28:11.000Z</time>
</trkpt>
<trkpt lat="31.7827454" lon="35.0461445">
<ele>499.269989</ele>
<time>2018-03-13T17:28:17.000Z</time>
</trkpt>
<trkpt lat="31.7827256" lon="35.0462682">
<ele>499.470001</ele>
<time>2018-03-13T17:28:23.000Z</time>
</trkpt>
<trkpt lat="31.7827033" lon="35.0463841">
<ele>500.979980</ele>
<time>2018-03-13T17:28:29.000Z</time>
</trkpt>
<trkpt lat="31.7826850" lon="35.0465021">
<ele>501.270020</ele>
<time>2018-03-13T17:28:35.000Z</time>
</trkpt>
<trkpt lat="31.7826709" lon="35.0466190">
<ele>501.539978</ele>
<time>2018-03-13T17:28:41.000Z</time>
</trkpt>
<trkpt lat="31.7826552" lon="35.0467360">
<ele>501.999969</ele>
<time>2018-03-13T17:28:47.000Z</time>
</trkpt>
<trkpt lat="31.7826451" lon="35.0468531">
<ele>502.649994</ele>
<time>2018-03-13T17:28:53.000Z</time>
</trkpt>
<trkpt lat="31.7826324" lon="35.0469648">
<ele>503.250000</ele>
<time>2018-03-13T17:28:59.000Z</time>
</trkpt>
<trkpt lat="31.7826232" lon="35.0470833">
<ele>503.660004</ele>
<time>2018-03-13T17:29:05.000Z</time>
</trkpt>
<trkpt lat="31.7826178" lon="35.0471991">
<ele>504.220001</ele>
<time>2018-03-13T17:29:11.000Z</time>
</trkpt>
<trkpt lat="31.7826096" lon="35.0473149">
<ele>504.869995</ele>
<time>2018-03-13T17:29:17.000Z</time>
</trkpt>
<trkpt lat="31.7826054" lon="35.0474288">
<ele>506.140015</ele>
<time>2018-03-13T17:29:22.000Z</time>
</trkpt>
<trkpt lat="31.7825997" lon="35.0475405">
<ele>506.899994</ele>
<time>2018-03-13T17:29:28.000Z</time>
</trkpt>
<trkpt lat="31.7825866" lon="35.0476564">
<ele>507.600006</ele>
<time>2018-03-13T17:29:34.000Z</time>
</trkpt>
<trkpt lat="31.7825769" lon="35.0477722">
<ele>509.199982</ele>
<time>2018-03-13T17:29:40.000Z</time>
</trkpt>
<trkpt lat="31.7825833" lon="35.0478939">
<ele>509.350006</ele>
<time>2018-03-13T17:29:46.000Z</time>
</trkpt>
<trkpt lat="31.7825880" lon="35.0480189">
<ele>510.579987</ele>
<time>2018-03-13T17:29:52.000Z</time>
</trkpt>
<trkpt lat="31.7826088" lon="35.0481246">
<ele>511.509979</ele>
<time>2018-03-13T17:29:57.000Z</time>
</trkpt>
<trkpt lat="31.7826304" lon="35.0482323">
<ele>512.409973</ele>
<time>2018-03-13T17:30:02.000Z</time>
</trkpt>
<trkpt lat="31.7826477" lon="35.0483490">
<ele>512.220032</ele>
<time>2018-03-13T17:30:07.000Z</time>
</trkpt>
<trkpt lat="31.7826581" lon="35.0484552">
<ele>513.229980</ele>
<time>2018-03-13T17:30:12.000Z</time>
</trkpt>
<trkpt lat="31.7826859" lon="35.0485774">
<ele>513.729980</ele>
<time>2018-03-13T17:30:18.000Z</time>
</trkpt>
<trkpt lat="31.7827062" lon="35.0486829">
<ele>514.630005</ele>
<time>2018-03-13T17:30:23.000Z</time>
</trkpt>
<trkpt lat="31.7827284" lon="35.0487963">
<ele>515.210022</ele>
<time>2018-03-13T17:30:29.000Z</time>
</trkpt>
<trkpt lat="31.7827661" lon="35.0489177">
<ele>516.590027</ele>
<time>2018-03-13T17:30:35.000Z</time>
</trkpt>
<trkpt lat="31.7827936" lon="35.0490191">
<ele>516.980042</ele>
<time>2018-03-13T17:30:40.000Z</time>
</trkpt>
<trkpt lat="31.7828263" lon="35.0491203">
<ele>517.750000</ele>
<time>2018-03-13T17:30:45.000Z</time>
</trkpt>
<trkpt lat="31.7828708" lon="35.0492159">
<ele>518.029968</ele>
<time>2018-03-13T17:30:50.000Z</time>
</trkpt>
<trkpt lat="31.7828989" lon="35.0493175">
<ele>519.080017</ele>
<time>2018-03-13T17:30:55.000Z</time>
</trkpt>
<trkpt lat="31.7829399" lon="35.0494317">
<ele>519.510010</ele>
<time>2018-03-13T17:31:00.000Z</time>
</trkpt>
<trkpt lat="31.7829822" lon="35.0495430">
<ele>520.940002</ele>
<time>2018-03-13T17:31:06.000Z</time>
</trkpt>
<trkpt lat="31.7830083" lon="35.0496533">
<ele>521.380005</ele>
<time>2018-03-13T17:31:12.000Z</time>
</trkpt>
<trkpt lat="31.7830379" lon="35.0497617">
<ele>523.270020</ele>
<time>2018-03-13T17:31:18.000Z</time>
</trkpt>
<trkpt lat="31.7830687" lon="35.0498687">
<ele>523.609985</ele>
<time>2018-03-13T17:31:24.000Z</time>
</trkpt>
<trkpt lat="31.7830956" lon="35.0499816">
<ele>524.799988</ele>
<time>2018-03-13T17:31:30.000Z</time>
</trkpt>
<trkpt lat="31.7831112" lon="35.0500933">
<ele>525.140015</ele>
<time>2018-03-13T17:31:36.000Z</time>
</trkpt>
<trkpt lat="31.7831158" lon="35.0502071">
<ele>526.109985</ele>
<time>2018-03-13T17:31:42.000Z</time>
</trkpt>
<trkpt lat="31.7831158" lon="35.0503297">
<ele>527.040039</ele>
<time>2018-03-13T17:31:49.000Z</time>
</trkpt>
<trkpt lat="31.7831274" lon="35.0504363">
<ele>528.729980</ele>
<time>2018-03-13T17:31:55.000Z</time>
</trkpt>
<trkpt lat="31.7831201" lon="35.0505493">
<ele>529.570007</ele>
<time>2018-03-13T17:32:02.000Z</time>
</trkpt>
<trkpt lat="31.7831133" lon="35.0506719">
<ele>530.840027</ele>
<time>2018-03-13T17:32:09.000Z</time>
</trkpt>
<trkpt lat="31.7831070" lon="35.0507835">
<ele>531.799988</ele>
<time>2018-03-13T17:32:15.000Z</time>
</trkpt>
<trkpt lat="31.7830960" lon="35.0508956">
<ele>532.750000</ele>
<time>2018-03-13T17:32:22.000Z</time>
</trkpt>
<trkpt lat="31.7830995" lon="35.0510035">
<ele>533.219971</ele>
<time>2018-03-13T17:32:28.000Z</time>
</trkpt>
<trkpt lat="31.7830785" lon="35.0511175">
<ele>533.909973</ele>
<time>2018-03-13T17:32:35.000Z</time>
</trkpt>
<trkpt lat="31.7830751" lon="35.0512355">
<ele>535.040039</ele>
<time>2018-03-13T17:32:42.000Z</time>
</trkpt>
<trkpt lat="31.7830757" lon="35.0513475">
<ele>536.460022</ele>
<time>2018-03-13T17:32:48.000Z</time>
</trkpt>
<trkpt lat="31.7830736" lon="35.0514583">
<ele>537.450012</ele>
<time>2018-03-13T17:32:54.000Z</time>
</trkpt>
<trkpt lat="31.7830716" lon="35.0515687">
<ele>538.010010</ele>
<time>2018-03-13T17:33:00.000Z</time>
</trkpt>
<trkpt lat="31.7830739" lon="35.0516792">
<ele>538.369995</ele>
<time>2018-03-13T17:33:06.000Z</time>
</trkpt>
<trkpt lat="31.7830671" lon="35.0517903">
<ele>539.049988</ele>
<time>2018-03-13T17:33:12.000Z</time>
</trkpt>
<trkpt lat="31.7830697" lon="35.0519026">
<ele>539.660034</ele>
<time>2018-03-13T17:33:18.000Z</time>
</trkpt>
<trkpt lat="31.7830676" lon="35.0520278">
<ele>541.070007</ele>
<time>2018-03-13T17:33:24.000Z</time>
</trkpt>
<trkpt lat="31.7830691" lon="35.0521395">
<ele>542.119995</ele>
<time>2018-03-13T17:33:30.000Z</time>
</trkpt>
<trkpt lat="31.7830646" lon="35.0522473">
<ele>543.250000</ele>
<time>2018-03-13T17:33:36.000Z</time>
</trkpt>
<trkpt lat="31.7830651" lon="35.0523691">
<ele>543.880005</ele>
<time>2018-03-13T17:33:43.000Z</time>
</trkpt>
<trkpt lat="31.7830517" lon="35.0524806">
<ele>544.789978</ele>
<time>2018-03-13T17:33:49.000Z</time>
</trkpt>
<trkpt lat="31.7830506" lon="35.0525925">
<ele>545.530029</ele>
<time>2018-03-13T17:33:55.000Z</time>
</trkpt>
<trkpt lat="31.7830474" lon="35.0527064">
<ele>546.239990</ele>
<time>2018-03-13T17:34:01.000Z</time>
</trkpt>
<trkpt lat="31.7830382" lon="35.0528150">
<ele>546.710022</ele>
<time>2018-03-13T17:34:06.000Z</time>
</trkpt>
<trkpt lat="31.7830423" lon="35.0529223">
<ele>547.160034</ele>
<time>2018-03-13T17:34:11.000Z</time>
</trkpt>
<trkpt lat="31.7830355" lon="35.0530451">
<ele>547.719971</ele>
<time>2018-03-13T17:34:16.000Z</time>
</trkpt>
<trkpt lat="31.7830167" lon="35.0531652">
<ele>548.309998</ele>
<time>2018-03-13T17:34:22.000Z</time>
</trkpt>
<trkpt lat="31.7829902" lon="35.0532839">
<ele>548.799988</ele>
<time>2018-03-13T17:34:27.000Z</time>
</trkpt>
<trkpt lat="31.7829661" lon="35.0533877">
<ele>549.720032</ele>
<time>2018-03-13T17:34:32.000Z</time>
</trkpt>
<trkpt lat="31.7829349" lon="35.0534869">
<ele>549.799988</ele>
<time>2018-03-13T17:34:37.000Z</time>
</trkpt>
<trkpt lat="31.7828975" lon="35.0535933">
<ele>550.580017</ele>
<time>2018-03-13T17:34:42.000Z</time>
</trkpt>
<trkpt lat="31.7828512" lon="35.0537021">
<ele>550.899963</ele>
<time>2018-03-13T17:34:48.000Z</time>
</trkpt>
<trkpt lat="31.7828041" lon="35.0538136">
<ele>551.719971</ele>
<time>2018-03-13T17:34:54.000Z</time>
</trkpt>
<trkpt lat="31.7827631" lon="35.0539209">
<ele>552.320007</ele>
<time>2018-03-13T17:35:00.000Z</time>
</trkpt>
<trkpt lat="31.7827217" lon="35.0540207">
<ele>553.209961</ele>
<time>2018-03-13T17:35:06.000Z</time>
</trkpt>
<trkpt lat="31.7826787" lon="35.0541272">
<ele>554.359985</ele>
<time>2018-03-13T17:35:12.000Z</time>
</trkpt>
<trkpt lat="31.7826479" lon="35.0542510">
<ele>555.130005</ele>
<time>2018-03-13T17:35:17.000Z</time>
</trkpt>
<trkpt lat="31.7826162" lon="35.0543514">
<ele>555.960022</ele>
<time>2018-03-13T17:35:23.000Z</time>
</trkpt>
<trkpt lat="31.7825964" lon="35.0544615">
<ele>556.580017</ele>
<time>2018-03-13T17:35:29.000Z</time>
</trkpt>
<trkpt lat="31.7825674" lon="35.0545752">
<ele>557.779968</ele>
<time>2018-03-13T17:35:35.000Z</time>
</trkpt>
<trkpt lat="31.7825377" lon="35.0546918">
<ele>558.359985</ele>
<time>2018-03-13T17:35:41.000Z</time>
</trkpt>
<trkpt lat="31.7825046" lon="35.0548041">
<ele>558.989990</ele>
<time>2018-03-13T17:35:47.000Z</time>
</trkpt>
<trkpt lat="31.7824676" lon="35.0549110">
<ele>559.459961</ele>
<time>2018-03-13T17:35:53.000Z</time>
</trkpt>
<trkpt lat="31.7824238" lon="35.0550192">
<ele>561.299988</ele>
<time>2018-03-13T17:36:00.000Z</time>
</trkpt>
<trkpt lat="31.7823653" lon="35.0551025">
<ele>562.279968</ele>
<time>2018-03-13T17:36:07.000Z</time>
</trkpt>
<trkpt lat="31.7822990" lon="35.0551813">
<ele>564.159973</ele>
<time>2018-03-13T17:36:14.000Z</time>
</trkpt>
<trkpt lat="31.7822207" lon="35.0552444">
<ele>564.830017</ele>
<time>2018-03-13T17:36:21.000Z</time>
</trkpt>
<trkpt lat="31.7821337" lon="35.0552953">
<ele>566.170044</ele>
<time>2018-03-13T17:36:28.000Z</time>
</trkpt>
<trkpt lat="31.7820427" lon="35.0553346">
<ele>568.010010</ele>
<time>2018-03-13T17:36:35.000Z</time>
</trkpt>
<trkpt lat="31.7819487" lon="35.0553663">
<ele>568.640015</ele>
<time>2018-03-13T17:36:41.000Z</time>
</trkpt>
<trkpt lat="31.7818598" lon="35.0553818">
<ele>570.080017</ele>
<time>2018-03-13T17:36:48.000Z</time>
</trkpt>
<trkpt lat="31.7817662" lon="35.0553889">
<ele>570.920044</ele>
<time>2018-03-13T17:36:55.000Z</time>
</trkpt>
<trkpt lat="31.7816700" lon="35.0553818">
<ele>571.859985</ele>
<time>2018-03-13T17:37:02.000Z</time>
</trkpt>
<trkpt lat="31.7815811" lon="35.0553606">
<ele>572.559998</ele>
<time>2018-03-13T17:37:09.000Z</time>
</trkpt>
<trkpt lat="31.7814856" lon="35.0553504">
<ele>573.320007</ele>
<time>2018-03-13T17:37:16.000Z</time>
</trkpt>
<trkpt lat="31.7813898" lon="35.0553384">
<ele>573.919983</ele>
<time>2018-03-13T17:37:22.000Z</time>
</trkpt>
<trkpt lat="31.7812935" lon="35.0553176">
<ele>574.909973</ele>
<time>2018-03-13T17:37:28.000Z</time>
</trkpt>
<trkpt lat="31.7811922" lon="35.0552914">
<ele>575.950012</ele>
<time>2018-03-13T17:37:34.000Z</time>
</trkpt>
<trkpt lat="31.7810899" lon="35.0552862">
<ele>577.349976</ele>
<time>2018-03-13T17:37:40.000Z</time>
</trkpt>
<trkpt lat="31.7809941" lon="35.0552915">
<ele>577.630005</ele>
<time>2018-03-13T17:37:46.000Z</time>
</trkpt>
<trkpt lat="31.7808967" lon="35.0552927">
<ele>577.529968</ele>
<time>2018-03-13T17:37:51.000Z</time>
</trkpt>
<trkpt lat="31.7807957" lon="35.0552961">
<ele>579.250000</ele>
<time>2018-03-13T17:37:57.000Z</time>
</trkpt>
<trkpt lat="31.7807019" lon="35.0552824">
<ele>580.290039</ele>
<time>2018-03-13T17:38:04.000Z</time>
</trkpt>
<trkpt lat="31.7806055" lon="35.0552796">
<ele>581.140015</ele>
<time>2018-03-13T17:38:11.000Z</time>
</trkpt>
<trkpt lat="31.7805066" lon="35.0552652">
<ele>581.969971</ele>
<time>2018-03-13T17:38:18.000Z</time>
</trkpt>
<trkpt lat="31.7804051" lon="35.0552525">
<ele>583.020020</ele>
<time>2018-03-13T17:38:25.000Z</time>
</trkpt>
<trkpt lat="31.7803045" lon="35.0552693">
<ele>583.919983</ele>
<time>2018-03-13T17:38:32.000Z</time>
</trkpt>
<trkpt lat="31.7802378" lon="35.0553219">
<ele>584.340027</ele>
<time>2018-03-13T17:42:13.000Z</time>
</trkpt>
<trkpt lat="31.7801870" lon="35.0554144">
<ele>584.070007</ele>
<time>2018-03-13T17:42:19.000Z</time>
</trkpt>
<trkpt lat="31.7801251" lon="35.0555384">
<ele>583.169983</ele>
<time>2018-03-13T17:42:23.000Z</time>
</trkpt>
<trkpt lat="31.7800604" lon="35.0556588">
<ele>583.109985</ele>
<time>2018-03-13T17:42:26.000Z</time>
</trkpt>
<trkpt lat="31.7799998" lon="35.0557802">
<ele>582.770020</ele>
<time>2018-03-13T17:42:29.000Z</time>
</trkpt>
<trkpt lat="31.7799538" lon="35.0558786">
<ele>582.179993</ele>
<time>2018-03-13T17:42:31.000Z</time>
</trkpt>
<trkpt lat="31.7799090" lon="35.0559847">
<ele>582.099976</ele>
<time>2018-03-13T17:42:33.000Z</time>
</trkpt>
<trkpt lat="31.7798663" lon="35.0560934">
<ele>582.080017</ele>
<time>2018-03-13T17:42:35.000Z</time>
</trkpt>
<trkpt lat="31.7798187" lon="35.0562001">
<ele>582.239990</ele>
<time>2018-03-13T17:42:37.000Z</time>
</trkpt>
<trkpt lat="31.7797700" lon="35.0563018">
<ele>582.130005</ele>
<time>2018-03-13T17:42:39.000Z</time>
</trkpt>
<trkpt lat="31.7797240" lon="35.0564070">
<ele>581.580017</ele>
<time>2018-03-13T17:42:41.000Z</time>
</trkpt>
<trkpt lat="31.7796749" lon="35.0565105">
<ele>581.530029</ele>
<time>2018-03-13T17:42:43.000Z</time>
</trkpt>
<trkpt lat="31.7796259" lon="35.0566136">
<ele>581.119995</ele>
<time>2018-03-13T17:42:45.000Z</time>
</trkpt>
<trkpt lat="31.7795825" lon="35.0567240">
<ele>581.469971</ele>
<time>2018-03-13T17:42:47.000Z</time>
</trkpt>
<trkpt lat="31.7795355" lon="35.0568360">
<ele>580.700012</ele>
<time>2018-03-13T17:42:49.000Z</time>
</trkpt>
<trkpt lat="31.7794824" lon="35.0569416">
<ele>580.830017</ele>
<time>2018-03-13T17:42:51.000Z</time>
</trkpt>
<trkpt lat="31.7794340" lon="35.0570488">
<ele>581.039978</ele>
<time>2018-03-13T17:42:53.000Z</time>
</trkpt>
<trkpt lat="31.7793872" lon="35.0571493">
<ele>580.989990</ele>
<time>2018-03-13T17:42:55.000Z</time>
</trkpt>
<trkpt lat="31.7793398" lon="35.0572469">
<ele>580.940002</ele>
<time>2018-03-13T17:42:57.000Z</time>
</trkpt>
<trkpt lat="31.7792739" lon="35.0573855">
<ele>580.840027</ele>
<time>2018-03-13T17:43:00.000Z</time>
</trkpt>
<trkpt lat="31.7792116" lon="35.0575177">
<ele>580.789978</ele>
<time>2018-03-13T17:43:03.000Z</time>
</trkpt>
<trkpt lat="31.7791608" lon="35.0576315">
<ele>581.900024</ele>
<time>2018-03-13T17:43:06.000Z</time>
</trkpt>
<trkpt lat="31.7791095" lon="35.0577310">
<ele>581.989990</ele>
<time>2018-03-13T17:43:09.000Z</time>
</trkpt>
<trkpt lat="31.7790695" lon="35.0578600">
<ele>583.280029</ele>
<time>2018-03-13T17:43:13.000Z</time>
</trkpt>
<trkpt lat="31.7790502" lon="35.0579938">
<ele>583.609985</ele>
<time>2018-03-13T17:43:17.000Z</time>
</trkpt>
<trkpt lat="31.7790697" lon="35.0581238">
<ele>583.830017</ele>
<time>2018-03-13T17:43:21.000Z</time>
</trkpt>
<trkpt lat="31.7791531" lon="35.0582227">
<ele>584.080017</ele>
<time>2018-03-13T17:43:25.000Z</time>
</trkpt>
<trkpt lat="31.7792488" lon="35.0582379">
<ele>584.530029</ele>
<time>2018-03-13T17:43:28.000Z</time>
</trkpt>
<trkpt lat="31.7793504" lon="35.0582179">
<ele>584.539978</ele>
<time>2018-03-13T17:43:31.000Z</time>
</trkpt>
<trkpt lat="31.7794548" lon="35.0581925">
<ele>584.780029</ele>
<time>2018-03-13T17:43:34.000Z</time>
</trkpt>
<trkpt lat="31.7795597" lon="35.0581673">
<ele>584.929993</ele>
<time>2018-03-13T17:43:37.000Z</time>
</trkpt>
<trkpt lat="31.7796596" lon="35.0581492">
<ele>585.609985</ele>
<time>2018-03-13T17:43:40.000Z</time>
</trkpt>
<trkpt lat="31.7797622" lon="35.0581404">
<ele>584.979980</ele>
<time>2018-03-13T17:43:43.000Z</time>
</trkpt>
<trkpt lat="31.7798686" lon="35.0581392">
<ele>585.580017</ele>
<time>2018-03-13T17:43:46.000Z</time>
</trkpt>
<trkpt lat="31.7799741" lon="35.0581548">
<ele>585.419983</ele>
<time>2018-03-13T17:43:49.000Z</time>
</trkpt>
<trkpt lat="31.7800884" lon="35.0581932">
<ele>585.539978</ele>
<time>2018-03-13T17:43:52.000Z</time>
</trkpt>
<trkpt lat="31.7801908" lon="35.0582617">
<ele>585.570007</ele>
<time>2018-03-13T17:43:55.000Z</time>
</trkpt>
<trkpt lat="31.7802721" lon="35.0583582">
<ele>585.929993</ele>
<time>2018-03-13T17:43:58.000Z</time>
</trkpt>
<trkpt lat="31.7803315" lon="35.0584697">
<ele>586.219971</ele>
<time>2018-03-13T17:44:01.000Z</time>
</trkpt>
<trkpt lat="31.7803741" lon="35.0585844">
<ele>586.059998</ele>
<time>2018-03-13T17:44:04.000Z</time>
</trkpt>
<trkpt lat="31.7803900" lon="35.0586986">
<ele>586.690002</ele>
<time>2018-03-13T17:44:07.000Z</time>
</trkpt>
<trkpt lat="31.7804061" lon="35.0588094">
<ele>586.479980</ele>
<time>2018-03-13T17:44:10.000Z</time>
</trkpt>
<trkpt lat="31.7804206" lon="35.0589168">
<ele>587.450012</ele>
<time>2018-03-13T17:44:13.000Z</time>
</trkpt>
<trkpt lat="31.7804305" lon="35.0590602">
<ele>587.750000</ele>
<time>2018-03-13T17:44:17.000Z</time>
</trkpt>
<trkpt lat="31.7804353" lon="35.0591740">
<ele>588.380005</ele>
<time>2018-03-13T17:44:20.000Z</time>
</trkpt>
<trkpt lat="31.7804380" lon="35.0593031">
<ele>589.650024</ele>
<time>2018-03-13T17:44:25.000Z</time>
</trkpt>
<trkpt lat="31.7804314" lon="35.0594311">
<ele>590.799988</ele>
<time>2018-03-13T17:44:30.000Z</time>
</trkpt>
<trkpt lat="31.7804244" lon="35.0595585">
<ele>591.210022</ele>
<time>2018-03-13T17:44:35.000Z</time>
</trkpt>
<trkpt lat="31.7804115" lon="35.0596845">
<ele>592.029968</ele>
<time>2018-03-13T17:44:40.000Z</time>
</trkpt>
<trkpt lat="31.7803970" lon="35.0598077">
<ele>592.540039</ele>
<time>2018-03-13T17:44:45.000Z</time>
</trkpt>
<trkpt lat="31.7803838" lon="35.0599367">
<ele>593.549988</ele>
<time>2018-03-13T17:44:50.000Z</time>
</trkpt>
<trkpt lat="31.7803636" lon="35.0600473">
<ele>594.250000</ele>
<time>2018-03-13T17:44:54.000Z</time>
</trkpt>
<trkpt lat="31.7803481" lon="35.0601702">
<ele>594.250000</ele>
<time>2018-03-13T17:44:58.000Z</time>
</trkpt>
<trkpt lat="31.7803308" lon="35.0603004">
<ele>594.559998</ele>
<time>2018-03-13T17:45:02.000Z</time>
</trkpt>
<trkpt lat="31.7803130" lon="35.0604446">
<ele>594.270020</ele>
<time>2018-03-13T17:45:06.000Z</time>
</trkpt>
<trkpt lat="31.7803016" lon="35.0605780">
<ele>593.839966</ele>
<time>2018-03-13T17:45:09.000Z</time>
</trkpt>
<trkpt lat="31.7802834" lon="35.0607227">
<ele>593.229980</ele>
<time>2018-03-13T17:45:12.000Z</time>
</trkpt>
<trkpt lat="31.7802667" lon="35.0608295">
<ele>592.790039</ele>
<time>2018-03-13T17:45:14.000Z</time>
</trkpt>
<trkpt lat="31.7802466" lon="35.0609492">
<ele>592.510010</ele>
<time>2018-03-13T17:45:16.000Z</time>
</trkpt>
<trkpt lat="31.7802159" lon="35.0610783">
<ele>591.820007</ele>
<time>2018-03-13T17:45:18.000Z</time>
</trkpt>
<trkpt lat="31.7801841" lon="35.0612060">
<ele>592.179993</ele>
<time>2018-03-13T17:45:20.000Z</time>
</trkpt>
<trkpt lat="31.7801518" lon="35.0613230">
<ele>592.169983</ele>
<time>2018-03-13T17:45:22.000Z</time>
</trkpt>
<trkpt lat="31.7801215" lon="35.0614306">
<ele>592.400024</ele>
<time>2018-03-13T17:45:24.000Z</time>
</trkpt>
<trkpt lat="31.7800788" lon="35.0615553">
<ele>593.869995</ele>
<time>2018-03-13T17:45:27.000Z</time>
</trkpt>
<trkpt lat="31.7800247" lon="35.0616768">
<ele>594.639954</ele>
<time>2018-03-13T17:45:31.000Z</time>
</trkpt>
<trkpt lat="31.7799751" lon="35.0617929">
<ele>595.090027</ele>
<time>2018-03-13T17:45:35.000Z</time>
</trkpt>
<trkpt lat="31.7799268" lon="35.0619051">
<ele>595.790039</ele>
<time>2018-03-13T17:45:39.000Z</time>
</trkpt>
<trkpt lat="31.7798793" lon="35.0620152">
<ele>596.159973</ele>
<time>2018-03-13T17:45:43.000Z</time>
</trkpt>
<trkpt lat="31.7798261" lon="35.0621242">
<ele>597.059998</ele>
<time>2018-03-13T17:45:47.000Z</time>
</trkpt>
<trkpt lat="31.7797732" lon="35.0622358">
<ele>597.489990</ele>
<time>2018-03-13T17:45:51.000Z</time>
</trkpt>
<trkpt lat="31.7797200" lon="35.0623483">
<ele>598.220032</ele>
<time>2018-03-13T17:45:55.000Z</time>
</trkpt>
<trkpt lat="31.7796581" lon="35.0624594">
<ele>599.030029</ele>
<time>2018-03-13T17:45:59.000Z</time>
</trkpt>
<trkpt lat="31.7795982" lon="35.0625681">
<ele>599.320007</ele>
<time>2018-03-13T17:46:03.000Z</time>
</trkpt>
<trkpt lat="31.7795365" lon="35.0626730">
<ele>599.619995</ele>
<time>2018-03-13T17:46:07.000Z</time>
</trkpt>
<trkpt lat="31.7794738" lon="35.0627812">
<ele>599.730042</ele>
<time>2018-03-13T17:46:11.000Z</time>
</trkpt>
<trkpt lat="31.7794224" lon="35.0628967">
<ele>600.089966</ele>
<time>2018-03-13T17:46:15.000Z</time>
</trkpt>
<trkpt lat="31.7793753" lon="35.0630226">
<ele>600.039978</ele>
<time>2018-03-13T17:46:19.000Z</time>
</trkpt>
<trkpt lat="31.7793255" lon="35.0631347">
<ele>600.410034</ele>
<time>2018-03-13T17:46:22.000Z</time>
</trkpt>
<trkpt lat="31.7792805" lon="35.0632417">
<ele>600.020020</ele>
<time>2018-03-13T17:46:25.000Z</time>
</trkpt>
<trkpt lat="31.7792390" lon="35.0633520">
<ele>600.670044</ele>
<time>2018-03-13T17:46:28.000Z</time>
</trkpt>
<trkpt lat="31.7791932" lon="35.0634587">
<ele>600.750000</ele>
<time>2018-03-13T17:46:31.000Z</time>
</trkpt>
<trkpt lat="31.7791541" lon="35.0635648">
<ele>600.469971</ele>
<time>2018-03-13T17:46:34.000Z</time>
</trkpt>
<trkpt lat="31.7791129" lon="35.0636669">
<ele>600.950012</ele>
<time>2018-03-13T17:46:37.000Z</time>
</trkpt>
<trkpt lat="31.7790630" lon="35.0637867">
<ele>601.140015</ele>
<time>2018-03-13T17:46:41.000Z</time>
</trkpt>
<trkpt lat="31.7790239" lon="35.0638962">
<ele>601.520020</ele>
<time>2018-03-13T17:46:45.000Z</time>
</trkpt>
<trkpt lat="31.7790014" lon="35.0640175">
<ele>602.960022</ele>
<time>2018-03-13T17:46:50.000Z</time>
</trkpt>
<trkpt lat="31.7789712" lon="35.0641248">
<ele>603.960022</ele>
<time>2018-03-13T17:46:55.000Z</time>
</trkpt>
<trkpt lat="31.7789364" lon="35.0642311">
<ele>604.809998</ele>
<time>2018-03-13T17:47:00.000Z</time>
</trkpt>
<trkpt lat="31.7789424" lon="35.0643510">
<ele>605.690002</ele>
<time>2018-03-13T17:47:06.000Z</time>
</trkpt>
<trkpt lat="31.7789780" lon="35.0644537">
<ele>607.020020</ele>
<time>2018-03-13T17:47:11.000Z</time>
</trkpt>
<trkpt lat="31.7790390" lon="35.0645547">
<ele>607.149963</ele>
<time>2018-03-13T17:47:16.000Z</time>
</trkpt>
<trkpt lat="31.7791482" lon="35.0645953">
<ele>607.780029</ele>
<time>2018-03-13T17:47:21.000Z</time>
</trkpt>
<trkpt lat="31.7792430" lon="35.0645706">
<ele>606.210022</ele>
<time>2018-03-13T17:47:24.000Z</time>
</trkpt>
<trkpt lat="31.7793509" lon="35.0645040">
<ele>605.890015</ele>
<time>2018-03-13T17:47:27.000Z</time>
</trkpt>
<trkpt lat="31.7794701" lon="35.0644325">
<ele>605.599976</ele>
<time>2018-03-13T17:47:30.000Z</time>
</trkpt>
<trkpt lat="31.7795850" lon="35.0643674">
<ele>605.830017</ele>
<time>2018-03-13T17:47:33.000Z</time>
</trkpt>
<trkpt lat="31.7796943" lon="35.0643066">
<ele>605.940002</ele>
<time>2018-03-13T17:47:36.000Z</time>
</trkpt>
<trkpt lat="31.7797943" lon="35.0642403">
<ele>606.669983</ele>
<time>2018-03-13T17:47:39.000Z</time>
</trkpt>
<trkpt lat="31.7798823" lon="35.0641873">
<ele>607.080017</ele>
<time>2018-03-13T17:47:42.000Z</time>
</trkpt>
<trkpt lat="31.7799732" lon="35.0641356">
<ele>607.020020</ele>
<time>2018-03-13T17:47:45.000Z</time>
</trkpt>
<trkpt lat="31.7800625" lon="35.0640737">
<ele>607.210022</ele>
<time>2018-03-13T17:47:48.000Z</time>
</trkpt>
<trkpt lat="31.7801492" lon="35.0640150">
<ele>607.580017</ele>
<time>2018-03-13T17:47:51.000Z</time>
</trkpt>
<trkpt lat="31.7802342" lon="35.0639572">
<ele>607.940002</ele>
<time>2018-03-13T17:47:54.000Z</time>
</trkpt>
<trkpt lat="31.7803212" lon="35.0639100">
<ele>607.940002</ele>
<time>2018-03-13T17:47:57.000Z</time>
</trkpt>
<trkpt lat="31.7804120" lon="35.0638559">
<ele>607.929993</ele>
<time>2018-03-13T17:48:00.000Z</time>
</trkpt>
<trkpt lat="31.7805128" lon="35.0638069">
<ele>607.820007</ele>
<time>2018-03-13T17:48:03.000Z</time>
</trkpt>
<trkpt lat="31.7806195" lon="35.0637590">
<ele>607.730042</ele>
<time>2018-03-13T17:48:06.000Z</time>
</trkpt>
<trkpt lat="31.7807478" lon="35.0637101">
<ele>607.070007</ele>
<time>2018-03-13T17:48:09.000Z</time>
</trkpt>
<trkpt lat="31.7808494" lon="35.0636883">
<ele>606.530029</ele>
<time>2018-03-13T17:48:11.000Z</time>
</trkpt>
<trkpt lat="31.7809431" lon="35.0637000">
<ele>605.869995</ele>
<time>2018-03-13T17:48:13.000Z</time>
</trkpt>
<trkpt lat="31.7810288" lon="35.0638011">
<ele>606.299988</ele>
<time>2018-03-13T17:48:16.000Z</time>
</trkpt>
<trkpt lat="31.7810570" lon="35.0639484">
<ele>605.799988</ele>
<time>2018-03-13T17:48:19.000Z</time>
</trkpt>
<trkpt lat="31.7810625" lon="35.0640590">
<ele>605.929993</ele>
<time>2018-03-13T17:48:21.000Z</time>
</trkpt>
<trkpt lat="31.7810698" lon="35.0641788">
<ele>605.799988</ele>
<time>2018-03-13T17:48:23.000Z</time>
</trkpt>
<trkpt lat="31.7810723" lon="35.0642876">
<ele>605.909973</ele>
<time>2018-03-13T17:48:25.000Z</time>
</trkpt>
<trkpt lat="31.7810725" lon="35.0644374">
<ele>606.229980</ele>
<time>2018-03-13T17:48:28.000Z</time>
</trkpt>
<trkpt lat="31.7810816" lon="35.0645679">
<ele>607.020020</ele>
<time>2018-03-13T17:48:31.000Z</time>
</trkpt>
<trkpt lat="31.7810782" lon="35.0647035">
<ele>606.890015</ele>
<time>2018-03-13T17:48:34.000Z</time>
</trkpt>
<trkpt lat="31.7810828" lon="35.0648427">
<ele>607.580017</ele>
<time>2018-03-13T17:48:37.000Z</time>
</trkpt>
<trkpt lat="31.7810849" lon="35.0649697">
<ele>607.950012</ele>
<time>2018-03-13T17:48:40.000Z</time>
</trkpt>
<trkpt lat="31.7810844" lon="35.0650949">
<ele>608.580017</ele>
<time>2018-03-13T17:48:43.000Z</time>
</trkpt>
<trkpt lat="31.7810886" lon="35.0652167">
<ele>608.690002</ele>
<time>2018-03-13T17:48:46.000Z</time>
</trkpt>
<trkpt lat="31.7810892" lon="35.0653329">
<ele>610.049988</ele>
<time>2018-03-13T17:48:49.000Z</time>
</trkpt>
<trkpt lat="31.7810959" lon="35.0654461">
<ele>609.859985</ele>
<time>2018-03-13T17:48:52.000Z</time>
</trkpt>
<trkpt lat="31.7810863" lon="35.0655814">
<ele>611.099976</ele>
<time>2018-03-13T17:48:56.000Z</time>
</trkpt>
<trkpt lat="31.7810760" lon="35.0656969">
<ele>611.729980</ele>
<time>2018-03-13T17:49:00.000Z</time>
</trkpt>
<trkpt lat="31.7810664" lon="35.0658105">
<ele>612.119995</ele>
<time>2018-03-13T17:49:03.000Z</time>
</trkpt>
<trkpt lat="31.7810508" lon="35.0659293">
<ele>612.900024</ele>
<time>2018-03-13T17:49:07.000Z</time>
</trkpt>
<trkpt lat="31.7810208" lon="35.0660458">
<ele>613.359985</ele>
<time>2018-03-13T17:49:11.000Z</time>
</trkpt>
<trkpt lat="31.7809783" lon="35.0661590">
<ele>613.710022</ele>
<time>2018-03-13T17:49:15.000Z</time>
</trkpt>
<trkpt lat="31.7809330" lon="35.0662691">
<ele>614.020020</ele>
<time>2018-03-13T17:49:19.000Z</time>
</trkpt>
<trkpt lat="31.7808726" lon="35.0663756">
<ele>614.419983</ele>
<time>2018-03-13T17:49:23.000Z</time>
</trkpt>
<trkpt lat="31.7808107" lon="35.0664843">
<ele>614.380005</ele>
<time>2018-03-13T17:49:27.000Z</time>
</trkpt>
<trkpt lat="31.7807573" lon="35.0665787">
<ele>614.670044</ele>
<time>2018-03-13T17:49:30.000Z</time>
</trkpt>
<trkpt lat="31.7806965" lon="35.0666695">
<ele>614.359985</ele>
<time>2018-03-13T17:49:33.000Z</time>
</trkpt>
<trkpt lat="31.7806278" lon="35.0667661">
<ele>613.429993</ele>
<time>2018-03-13T17:49:36.000Z</time>
</trkpt>
<trkpt lat="31.7805452" lon="35.0668836">
<ele>613.089966</ele>
<time>2018-03-13T17:49:39.000Z</time>
</trkpt>
<trkpt lat="31.7804771" lon="35.0669770">
<ele>612.700012</ele>
<time>2018-03-13T17:49:41.000Z</time>
</trkpt>
<trkpt lat="31.7803989" lon="35.0670823">
<ele>611.859985</ele>
<time>2018-03-13T17:49:43.000Z</time>
</trkpt>
<trkpt lat="31.7803186" lon="35.0671919">
<ele>611.549988</ele>
<time>2018-03-13T17:49:45.000Z</time>
</trkpt>
<trkpt lat="31.7802438" lon="35.0673068">
<ele>611.669983</ele>
<time>2018-03-13T17:49:47.000Z</time>
</trkpt>
<trkpt lat="31.7801909" lon="35.0674233">
<ele>611.410034</ele>
<time>2018-03-13T17:49:49.000Z</time>
</trkpt>
<trkpt lat="31.7801532" lon="35.0675376">
<ele>611.039978</ele>
<time>2018-03-13T17:49:51.000Z</time>
</trkpt>
<trkpt lat="31.7801368" lon="35.0676559">
<ele>611.250000</ele>
<time>2018-03-13T17:49:53.000Z</time>
</trkpt>
<trkpt lat="31.7801448" lon="35.0677752">
<ele>610.600037</ele>
<time>2018-03-13T17:49:55.000Z</time>
</trkpt>
<trkpt lat="31.7801726" lon="35.0678982">
<ele>609.100037</ele>
<time>2018-03-13T17:49:57.000Z</time>
</trkpt>
<trkpt lat="31.7802108" lon="35.0680292">
<ele>608.659973</ele>
<time>2018-03-13T17:49:59.000Z</time>
</trkpt>
<trkpt lat="31.7802541" lon="35.0681833">
<ele>606.520020</ele>
<time>2018-03-13T17:50:01.000Z</time>
</trkpt>
<trkpt lat="31.7803031" lon="35.0683508">
<ele>605.349976</ele>
<time>2018-03-13T17:50:03.000Z</time>
</trkpt>
<trkpt lat="31.7803342" lon="35.0685294">
<ele>603.840027</ele>
<time>2018-03-13T17:50:05.000Z</time>
</trkpt>
<trkpt lat="31.7803388" lon="35.0687054">
<ele>603.479980</ele>
<time>2018-03-13T17:50:07.000Z</time>
</trkpt>
<trkpt lat="31.7803239" lon="35.0688723">
<ele>602.399963</ele>
<time>2018-03-13T17:50:09.000Z</time>
</trkpt>
<trkpt lat="31.7803016" lon="35.0690465">
<ele>601.489990</ele>
<time>2018-03-13T17:50:11.000Z</time>
</trkpt>
<trkpt lat="31.7802773" lon="35.0692264">
<ele>600.429993</ele>
<time>2018-03-13T17:50:13.000Z</time>
</trkpt>
<trkpt lat="31.7802447" lon="35.0694103">
<ele>599.109985</ele>
<time>2018-03-13T17:50:15.000Z</time>
</trkpt>
<trkpt lat="31.7802111" lon="35.0695994">
<ele>598.770020</ele>
<time>2018-03-13T17:50:17.000Z</time>
</trkpt>
<trkpt lat="31.7801761" lon="35.0697865">
<ele>598.340027</ele>
<time>2018-03-13T17:50:19.000Z</time>
</trkpt>
<trkpt lat="31.7801257" lon="35.0699625">
<ele>597.929993</ele>
<time>2018-03-13T17:50:21.000Z</time>
</trkpt>
<trkpt lat="31.7800576" lon="35.0701172">
<ele>597.580017</ele>
<time>2018-03-13T17:50:23.000Z</time>
</trkpt>
<trkpt lat="31.7799838" lon="35.0702584">
<ele>596.529968</ele>
<time>2018-03-13T17:50:25.000Z</time>
</trkpt>
<trkpt lat="31.7799090" lon="35.0703932">
<ele>596.890015</ele>
<time>2018-03-13T17:50:27.000Z</time>
</trkpt>
<trkpt lat="31.7798352" lon="35.0705254">
<ele>596.350037</ele>
<time>2018-03-13T17:50:29.000Z</time>
</trkpt>
<trkpt lat="31.7797583" lon="35.0706495">
<ele>596.220032</ele>
<time>2018-03-13T17:50:31.000Z</time>
</trkpt>
<trkpt lat="31.7796845" lon="35.0707706">
<ele>595.770020</ele>
<time>2018-03-13T17:50:33.000Z</time>
</trkpt>
<trkpt lat="31.7796097" lon="35.0708950">
<ele>595.230042</ele>
<time>2018-03-13T17:50:35.000Z</time>
</trkpt>
<trkpt lat="31.7795412" lon="35.0710305">
<ele>594.290039</ele>
<time>2018-03-13T17:50:37.000Z</time>
</trkpt>
<trkpt lat="31.7794729" lon="35.0711769">
<ele>593.809998</ele>
<time>2018-03-13T17:50:39.000Z</time>
</trkpt>
<trkpt lat="31.7794243" lon="35.0713362">
<ele>592.780029</ele>
<time>2018-03-13T17:50:41.000Z</time>
</trkpt>
<trkpt lat="31.7794104" lon="35.0715026">
<ele>592.599976</ele>
<time>2018-03-13T17:50:43.000Z</time>
</trkpt>
<trkpt lat="31.7794209" lon="35.0716601">
<ele>592.270020</ele>
<time>2018-03-13T17:50:45.000Z</time>
</trkpt>
<trkpt lat="31.7794290" lon="35.0718045">
<ele>592.339966</ele>
<time>2018-03-13T17:50:47.000Z</time>
</trkpt>
<trkpt lat="31.7794390" lon="35.0719460">
<ele>592.280029</ele>
<time>2018-03-13T17:50:49.000Z</time>
</trkpt>
<trkpt lat="31.7794471" lon="35.0720858">
<ele>592.540039</ele>
<time>2018-03-13T17:50:51.000Z</time>
</trkpt>
<trkpt lat="31.7794483" lon="35.0722201">
<ele>592.619995</ele>
<time>2018-03-13T17:50:53.000Z</time>
</trkpt>
<trkpt lat="31.7794431" lon="35.0723492">
<ele>592.390015</ele>
<time>2018-03-13T17:50:55.000Z</time>
</trkpt>
<trkpt lat="31.7794293" lon="35.0724722">
<ele>592.660034</ele>
<time>2018-03-13T17:50:57.000Z</time>
</trkpt>
<trkpt lat="31.7794092" lon="35.0725873">
<ele>593.190002</ele>
<time>2018-03-13T17:50:59.000Z</time>
</trkpt>
<trkpt lat="31.7793859" lon="35.0726971">
<ele>593.320007</ele>
<time>2018-03-13T17:51:01.000Z</time>
</trkpt>
<trkpt lat="31.7793661" lon="35.0728030">
<ele>593.500000</ele>
<time>2018-03-13T17:51:03.000Z</time>
</trkpt>
<trkpt lat="31.7793392" lon="35.0729591">
<ele>593.119995</ele>
<time>2018-03-13T17:51:06.000Z</time>
</trkpt>
<trkpt lat="31.7793250" lon="35.0730724">
<ele>593.099976</ele>
<time>2018-03-13T17:51:08.000Z</time>
</trkpt>
<trkpt lat="31.7793119" lon="35.0731863">
<ele>593.510010</ele>
<time>2018-03-13T17:51:10.000Z</time>
</trkpt>
<trkpt lat="31.7793098" lon="35.0733001">
<ele>592.979980</ele>
<time>2018-03-13T17:51:12.000Z</time>
</trkpt>
<trkpt lat="31.7793255" lon="35.0734075">
<ele>593.480042</ele>
<time>2018-03-13T17:51:14.000Z</time>
</trkpt>
<trkpt lat="31.7793591" lon="35.0735097">
<ele>593.049988</ele>
<time>2018-03-13T17:51:16.000Z</time>
</trkpt>
<trkpt lat="31.7794048" lon="35.0736108">
<ele>592.729980</ele>
<time>2018-03-13T17:51:18.000Z</time>
</trkpt>
<trkpt lat="31.7794584" lon="35.0737056">
<ele>593.029968</ele>
<time>2018-03-13T17:51:20.000Z</time>
</trkpt>
<trkpt lat="31.7795077" lon="35.0737975">
<ele>592.840027</ele>
<time>2018-03-13T17:51:22.000Z</time>
</trkpt>
<trkpt lat="31.7795537" lon="35.0738876">
<ele>592.700012</ele>
<time>2018-03-13T17:51:24.000Z</time>
</trkpt>
<trkpt lat="31.7796055" lon="35.0739789">
<ele>592.809998</ele>
<time>2018-03-13T17:51:26.000Z</time>
</trkpt>
<trkpt lat="31.7796602" lon="35.0740704">
<ele>592.640015</ele>
<time>2018-03-13T17:51:28.000Z</time>
</trkpt>
<trkpt lat="31.7797110" lon="35.0741737">
<ele>592.289978</ele>
<time>2018-03-13T17:51:30.000Z</time>
</trkpt>
<trkpt lat="31.7797485" lon="35.0743021">
<ele>591.179993</ele>
<time>2018-03-13T17:51:32.000Z</time>
</trkpt>
<trkpt lat="31.7797820" lon="35.0744545">
<ele>589.770020</ele>
<time>2018-03-13T17:51:34.000Z</time>
</trkpt>
<trkpt lat="31.7798063" lon="35.0746248">
<ele>588.909973</ele>
<time>2018-03-13T17:51:36.000Z</time>
</trkpt>
<trkpt lat="31.7798017" lon="35.0748098">
<ele>587.820007</ele>
<time>2018-03-13T17:51:38.000Z</time>
</trkpt>
<trkpt lat="31.7797692" lon="35.0750028">
<ele>586.469971</ele>
<time>2018-03-13T17:51:40.000Z</time>
</trkpt>
<trkpt lat="31.7797312" lon="35.0751887">
<ele>586.429993</ele>
<time>2018-03-13T17:51:42.000Z</time>
</trkpt>
<trkpt lat="31.7796932" lon="35.0753424">
<ele>586.849976</ele>
<time>2018-03-13T17:51:44.000Z</time>
</trkpt>
<trkpt lat="31.7796668" lon="35.0754683">
<ele>586.989990</ele>
<time>2018-03-13T17:51:46.000Z</time>
</trkpt>
<trkpt lat="31.7796286" lon="35.0755910">
<ele>586.440002</ele>
<time>2018-03-13T17:51:48.000Z</time>
</trkpt>
<trkpt lat="31.7795720" lon="35.0757215">
<ele>586.020020</ele>
<time>2018-03-13T17:51:50.000Z</time>
</trkpt>
<trkpt lat="31.7794957" lon="35.0758469">
<ele>584.619995</ele>
<time>2018-03-13T17:51:52.000Z</time>
</trkpt>
<trkpt lat="31.7794039" lon="35.0759606">
<ele>585.140015</ele>
<time>2018-03-13T17:51:54.000Z</time>
</trkpt>
<trkpt lat="31.7793012" lon="35.0760560">
<ele>584.400024</ele>
<time>2018-03-13T17:51:56.000Z</time>
</trkpt>
<trkpt lat="31.7791945" lon="35.0761421">
<ele>584.250000</ele>
<time>2018-03-13T17:51:58.000Z</time>
</trkpt>
<trkpt lat="31.7790982" lon="35.0762294">
<ele>582.640015</ele>
<time>2018-03-13T17:52:00.000Z</time>
</trkpt>
<trkpt lat="31.7789972" lon="35.0763181">
<ele>583.330017</ele>
<time>2018-03-13T17:52:02.000Z</time>
</trkpt>
<trkpt lat="31.7789030" lon="35.0764198">
<ele>582.929993</ele>
<time>2018-03-13T17:52:04.000Z</time>
</trkpt>
<trkpt lat="31.7788464" lon="35.0765422">
<ele>582.030029</ele>
<time>2018-03-13T17:52:06.000Z</time>
</trkpt>
<trkpt lat="31.7788394" lon="35.0766785">
<ele>582.269958</ele>
<time>2018-03-13T17:52:08.000Z</time>
</trkpt>
<trkpt lat="31.7788683" lon="35.0768043">
<ele>581.410034</ele>
<time>2018-03-13T17:52:10.000Z</time>
</trkpt>
<trkpt lat="31.7789173" lon="35.0769276">
<ele>581.339966</ele>
<time>2018-03-13T17:52:12.000Z</time>
</trkpt>
<trkpt lat="31.7789741" lon="35.0770507">
<ele>580.679993</ele>
<time>2018-03-13T17:52:14.000Z</time>
</trkpt>
<trkpt lat="31.7790313" lon="35.0771767">
<ele>580.380005</ele>
<time>2018-03-13T17:52:16.000Z</time>
</trkpt>
<trkpt lat="31.7790821" lon="35.0773112">
<ele>580.150024</ele>
<time>2018-03-13T17:52:18.000Z</time>
</trkpt>
<trkpt lat="31.7791177" lon="35.0774534">
<ele>579.309998</ele>
<time>2018-03-13T17:52:20.000Z</time>
</trkpt>
<trkpt lat="31.7791349" lon="35.0776067">
<ele>578.700012</ele>
<time>2018-03-13T17:52:22.000Z</time>
</trkpt>
<trkpt lat="31.7791359" lon="35.0777586">
<ele>578.429993</ele>
<time>2018-03-13T17:52:24.000Z</time>
</trkpt>
<trkpt lat="31.7791364" lon="35.0779061">
<ele>578.070007</ele>
<time>2018-03-13T17:52:26.000Z</time>
</trkpt>
<trkpt lat="31.7791251" lon="35.0780485">
<ele>577.679993</ele>
<time>2018-03-13T17:52:28.000Z</time>
</trkpt>
<trkpt lat="31.7791000" lon="35.0781823">
<ele>577.200012</ele>
<time>2018-03-13T17:52:30.000Z</time>
</trkpt>
<trkpt lat="31.7790753" lon="35.0783115">
<ele>577.130005</ele>
<time>2018-03-13T17:52:32.000Z</time>
</trkpt>
<trkpt lat="31.7790614" lon="35.0784389">
<ele>577.890015</ele>
<time>2018-03-13T17:52:34.000Z</time>
</trkpt>
<trkpt lat="31.7790829" lon="35.0785617">
<ele>576.630005</ele>
<time>2018-03-13T17:52:36.000Z</time>
</trkpt>
<trkpt lat="31.7791624" lon="35.0786352">
<ele>576.480042</ele>
<time>2018-03-13T17:52:38.000Z</time>
</trkpt>
<trkpt lat="31.7792945" lon="35.0785961">
<ele>576.989990</ele>
<time>2018-03-13T17:52:41.000Z</time>
</trkpt>
<trkpt lat="31.7794183" lon="35.0785280">
<ele>577.580017</ele>
<time>2018-03-13T17:52:44.000Z</time>
</trkpt>
<trkpt lat="31.7795333" lon="35.0784608">
<ele>577.760010</ele>
<time>2018-03-13T17:52:47.000Z</time>
</trkpt>
<trkpt lat="31.7796453" lon="35.0783954">
<ele>577.669983</ele>
<time>2018-03-13T17:52:50.000Z</time>
</trkpt>
<trkpt lat="31.7797504" lon="35.0783249">
<ele>578.090027</ele>
<time>2018-03-13T17:52:53.000Z</time>
</trkpt>
<trkpt lat="31.7798548" lon="35.0782545">
<ele>578.500000</ele>
<time>2018-03-13T17:52:56.000Z</time>
</trkpt>
<trkpt lat="31.7799642" lon="35.0781937">
<ele>578.619995</ele>
<time>2018-03-13T17:52:59.000Z</time>
</trkpt>
<trkpt lat="31.7800749" lon="35.0781198">
<ele>578.780029</ele>
<time>2018-03-13T17:53:02.000Z</time>
</trkpt>
<trkpt lat="31.7801910" lon="35.0780502">
<ele>578.750000</ele>
<time>2018-03-13T17:53:05.000Z</time>
</trkpt>
<trkpt lat="31.7803188" lon="35.0779897">
<ele>578.950012</ele>
<time>2018-03-13T17:53:08.000Z</time>
</trkpt>
<trkpt lat="31.7804097" lon="35.0779606">
<ele>578.209961</ele>
<time>2018-03-13T17:53:10.000Z</time>
</trkpt>
<trkpt lat="31.7804992" lon="35.0779287">
<ele>578.270020</ele>
<time>2018-03-13T17:53:12.000Z</time>
</trkpt>
<trkpt lat="31.7805917" lon="35.0779076">
<ele>578.090027</ele>
<time>2018-03-13T17:53:14.000Z</time>
</trkpt>
<trkpt lat="31.7806908" lon="35.0778904">
<ele>577.649963</ele>
<time>2018-03-13T17:53:16.000Z</time>
</trkpt>
<trkpt lat="31.7808023" lon="35.0778747">
<ele>576.700012</ele>
<time>2018-03-13T17:53:18.000Z</time>
</trkpt>
<trkpt lat="31.7809231" lon="35.0778624">
<ele>576.630005</ele>
<time>2018-03-13T17:53:20.000Z</time>
</trkpt>
<trkpt lat="31.7810477" lon="35.0778533">
<ele>575.089966</ele>
<time>2018-03-13T17:53:22.000Z</time>
</trkpt>
<trkpt lat="31.7811767" lon="35.0778555">
<ele>574.549988</ele>
<time>2018-03-13T17:53:24.000Z</time>
</trkpt>
<trkpt lat="31.7813054" lon="35.0778787">
<ele>574.250000</ele>
<time>2018-03-13T17:53:26.000Z</time>
</trkpt>
<trkpt lat="31.7814387" lon="35.0779269">
<ele>573.019958</ele>
<time>2018-03-13T17:53:28.000Z</time>
</trkpt>
<trkpt lat="31.7815891" lon="35.0780006">
<ele>571.450012</ele>
<time>2018-03-13T17:53:30.000Z</time>
</trkpt>
<trkpt lat="31.7817215" lon="35.0780950">
<ele>571.210022</ele>
<time>2018-03-13T17:53:32.000Z</time>
</trkpt>
<trkpt lat="31.7818228" lon="35.0782009">
<ele>571.140015</ele>
<time>2018-03-13T17:53:34.000Z</time>
</trkpt>
<trkpt lat="31.7819034" lon="35.0783125">
<ele>570.960022</ele>
<time>2018-03-13T17:53:36.000Z</time>
</trkpt>
<trkpt lat="31.7819809" lon="35.0784194">
<ele>570.690002</ele>
<time>2018-03-13T17:53:38.000Z</time>
</trkpt>
<trkpt lat="31.7820565" lon="35.0785308">
<ele>570.690002</ele>
<time>2018-03-13T17:53:40.000Z</time>
</trkpt>
<trkpt lat="31.7821225" lon="35.0786482">
<ele>570.530029</ele>
<time>2018-03-13T17:53:42.000Z</time>
</trkpt>
<trkpt lat="31.7821891" lon="35.0787689">
<ele>570.150024</ele>
<time>2018-03-13T17:53:44.000Z</time>
</trkpt>
<trkpt lat="31.7822586" lon="35.0788919">
<ele>569.599976</ele>
<time>2018-03-13T17:53:46.000Z</time>
</trkpt>
<trkpt lat="31.7823439" lon="35.0790192">
<ele>568.640015</ele>
<time>2018-03-13T17:53:48.000Z</time>
</trkpt>
<trkpt lat="31.7824466" lon="35.0791487">
<ele>567.589966</ele>
<time>2018-03-13T17:53:50.000Z</time>
</trkpt>
<trkpt lat="31.7825666" lon="35.0792628">
<ele>566.479980</ele>
<time>2018-03-13T17:53:52.000Z</time>
</trkpt>
<trkpt lat="31.7827022" lon="35.0793512">
<ele>565.340027</ele>
<time>2018-03-13T17:53:54.000Z</time>
</trkpt>
<trkpt lat="31.7828560" lon="35.0794206">
<ele>563.519958</ele>
<time>2018-03-13T17:53:56.000Z</time>
</trkpt>
<trkpt lat="31.7830151" lon="35.0794869">
<ele>562.360046</ele>
<time>2018-03-13T17:53:58.000Z</time>
</trkpt>
<trkpt lat="31.7831700" lon="35.0795635">
<ele>561.960022</ele>
<time>2018-03-13T17:54:00.000Z</time>
</trkpt>
<trkpt lat="31.7832919" lon="35.0796557">
<ele>560.700012</ele>
<time>2018-03-13T17:54:02.000Z</time>
</trkpt>
<trkpt lat="31.7833847" lon="35.0797621">
<ele>559.869995</ele>
<time>2018-03-13T17:54:04.000Z</time>
</trkpt>
<trkpt lat="31.7834556" lon="35.0798816">
<ele>558.960022</ele>
<time>2018-03-13T17:54:06.000Z</time>
</trkpt>
<trkpt lat="31.7834970" lon="35.0800143">
<ele>559.359985</ele>
<time>2018-03-13T17:54:08.000Z</time>
</trkpt>
<trkpt lat="31.7835183" lon="35.0801487">
<ele>559.010010</ele>
<time>2018-03-13T17:54:10.000Z</time>
</trkpt>
<trkpt lat="31.7835237" lon="35.0802806">
<ele>558.710022</ele>
<time>2018-03-13T17:54:12.000Z</time>
</trkpt>
<trkpt lat="31.7835123" lon="35.0804072">
<ele>560.269958</ele>
<time>2018-03-13T17:54:14.000Z</time>
</trkpt>
<trkpt lat="31.7835043" lon="35.0805251">
<ele>559.780029</ele>
<time>2018-03-13T17:54:16.000Z</time>
</trkpt>
<trkpt lat="31.7834971" lon="35.0806387">
<ele>560.070007</ele>
<time>2018-03-13T17:54:18.000Z</time>
</trkpt>
<trkpt lat="31.7834872" lon="35.0807444">
<ele>560.470032</ele>
<time>2018-03-13T17:54:20.000Z</time>
</trkpt>
<trkpt lat="31.7834692" lon="35.0808990">
<ele>560.359985</ele>
<time>2018-03-13T17:54:23.000Z</time>
</trkpt>
<trkpt lat="31.7834556" lon="35.0810036">
<ele>560.570007</ele>
<time>2018-03-13T17:54:25.000Z</time>
</trkpt>
<trkpt lat="31.7834377" lon="35.0811139">
<ele>560.609985</ele>
<time>2018-03-13T17:54:27.000Z</time>
</trkpt>
<trkpt lat="31.7834111" lon="35.0812274">
<ele>559.809998</ele>
<time>2018-03-13T17:54:29.000Z</time>
</trkpt>
<trkpt lat="31.7833740" lon="35.0813472">
<ele>559.799988</ele>
<time>2018-03-13T17:54:31.000Z</time>
</trkpt>
<trkpt lat="31.7833271" lon="35.0814757">
<ele>559.130005</ele>
<time>2018-03-13T17:54:33.000Z</time>
</trkpt>
<trkpt lat="31.7832782" lon="35.0816189">
<ele>558.190002</ele>
<time>2018-03-13T17:54:35.000Z</time>
</trkpt>
<trkpt lat="31.7832345" lon="35.0817646">
<ele>558.309998</ele>
<time>2018-03-13T17:54:37.000Z</time>
</trkpt>
<trkpt lat="31.7831954" lon="35.0818873">
<ele>558.190002</ele>
<time>2018-03-13T17:54:39.000Z</time>
</trkpt>
<trkpt lat="31.7831628" lon="35.0819981">
<ele>558.330017</ele>
<time>2018-03-13T17:54:41.000Z</time>
</trkpt>
<trkpt lat="31.7831386" lon="35.0821070">
<ele>558.779968</ele>
<time>2018-03-13T17:54:43.000Z</time>
</trkpt>
<trkpt lat="31.7831062" lon="35.0822087">
<ele>559.119995</ele>
<time>2018-03-13T17:54:45.000Z</time>
</trkpt>
<trkpt lat="31.7830537" lon="35.0823549">
<ele>558.979980</ele>
<time>2018-03-13T17:54:48.000Z</time>
</trkpt>
<trkpt lat="31.7830055" lon="35.0824928">
<ele>558.799988</ele>
<time>2018-03-13T17:54:51.000Z</time>
</trkpt>
<trkpt lat="31.7829563" lon="35.0826219">
<ele>559.679993</ele>
<time>2018-03-13T17:54:54.000Z</time>
</trkpt>
<trkpt lat="31.7829052" lon="35.0827630">
<ele>559.149963</ele>
<time>2018-03-13T17:54:57.000Z</time>
</trkpt>
<trkpt lat="31.7828523" lon="35.0829143">
<ele>559.650024</ele>
<time>2018-03-13T17:55:00.000Z</time>
</trkpt>
<trkpt lat="31.7828179" lon="35.0830186">
<ele>559.630005</ele>
<time>2018-03-13T17:55:02.000Z</time>
</trkpt>
<trkpt lat="31.7827822" lon="35.0831197">
<ele>559.440002</ele>
<time>2018-03-13T17:55:04.000Z</time>
</trkpt>
<trkpt lat="31.7827496" lon="35.0832217">
<ele>559.549988</ele>
<time>2018-03-13T17:55:06.000Z</time>
</trkpt>
<trkpt lat="31.7827134" lon="35.0833192">
<ele>559.309998</ele>
<time>2018-03-13T17:55:08.000Z</time>
</trkpt>
<trkpt lat="31.7826641" lon="35.0834652">
<ele>559.609985</ele>
<time>2018-03-13T17:55:11.000Z</time>
</trkpt>
<trkpt lat="31.7826185" lon="35.0836035">
<ele>559.440002</ele>
<time>2018-03-13T17:55:14.000Z</time>
</trkpt>
<trkpt lat="31.7825695" lon="35.0837232">
<ele>559.719971</ele>
<time>2018-03-13T17:55:17.000Z</time>
</trkpt>
<trkpt lat="31.7825345" lon="35.0838273">
<ele>559.669983</ele>
<time>2018-03-13T17:55:20.000Z</time>
</trkpt>
<trkpt lat="31.7824895" lon="35.0839577">
<ele>560.679993</ele>
<time>2018-03-13T17:55:24.000Z</time>
</trkpt>
<trkpt lat="31.7824502" lon="35.0840586">
<ele>561.589966</ele>
<time>2018-03-13T17:55:27.000Z</time>
</trkpt>
<trkpt lat="31.7824080" lon="35.0841777">
<ele>562.010010</ele>
<time>2018-03-13T17:55:31.000Z</time>
</trkpt>
<trkpt lat="31.7823689" lon="35.0842983">
<ele>562.250000</ele>
<time>2018-03-13T17:55:35.000Z</time>
</trkpt>
<trkpt lat="31.7823273" lon="35.0844252">
<ele>562.979980</ele>
<time>2018-03-13T17:55:39.000Z</time>
</trkpt>
<trkpt lat="31.7822883" lon="35.0845482">
<ele>563.830017</ele>
<time>2018-03-13T17:55:43.000Z</time>
</trkpt>
<trkpt lat="31.7822533" lon="35.0846743">
<ele>565.070007</ele>
<time>2018-03-13T17:55:47.000Z</time>
</trkpt>
<trkpt lat="31.7822318" lon="35.0848008">
<ele>564.700012</ele>
<time>2018-03-13T17:55:51.000Z</time>
</trkpt>
<trkpt lat="31.7822305" lon="35.0849442">
<ele>564.679993</ele>
<time>2018-03-13T17:55:55.000Z</time>
</trkpt>
<trkpt lat="31.7822597" lon="35.0850596">
<ele>565.140015</ele>
<time>2018-03-13T17:55:59.000Z</time>
</trkpt>
<trkpt lat="31.7823115" lon="35.0851583">
<ele>565.450012</ele>
<time>2018-03-13T17:56:05.000Z</time>
</trkpt>
<trkpt lat="31.7824186" lon="35.0851435">
<ele>564.830017</ele>
<time>2018-03-13T17:56:11.000Z</time>
</trkpt>
<trkpt lat="31.7824786" lon="35.0850559">
<ele>564.469971</ele>
<time>2018-03-13T17:56:14.000Z</time>
</trkpt>
<trkpt lat="31.7825240" lon="35.0849281">
<ele>564.059998</ele>
<time>2018-03-13T17:56:17.000Z</time>
</trkpt>
<trkpt lat="31.7825518" lon="35.0847588">
<ele>563.389954</ele>
<time>2018-03-13T17:56:20.000Z</time>
</trkpt>
<trkpt lat="31.7825761" lon="35.0846353">
<ele>562.869995</ele>
<time>2018-03-13T17:56:22.000Z</time>
</trkpt>
<trkpt lat="31.7826071" lon="35.0845049">
<ele>562.789978</ele>
<time>2018-03-13T17:56:24.000Z</time>
</trkpt>
<trkpt lat="31.7826434" lon="35.0843655">
<ele>561.570007</ele>
<time>2018-03-13T17:56:26.000Z</time>
</trkpt>
<trkpt lat="31.7826853" lon="35.0842173">
<ele>561.520020</ele>
<time>2018-03-13T17:56:28.000Z</time>
</trkpt>
<trkpt lat="31.7827340" lon="35.0840727">
<ele>560.570007</ele>
<time>2018-03-13T17:56:30.000Z</time>
</trkpt>
<trkpt lat="31.7827959" lon="35.0839217">
<ele>560.349976</ele>
<time>2018-03-13T17:56:32.000Z</time>
</trkpt>
<trkpt lat="31.7828571" lon="35.0837713">
<ele>558.989990</ele>
<time>2018-03-13T17:56:34.000Z</time>
</trkpt>
<trkpt lat="31.7829176" lon="35.0836202">
<ele>558.989990</ele>
<time>2018-03-13T17:56:36.000Z</time>
</trkpt>
<trkpt lat="31.7829822" lon="35.0834722">
<ele>558.540039</ele>
<time>2018-03-13T17:56:38.000Z</time>
</trkpt>
<trkpt lat="31.7830518" lon="35.0833217">
<ele>558.580017</ele>
<time>2018-03-13T17:56:40.000Z</time>
</trkpt>
<trkpt lat="31.7831235" lon="35.0831803">
<ele>557.969971</ele>
<time>2018-03-13T17:56:42.000Z</time>
</trkpt>
<trkpt lat="31.7831919" lon="35.0830565">
<ele>559.090027</ele>
<time>2018-03-13T17:56:44.000Z</time>
</trkpt>
<trkpt lat="31.7832566" lon="35.0829499">
<ele>559.149963</ele>
<time>2018-03-13T17:56:46.000Z</time>
</trkpt>
<trkpt lat="31.7833211" lon="35.0828519">
<ele>558.989990</ele>
<time>2018-03-13T17:56:48.000Z</time>
</trkpt>
<trkpt lat="31.7833792" lon="35.0827608">
<ele>559.510010</ele>
<time>2018-03-13T17:56:50.000Z</time>
</trkpt>
<trkpt lat="31.7834360" lon="35.0826718">
<ele>559.440002</ele>
<time>2018-03-13T17:56:52.000Z</time>
</trkpt>
<trkpt lat="31.7834945" lon="35.0825887">
<ele>559.579956</ele>
<time>2018-03-13T17:56:54.000Z</time>
</trkpt>
<trkpt lat="31.7835511" lon="35.0825023">
<ele>559.429993</ele>
<time>2018-03-13T17:56:56.000Z</time>
</trkpt>
<trkpt lat="31.7836281" lon="35.0823753">
<ele>559.940002</ele>
<time>2018-03-13T17:56:59.000Z</time>
</trkpt>
<trkpt lat="31.7837025" lon="35.0822626">
<ele>560.340027</ele>
<time>2018-03-13T17:57:02.000Z</time>
</trkpt>
<trkpt lat="31.7837576" lon="35.0821531">
<ele>560.080017</ele>
<time>2018-03-13T17:57:05.000Z</time>
</trkpt>
<trkpt lat="31.7838146" lon="35.0820427">
<ele>560.390015</ele>
<time>2018-03-13T17:57:08.000Z</time>
</trkpt>
<trkpt lat="31.7838832" lon="35.0819372">
<ele>561.179993</ele>
<time>2018-03-13T17:57:11.000Z</time>
</trkpt>
<trkpt lat="31.7839406" lon="35.0818464">
<ele>562.119995</ele>
<time>2018-03-13T17:57:14.000Z</time>
</trkpt>
<trkpt lat="31.7840122" lon="35.0817459">
<ele>562.059998</ele>
<time>2018-03-13T17:57:18.000Z</time>
</trkpt>
<trkpt lat="31.7840808" lon="35.0816502">
<ele>562.650024</ele>
<time>2018-03-13T17:57:22.000Z</time>
</trkpt>
<trkpt lat="31.7841426" lon="35.0815676">
<ele>563.010010</ele>
<time>2018-03-13T17:57:25.000Z</time>
</trkpt>
<trkpt lat="31.7842069" lon="35.0814721">
<ele>563.040039</ele>
<time>2018-03-13T17:57:28.000Z</time>
</trkpt>
<trkpt lat="31.7842693" lon="35.0813688">
<ele>562.809998</ele>
<time>2018-03-13T17:57:31.000Z</time>
</trkpt>
<trkpt lat="31.7843306" lon="35.0812671">
<ele>563.659973</ele>
<time>2018-03-13T17:57:34.000Z</time>
</trkpt>
<trkpt lat="31.7843880" lon="35.0811641">
<ele>563.789978</ele>
<time>2018-03-13T17:57:37.000Z</time>
</trkpt>
<trkpt lat="31.7844442" lon="35.0810603">
<ele>563.989990</ele>
<time>2018-03-13T17:57:40.000Z</time>
</trkpt>
<trkpt lat="31.7844994" lon="35.0809609">
<ele>564.570007</ele>
<time>2018-03-13T17:57:43.000Z</time>
</trkpt>
<trkpt lat="31.7845556" lon="35.0808379">
<ele>564.329956</ele>
<time>2018-03-13T17:57:46.000Z</time>
</trkpt>
<trkpt lat="31.7846021" lon="35.0807340">
<ele>564.559998</ele>
<time>2018-03-13T17:57:49.000Z</time>
</trkpt>
<trkpt lat="31.7846408" lon="35.0806390">
<ele>565.859985</ele>
<time>2018-03-13T17:57:53.000Z</time>
</trkpt>
<trkpt lat="31.7846804" lon="35.0805413">
<ele>567.039978</ele>
<time>2018-03-13T17:57:58.000Z</time>
</trkpt>
<trkpt lat="31.7847415" lon="35.0804275">
<ele>567.790039</ele>
<time>2018-03-13T17:58:03.000Z</time>
</trkpt>
<trkpt lat="31.7847802" lon="35.0803240">
<ele>568.820007</ele>
<time>2018-03-13T17:58:08.000Z</time>
</trkpt>
<trkpt lat="31.7848268" lon="35.0802313">
<ele>570.250000</ele>
<time>2018-03-13T17:58:13.000Z</time>
</trkpt>
<trkpt lat="31.7848821" lon="35.0801344">
<ele>570.579956</ele>
<time>2018-03-13T17:58:18.000Z</time>
</trkpt>
<trkpt lat="31.7849499" lon="35.0800309">
<ele>571.580017</ele>
<time>2018-03-13T17:58:24.000Z</time>
</trkpt>
<trkpt lat="31.7849998" lon="35.0799139">
<ele>571.859985</ele>
<time>2018-03-13T17:58:29.000Z</time>
</trkpt>
<trkpt lat="31.7850471" lon="35.0798080">
<ele>572.830017</ele>
<time>2018-03-13T17:58:34.000Z</time>
</trkpt>
<trkpt lat="31.7850977" lon="35.0797054">
<ele>573.630005</ele>
<time>2018-03-13T17:58:39.000Z</time>
</trkpt>
<trkpt lat="31.7851450" lon="35.0796070">
<ele>573.940002</ele>
<time>2018-03-13T17:58:44.000Z</time>
</trkpt>
<trkpt lat="31.7851967" lon="35.0794966">
<ele>575.239990</ele>
<time>2018-03-13T17:58:50.000Z</time>
</trkpt>
<trkpt lat="31.7852490" lon="35.0793901">
<ele>575.919983</ele>
<time>2018-03-13T17:58:56.000Z</time>
</trkpt>
<trkpt lat="31.7853023" lon="35.0792874">
<ele>576.419983</ele>
<time>2018-03-13T17:59:02.000Z</time>
</trkpt>
<trkpt lat="31.7853495" lon="35.0791785">
<ele>577.409973</ele>
<time>2018-03-13T17:59:08.000Z</time>
</trkpt>
<trkpt lat="31.7853885" lon="35.0790640">
<ele>578.280029</ele>
<time>2018-03-13T17:59:13.000Z</time>
</trkpt>
<trkpt lat="31.7854227" lon="35.0789642">
<ele>579.070007</ele>
<time>2018-03-13T17:59:18.000Z</time>
</trkpt>
<trkpt lat="31.7854717" lon="35.0788715">
<ele>579.419983</ele>
<time>2018-03-13T17:59:23.000Z</time>
</trkpt>
<trkpt lat="31.7855346" lon="35.0787750">
<ele>579.590027</ele>
<time>2018-03-13T17:59:28.000Z</time>
</trkpt>
<trkpt lat="31.7855826" lon="35.0786777">
<ele>580.140015</ele>
<time>2018-03-13T17:59:33.000Z</time>
</trkpt>
<trkpt lat="31.7856427" lon="35.0785760">
<ele>580.489990</ele>
<time>2018-03-13T17:59:38.000Z</time>
</trkpt>
<trkpt lat="31.7857430" lon="35.0785113">
<ele>579.890015</ele>
<time>2018-03-13T17:59:43.000Z</time>
</trkpt>
<trkpt lat="31.7858364" lon="35.0785415">
<ele>578.919983</ele>
<time>2018-03-13T17:59:46.000Z</time>
</trkpt>
<trkpt lat="31.7859225" lon="35.0786493">
<ele>578.719971</ele>
<time>2018-03-13T17:59:49.000Z</time>
</trkpt>
<trkpt lat="31.7859782" lon="35.0787485">
<ele>578.000000</ele>
<time>2018-03-13T17:59:51.000Z</time>
</trkpt>
<trkpt lat="31.7860370" lon="35.0788480">
<ele>578.200012</ele>
<time>2018-03-13T17:59:53.000Z</time>
</trkpt>
<trkpt lat="31.7860996" lon="35.0789559">
<ele>577.260010</ele>
<time>2018-03-13T17:59:55.000Z</time>
</trkpt>
<trkpt lat="31.7861700" lon="35.0790642">
<ele>577.140015</ele>
<time>2018-03-13T17:59:57.000Z</time>
</trkpt>
<trkpt lat="31.7862389" lon="35.0791776">
<ele>577.109985</ele>
<time>2018-03-13T17:59:59.000Z</time>
</trkpt>
<trkpt lat="31.7863042" lon="35.0792978">
<ele>576.270020</ele>
<time>2018-03-13T18:00:01.000Z</time>
</trkpt>
<trkpt lat="31.7863696" lon="35.0794208">
<ele>576.350037</ele>
<time>2018-03-13T18:00:03.000Z</time>
</trkpt>
<trkpt lat="31.7864384" lon="35.0795346">
<ele>576.839966</ele>
<time>2018-03-13T18:00:05.000Z</time>
</trkpt>
<trkpt lat="31.7864984" lon="35.0796448">
<ele>577.000000</ele>
<time>2018-03-13T18:00:07.000Z</time>
</trkpt>
<trkpt lat="31.7865554" lon="35.0797441">
<ele>577.320007</ele>
<time>2018-03-13T18:00:09.000Z</time>
</trkpt>
<trkpt lat="31.7866133" lon="35.0798301">
<ele>577.619995</ele>
<time>2018-03-13T18:00:11.000Z</time>
</trkpt>
<trkpt lat="31.7866905" lon="35.0799453">
<ele>578.619995</ele>
<time>2018-03-13T18:00:14.000Z</time>
</trkpt>
<trkpt lat="31.7867548" lon="35.0800340">
<ele>579.890015</ele>
<time>2018-03-13T18:00:17.000Z</time>
</trkpt>
<trkpt lat="31.7868204" lon="35.0801094">
<ele>580.429993</ele>
<time>2018-03-13T18:00:20.000Z</time>
</trkpt>
<trkpt lat="31.7869021" lon="35.0801905">
<ele>581.309998</ele>
<time>2018-03-13T18:00:24.000Z</time>
</trkpt>
<trkpt lat="31.7869800" lon="35.0802626">
<ele>581.369995</ele>
<time>2018-03-13T18:00:28.000Z</time>
</trkpt>
<trkpt lat="31.7870601" lon="35.0803422">
<ele>581.940002</ele>
<time>2018-03-13T18:00:32.000Z</time>
</trkpt>
<trkpt lat="31.7871599" lon="35.0804221">
<ele>581.859985</ele>
<time>2018-03-13T18:00:36.000Z</time>
</trkpt>
<trkpt lat="31.7872479" lon="35.0804825">
<ele>581.969971</ele>
<time>2018-03-13T18:00:39.000Z</time>
</trkpt>
<trkpt lat="31.7873326" lon="35.0805583">
<ele>581.890015</ele>
<time>2018-03-13T18:00:42.000Z</time>
</trkpt>
<trkpt lat="31.7874194" lon="35.0806340">
<ele>581.690002</ele>
<time>2018-03-13T18:00:45.000Z</time>
</trkpt>
<trkpt lat="31.7875079" lon="35.0807094">
<ele>581.760010</ele>
<time>2018-03-13T18:00:48.000Z</time>
</trkpt>
<trkpt lat="31.7876019" lon="35.0807739">
<ele>581.809998</ele>
<time>2018-03-13T18:00:51.000Z</time>
</trkpt>
<trkpt lat="31.7876849" lon="35.0808495">
<ele>582.229980</ele>
<time>2018-03-13T18:00:54.000Z</time>
</trkpt>
<trkpt lat="31.7877651" lon="35.0809300">
<ele>582.529968</ele>
<time>2018-03-13T18:00:57.000Z</time>
</trkpt>
<trkpt lat="31.7878436" lon="35.0810157">
<ele>583.010010</ele>
<time>2018-03-13T18:01:00.000Z</time>
</trkpt>
<trkpt lat="31.7879295" lon="35.0810885">
<ele>583.010010</ele>
<time>2018-03-13T18:01:03.000Z</time>
</trkpt>
<trkpt lat="31.7880291" lon="35.0811521">
<ele>582.570007</ele>
<time>2018-03-13T18:01:06.000Z</time>
</trkpt>
<trkpt lat="31.7881400" lon="35.0812219">
<ele>582.669983</ele>
<time>2018-03-13T18:01:09.000Z</time>
</trkpt>
<trkpt lat="31.7882622" lon="35.0812803">
<ele>582.809998</ele>
<time>2018-03-13T18:01:12.000Z</time>
</trkpt>
<trkpt lat="31.7883500" lon="35.0813258">
<ele>582.309998</ele>
<time>2018-03-13T18:01:14.000Z</time>
</trkpt>
<trkpt lat="31.7884443" lon="35.0813729">
<ele>581.669983</ele>
<time>2018-03-13T18:01:16.000Z</time>
</trkpt>
<trkpt lat="31.7885395" lon="35.0814166">
<ele>581.660034</ele>
<time>2018-03-13T18:01:18.000Z</time>
</trkpt>
<trkpt lat="31.7886277" lon="35.0814636">
<ele>581.309998</ele>
<time>2018-03-13T18:01:20.000Z</time>
</trkpt>
<trkpt lat="31.7887096" lon="35.0815071">
<ele>581.760010</ele>
<time>2018-03-13T18:01:22.000Z</time>
</trkpt>
<trkpt lat="31.7888288" lon="35.0815647">
<ele>581.709961</ele>
<time>2018-03-13T18:01:25.000Z</time>
</trkpt>
<trkpt lat="31.7889138" lon="35.0816029">
<ele>581.709961</ele>
<time>2018-03-13T18:01:27.000Z</time>
</trkpt>
<trkpt lat="31.7890063" lon="35.0816315">
<ele>581.239990</ele>
<time>2018-03-13T18:01:29.000Z</time>
</trkpt>
<trkpt lat="31.7891108" lon="35.0816412">
<ele>579.929993</ele>
<time>2018-03-13T18:01:31.000Z</time>
</trkpt>
<trkpt lat="31.7892242" lon="35.0816397">
<ele>579.580017</ele>
<time>2018-03-13T18:01:33.000Z</time>
</trkpt>
<trkpt lat="31.7893423" lon="35.0816273">
<ele>579.119995</ele>
<time>2018-03-13T18:01:35.000Z</time>
</trkpt>
<trkpt lat="31.7894625" lon="35.0816032">
<ele>578.640015</ele>
<time>2018-03-13T18:01:37.000Z</time>
</trkpt>
<trkpt lat="31.7895878" lon="35.0815939">
<ele>578.130005</ele>
<time>2018-03-13T18:01:39.000Z</time>
</trkpt>
<trkpt lat="31.7897093" lon="35.0815898">
<ele>577.619995</ele>
<time>2018-03-13T18:01:41.000Z</time>
</trkpt>
<trkpt lat="31.7898293" lon="35.0816108">
<ele>577.270020</ele>
<time>2018-03-13T18:01:43.000Z</time>
</trkpt>
<trkpt lat="31.7899430" lon="35.0816674">
<ele>576.679993</ele>
<time>2018-03-13T18:01:45.000Z</time>
</trkpt>
<trkpt lat="31.7900582" lon="35.0817373">
<ele>576.220032</ele>
<time>2018-03-13T18:01:47.000Z</time>
</trkpt>
<trkpt lat="31.7901719" lon="35.0818170">
<ele>574.820007</ele>
<time>2018-03-13T18:01:49.000Z</time>
</trkpt>
<trkpt lat="31.7902900" lon="35.0818977">
<ele>574.200012</ele>
<time>2018-03-13T18:01:51.000Z</time>
</trkpt>
<trkpt lat="31.7904085" lon="35.0819827">
<ele>574.450012</ele>
<time>2018-03-13T18:01:53.000Z</time>
</trkpt>
<trkpt lat="31.7905268" lon="35.0820642">
<ele>573.479980</ele>
<time>2018-03-13T18:01:55.000Z</time>
</trkpt>
<trkpt lat="31.7906436" lon="35.0821509">
<ele>573.320007</ele>
<time>2018-03-13T18:01:57.000Z</time>
</trkpt>
<trkpt lat="31.7907596" lon="35.0822332">
<ele>572.239990</ele>
<time>2018-03-13T18:01:59.000Z</time>
</trkpt>
<trkpt lat="31.7908704" lon="35.0823218">
<ele>571.690002</ele>
<time>2018-03-13T18:02:01.000Z</time>
</trkpt>
<trkpt lat="31.7909669" lon="35.0824250">
<ele>571.520020</ele>
<time>2018-03-13T18:02:03.000Z</time>
</trkpt>
<trkpt lat="31.7910473" lon="35.0825343">
<ele>570.830017</ele>
<time>2018-03-13T18:02:05.000Z</time>
</trkpt>
<trkpt lat="31.7911187" lon="35.0826368">
<ele>570.049988</ele>
<time>2018-03-13T18:02:07.000Z</time>
</trkpt>
<trkpt lat="31.7911983" lon="35.0827344">
<ele>568.969971</ele>
<time>2018-03-13T18:02:09.000Z</time>
</trkpt>
<trkpt lat="31.7912919" lon="35.0828216">
<ele>568.250000</ele>
<time>2018-03-13T18:02:11.000Z</time>
</trkpt>
<trkpt lat="31.7913857" lon="35.0829038">
<ele>567.229980</ele>
<time>2018-03-13T18:02:13.000Z</time>
</trkpt>
<trkpt lat="31.7914777" lon="35.0829843">
<ele>565.580017</ele>
<time>2018-03-13T18:02:15.000Z</time>
</trkpt>
<trkpt lat="31.7915646" lon="35.0830826">
<ele>564.090027</ele>
<time>2018-03-13T18:02:17.000Z</time>
</trkpt>
<trkpt lat="31.7916431" lon="35.0831895">
<ele>562.830017</ele>
<time>2018-03-13T18:02:19.000Z</time>
</trkpt>
<trkpt lat="31.7917313" lon="35.0832876">
<ele>561.479980</ele>
<time>2018-03-13T18:02:21.000Z</time>
</trkpt>
<trkpt lat="31.7918213" lon="35.0833927">
<ele>559.969971</ele>
<time>2018-03-13T18:02:23.000Z</time>
</trkpt>
<trkpt lat="31.7919184" lon="35.0834972">
<ele>557.929993</ele>
<time>2018-03-13T18:02:25.000Z</time>
</trkpt>
<trkpt lat="31.7920204" lon="35.0836087">
<ele>556.979980</ele>
<time>2018-03-13T18:02:27.000Z</time>
</trkpt>
<trkpt lat="31.7921346" lon="35.0837164">
<ele>555.390015</ele>
<time>2018-03-13T18:02:29.000Z</time>
</trkpt>
<trkpt lat="31.7922531" lon="35.0838269">
<ele>554.750000</ele>
<time>2018-03-13T18:02:31.000Z</time>
</trkpt>
<trkpt lat="31.7923633" lon="35.0839404">
<ele>553.760010</ele>
<time>2018-03-13T18:02:33.000Z</time>
</trkpt>
<trkpt lat="31.7924592" lon="35.0840429">
<ele>553.760010</ele>
<time>2018-03-13T18:02:35.000Z</time>
</trkpt>
<trkpt lat="31.7925550" lon="35.0841329">
<ele>552.010010</ele>
<time>2018-03-13T18:02:37.000Z</time>
</trkpt>
<trkpt lat="31.7926498" lon="35.0842175">
<ele>552.280029</ele>
<time>2018-03-13T18:02:39.000Z</time>
</trkpt>
<trkpt lat="31.7927477" lon="35.0843044">
<ele>551.019958</ele>
<time>2018-03-13T18:02:41.000Z</time>
</trkpt>
<trkpt lat="31.7928486" lon="35.0843955">
<ele>550.540039</ele>
<time>2018-03-13T18:02:43.000Z</time>
</trkpt>
<trkpt lat="31.7929487" lon="35.0844857">
<ele>549.700012</ele>
<time>2018-03-13T18:02:45.000Z</time>
</trkpt>
<trkpt lat="31.7930521" lon="35.0845871">
<ele>548.109985</ele>
<time>2018-03-13T18:02:47.000Z</time>
</trkpt>
<trkpt lat="31.7931328" lon="35.0846961">
<ele>547.089966</ele>
<time>2018-03-13T18:02:49.000Z</time>
</trkpt>
<trkpt lat="31.7931908" lon="35.0848060">
<ele>546.320007</ele>
<time>2018-03-13T18:02:51.000Z</time>
</trkpt>
<trkpt lat="31.7932350" lon="35.0849177">
<ele>545.849976</ele>
<time>2018-03-13T18:02:53.000Z</time>
</trkpt>
<trkpt lat="31.7932629" lon="35.0850272">
<ele>544.890015</ele>
<time>2018-03-13T18:02:55.000Z</time>
</trkpt>
<trkpt lat="31.7932963" lon="35.0851378">
<ele>543.900024</ele>
<time>2018-03-13T18:02:57.000Z</time>
</trkpt>
<trkpt lat="31.7933245" lon="35.0852535">
<ele>543.480042</ele>
<time>2018-03-13T18:02:59.000Z</time>
</trkpt>
<trkpt lat="31.7933503" lon="35.0853732">
<ele>541.980042</ele>
<time>2018-03-13T18:03:01.000Z</time>
</trkpt>
<trkpt lat="31.7933747" lon="35.0855027">
<ele>541.309998</ele>
<time>2018-03-13T18:03:03.000Z</time>
</trkpt>
<trkpt lat="31.7933968" lon="35.0856374">
<ele>541.179993</ele>
<time>2018-03-13T18:03:05.000Z</time>
</trkpt>
<trkpt lat="31.7934196" lon="35.0857719">
<ele>540.869995</ele>
<time>2018-03-13T18:03:07.000Z</time>
</trkpt>
<trkpt lat="31.7934404" lon="35.0859045">
<ele>541.049988</ele>
<time>2018-03-13T18:03:09.000Z</time>
</trkpt>
<trkpt lat="31.7934593" lon="35.0860319">
<ele>540.950012</ele>
<time>2018-03-13T18:03:11.000Z</time>
</trkpt>
<trkpt lat="31.7934837" lon="35.0861576">
<ele>540.440002</ele>
<time>2018-03-13T18:03:13.000Z</time>
</trkpt>
<trkpt lat="31.7935054" lon="35.0862741">
<ele>540.690002</ele>
<time>2018-03-13T18:03:15.000Z</time>
</trkpt>
<trkpt lat="31.7935242" lon="35.0863911">
<ele>540.539978</ele>
<time>2018-03-13T18:03:17.000Z</time>
</trkpt>
<trkpt lat="31.7935439" lon="35.0865137">
<ele>540.239990</ele>
<time>2018-03-13T18:03:19.000Z</time>
</trkpt>
<trkpt lat="31.7935548" lon="35.0866432">
<ele>540.220032</ele>
<time>2018-03-13T18:03:21.000Z</time>
</trkpt>
<trkpt lat="31.7935738" lon="35.0867744">
<ele>539.739990</ele>
<time>2018-03-13T18:03:23.000Z</time>
</trkpt>
<trkpt lat="31.7935796" lon="35.0869092">
<ele>538.109985</ele>
<time>2018-03-13T18:03:25.000Z</time>
</trkpt>
<trkpt lat="31.7935829" lon="35.0870359">
<ele>538.080017</ele>
<time>2018-03-13T18:03:27.000Z</time>
</trkpt>
<trkpt lat="31.7935980" lon="35.0871583">
<ele>537.470032</ele>
<time>2018-03-13T18:03:29.000Z</time>
</trkpt>
<trkpt lat="31.7936116" lon="35.0872881">
<ele>536.609985</ele>
<time>2018-03-13T18:03:31.000Z</time>
</trkpt>
<trkpt lat="31.7936211" lon="35.0874298">
<ele>535.940002</ele>
<time>2018-03-13T18:03:33.000Z</time>
</trkpt>
<trkpt lat="31.7936301" lon="35.0875797">
<ele>535.260010</ele>
<time>2018-03-13T18:03:35.000Z</time>
</trkpt>
<trkpt lat="31.7936398" lon="35.0877375">
<ele>533.919983</ele>
<time>2018-03-13T18:03:37.000Z</time>
</trkpt>
<trkpt lat="31.7936485" lon="35.0878947">
<ele>533.369995</ele>
<time>2018-03-13T18:03:39.000Z</time>
</trkpt>
<trkpt lat="31.7936485" lon="35.0880497">
<ele>531.830017</ele>
<time>2018-03-13T18:03:41.000Z</time>
</trkpt>
<trkpt lat="31.7936531" lon="35.0881844">
<ele>531.179993</ele>
<time>2018-03-13T18:03:43.000Z</time>
</trkpt>
<trkpt lat="31.7936899" lon="35.0883243">
<ele>531.239990</ele>
<time>2018-03-13T18:03:46.000Z</time>
</trkpt>
<trkpt lat="31.7937696" lon="35.0883538">
<ele>530.659973</ele>
<time>2018-03-13T18:03:51.000Z</time>
</trkpt>
<trkpt lat="31.7938528" lon="35.0882939">
<ele>529.269958</ele>
<time>2018-03-13T18:03:54.000Z</time>
</trkpt>
<trkpt lat="31.7939076" lon="35.0881525">
<ele>527.049988</ele>
<time>2018-03-13T18:03:57.000Z</time>
</trkpt>
<trkpt lat="31.7939304" lon="35.0880416">
<ele>526.529968</ele>
<time>2018-03-13T18:03:59.000Z</time>
</trkpt>
<trkpt lat="31.7939563" lon="35.0879225">
<ele>525.609985</ele>
<time>2018-03-13T18:04:01.000Z</time>
</trkpt>
<trkpt lat="31.7939819" lon="35.0877877">
<ele>525.000000</ele>
<time>2018-03-13T18:04:03.000Z</time>
</trkpt>
<trkpt lat="31.7940031" lon="35.0876472">
<ele>524.359985</ele>
<time>2018-03-13T18:04:05.000Z</time>
</trkpt>
<trkpt lat="31.7940290" lon="35.0874981">
<ele>523.770020</ele>
<time>2018-03-13T18:04:07.000Z</time>
</trkpt>
<trkpt lat="31.7940483" lon="35.0873477">
<ele>522.960022</ele>
<time>2018-03-13T18:04:09.000Z</time>
</trkpt>
<trkpt lat="31.7940678" lon="35.0872043">
<ele>523.119995</ele>
<time>2018-03-13T18:04:11.000Z</time>
</trkpt>
<trkpt lat="31.7941025" lon="35.0870752">
<ele>522.429993</ele>
<time>2018-03-13T18:04:13.000Z</time>
</trkpt>
<trkpt lat="31.7941484" lon="35.0869628">
<ele>521.730042</ele>
<time>2018-03-13T18:04:15.000Z</time>
</trkpt>
<trkpt lat="31.7941779" lon="35.0868430">
<ele>520.849976</ele>
<time>2018-03-13T18:04:17.000Z</time>
</trkpt>
<trkpt lat="31.7942014" lon="35.0867089">
<ele>520.020020</ele>
<time>2018-03-13T18:04:19.000Z</time>
</trkpt>
<trkpt lat="31.7942274" lon="35.0865814">
<ele>519.590027</ele>
<time>2018-03-13T18:04:21.000Z</time>
</trkpt>
<trkpt lat="31.7942663" lon="35.0864679">
<ele>518.229980</ele>
<time>2018-03-13T18:04:23.000Z</time>
</trkpt>
<trkpt lat="31.7943182" lon="35.0863733">
<ele>517.630005</ele>
<time>2018-03-13T18:04:25.000Z</time>
</trkpt>
<trkpt lat="31.7943754" lon="35.0862800">
<ele>516.690002</ele>
<time>2018-03-13T18:04:27.000Z</time>
</trkpt>
<trkpt lat="31.7944371" lon="35.0861858">
<ele>515.929993</ele>
<time>2018-03-13T18:04:29.000Z</time>
</trkpt>
<trkpt lat="31.7945063" lon="35.0860944">
<ele>514.679993</ele>
<time>2018-03-13T18:04:31.000Z</time>
</trkpt>
<trkpt lat="31.7946074" lon="35.0860355">
<ele>514.390015</ele>
<time>2018-03-13T18:04:34.000Z</time>
</trkpt>
<trkpt lat="31.7947234" lon="35.0860537">
<ele>513.720032</ele>
<time>2018-03-13T18:04:37.000Z</time>
</trkpt>
<trkpt lat="31.7948157" lon="35.0860160">
<ele>515.130005</ele>
<time>2018-03-13T18:04:40.000Z</time>
</trkpt>
<trkpt lat="31.7948779" lon="35.0859588">
<ele>514.809998</ele>
<time>2018-03-13T18:05:08.000Z</time>
</trkpt>
<trkpt lat="31.7949095" lon="35.0858660">
<ele>515.500000</ele>
<time>2018-03-13T18:07:42.000Z</time>
</trkpt>
<trkpt lat="31.7949478" lon="35.0857504">
<ele>515.429993</ele>
<time>2018-03-13T18:07:49.000Z</time>
</trkpt>
<trkpt lat="31.7949847" lon="35.0856398">
<ele>515.239990</ele>
<time>2018-03-13T18:07:53.000Z</time>
</trkpt>
<trkpt lat="31.7950271" lon="35.0855119">
<ele>515.760010</ele>
<time>2018-03-13T18:07:57.000Z</time>
</trkpt>
<trkpt lat="31.7950703" lon="35.0854062">
<ele>515.950012</ele>
<time>2018-03-13T18:08:00.000Z</time>
</trkpt>
<trkpt lat="31.7951130" lon="35.0852981">
<ele>516.679993</ele>
<time>2018-03-13T18:08:03.000Z</time>
</trkpt>
<trkpt lat="31.7951619" lon="35.0851871">
<ele>516.820007</ele>
<time>2018-03-13T18:08:06.000Z</time>
</trkpt>
<trkpt lat="31.7952169" lon="35.0850748">
<ele>516.320007</ele>
<time>2018-03-13T18:08:09.000Z</time>
</trkpt>
<trkpt lat="31.7952733" lon="35.0849730">
<ele>517.010010</ele>
<time>2018-03-13T18:08:12.000Z</time>
</trkpt>
<trkpt lat="31.7953281" lon="35.0848758">
<ele>516.919983</ele>
<time>2018-03-13T18:08:15.000Z</time>
</trkpt>
<trkpt lat="31.7953864" lon="35.0847761">
<ele>517.719971</ele>
<time>2018-03-13T18:08:18.000Z</time>
</trkpt>
<trkpt lat="31.7954477" lon="35.0846908">
<ele>517.619995</ele>
<time>2018-03-13T18:08:21.000Z</time>
</trkpt>
<trkpt lat="31.7955225" lon="35.0846081">
<ele>518.460022</ele>
<time>2018-03-13T18:08:25.000Z</time>
</trkpt>
<trkpt lat="31.7956005" lon="35.0845342">
<ele>518.489990</ele>
<time>2018-03-13T18:08:29.000Z</time>
</trkpt>
<trkpt lat="31.7956714" lon="35.0844582">
<ele>518.200012</ele>
<time>2018-03-13T18:08:32.000Z</time>
</trkpt>
<trkpt lat="31.7957566" lon="35.0843800">
<ele>519.460022</ele>
<time>2018-03-13T18:08:36.000Z</time>
</trkpt>
<trkpt lat="31.7958356" lon="35.0842815">
<ele>519.330017</ele>
<time>2018-03-13T18:08:40.000Z</time>
</trkpt>
<trkpt lat="31.7959124" lon="35.0841726">
<ele>519.440002</ele>
<time>2018-03-13T18:08:44.000Z</time>
</trkpt>
<trkpt lat="31.7959599" lon="35.0840497">
<ele>519.679993</ele>
<time>2018-03-13T18:08:48.000Z</time>
</trkpt>
<trkpt lat="31.7959866" lon="35.0839122">
<ele>519.750000</ele>
<time>2018-03-13T18:08:52.000Z</time>
</trkpt>
<trkpt lat="31.7960161" lon="35.0837923">
<ele>520.400024</ele>
<time>2018-03-13T18:08:56.000Z</time>
</trkpt>
<trkpt lat="31.7960457" lon="35.0836626">
<ele>520.839966</ele>
<time>2018-03-13T18:09:01.000Z</time>
</trkpt>
<trkpt lat="31.7960573" lon="35.0835465">
<ele>521.460022</ele>
<time>2018-03-13T18:09:05.000Z</time>
</trkpt>
<trkpt lat="31.7960616" lon="35.0834227">
<ele>522.119995</ele>
<time>2018-03-13T18:09:09.000Z</time>
</trkpt>
<trkpt lat="31.7960737" lon="35.0833112">
<ele>522.299988</ele>
<time>2018-03-13T18:09:13.000Z</time>
</trkpt>
<trkpt lat="31.7960851" lon="35.0831959">
<ele>522.890015</ele>
<time>2018-03-13T18:09:17.000Z</time>
</trkpt>
<trkpt lat="31.7960899" lon="35.0830780">
<ele>523.510010</ele>
<time>2018-03-13T18:09:21.000Z</time>
</trkpt>
<trkpt lat="31.7960865" lon="35.0829641">
<ele>524.030029</ele>
<time>2018-03-13T18:09:25.000Z</time>
</trkpt>
<trkpt lat="31.7960920" lon="35.0828484">
<ele>524.529968</ele>
<time>2018-03-13T18:09:30.000Z</time>
</trkpt>
<trkpt lat="31.7961026" lon="35.0827175">
<ele>525.099976</ele>
<time>2018-03-13T18:09:36.000Z</time>
</trkpt>
<trkpt lat="31.7961137" lon="35.0826069">
<ele>525.190002</ele>
<time>2018-03-13T18:09:40.000Z</time>
</trkpt>
<trkpt lat="31.7961122" lon="35.0824794">
<ele>525.790039</ele>
<time>2018-03-13T18:09:45.000Z</time>
</trkpt>
<trkpt lat="31.7961127" lon="35.0823603">
<ele>526.630005</ele>
<time>2018-03-13T18:09:50.000Z</time>
</trkpt>
<trkpt lat="31.7961082" lon="35.0822401">
<ele>527.140015</ele>
<time>2018-03-13T18:09:55.000Z</time>
</trkpt>
<trkpt lat="31.7961127" lon="35.0821266">
<ele>528.250000</ele>
<time>2018-03-13T18:10:00.000Z</time>
</trkpt>
<trkpt lat="31.7961312" lon="35.0820030">
<ele>528.700012</ele>
<time>2018-03-13T18:10:06.000Z</time>
</trkpt>
<trkpt lat="31.7961635" lon="35.0819049">
<ele>529.409973</ele>
<time>2018-03-13T18:10:10.000Z</time>
</trkpt>
<trkpt lat="31.7961966" lon="35.0817934">
<ele>529.890015</ele>
<time>2018-03-13T18:10:14.000Z</time>
</trkpt>
<trkpt lat="31.7962231" lon="35.0816796">
<ele>531.119995</ele>
<time>2018-03-13T18:10:19.000Z</time>
</trkpt>
<trkpt lat="31.7962536" lon="35.0815719">
<ele>531.880005</ele>
<time>2018-03-13T18:10:24.000Z</time>
</trkpt>
<trkpt lat="31.7962803" lon="35.0814524">
<ele>532.340027</ele>
<time>2018-03-13T18:10:29.000Z</time>
</trkpt>
<trkpt lat="31.7963030" lon="35.0813284">
<ele>532.650024</ele>
<time>2018-03-13T18:10:34.000Z</time>
</trkpt>
<trkpt lat="31.7963305" lon="35.0812083">
<ele>533.190002</ele>
<time>2018-03-13T18:10:39.000Z</time>
</trkpt>
<trkpt lat="31.7963739" lon="35.0811096">
<ele>532.950012</ele>
<time>2018-03-13T18:10:42.000Z</time>
</trkpt>
<trkpt lat="31.7964147" lon="35.0809933">
<ele>533.160034</ele>
<time>2018-03-13T18:10:45.000Z</time>
</trkpt>
<trkpt lat="31.7964657" lon="35.0808927">
<ele>534.010010</ele>
<time>2018-03-13T18:10:49.000Z</time>
</trkpt>
<trkpt lat="31.7965265" lon="35.0807985">
<ele>534.809998</ele>
<time>2018-03-13T18:10:54.000Z</time>
</trkpt>
<trkpt lat="31.7965825" lon="35.0806850">
<ele>535.479980</ele>
<time>2018-03-13T18:11:00.000Z</time>
</trkpt>
<trkpt lat="31.7966081" lon="35.0805626">
<ele>535.630005</ele>
<time>2018-03-13T18:11:04.000Z</time>
</trkpt>
<trkpt lat="31.7965926" lon="35.0804480">
<ele>536.940002</ele>
<time>2018-03-13T18:11:09.000Z</time>
</trkpt>
<trkpt lat="31.7965683" lon="35.0803385">
<ele>537.979980</ele>
<time>2018-03-13T18:11:15.000Z</time>
</trkpt>
<trkpt lat="31.7965520" lon="35.0802239">
<ele>539.169983</ele>
<time>2018-03-13T18:11:21.000Z</time>
</trkpt>
<trkpt lat="31.7965495" lon="35.0801131">
<ele>540.529968</ele>
<time>2018-03-13T18:11:27.000Z</time>
</trkpt>
<trkpt lat="31.7965749" lon="35.0800103">
<ele>541.570007</ele>
<time>2018-03-13T18:11:34.000Z</time>
</trkpt>
<trkpt lat="31.7965806" lon="35.0799024">
<ele>543.619995</ele>
<time>2018-03-13T18:11:41.000Z</time>
</trkpt>
<trkpt lat="31.7965851" lon="35.0797948">
<ele>543.650024</ele>
<time>2018-03-13T18:11:46.000Z</time>
</trkpt>
<trkpt lat="31.7966034" lon="35.0796785">
<ele>544.750000</ele>
<time>2018-03-13T18:11:53.000Z</time>
</trkpt>
<trkpt lat="31.7965932" lon="35.0795649">
<ele>545.609985</ele>
<time>2018-03-13T18:12:00.000Z</time>
</trkpt>
<trkpt lat="31.7965662" lon="35.0794464">
<ele>546.640015</ele>
<time>2018-03-13T18:12:07.000Z</time>
</trkpt>
<trkpt lat="31.7965383" lon="35.0793313">
<ele>547.859985</ele>
<time>2018-03-13T18:12:14.000Z</time>
</trkpt>
<trkpt lat="31.7965159" lon="35.0792251">
<ele>548.109985</ele>
<time>2018-03-13T18:12:19.000Z</time>
</trkpt>
<trkpt lat="31.7964939" lon="35.0791067">
<ele>549.099976</ele>
<time>2018-03-13T18:12:25.000Z</time>
</trkpt>
<trkpt lat="31.7964788" lon="35.0789868">
<ele>549.399963</ele>
<time>2018-03-13T18:12:31.000Z</time>
</trkpt>
<trkpt lat="31.7964587" lon="35.0788700">
<ele>550.039978</ele>
<time>2018-03-13T18:12:37.000Z</time>
</trkpt>
<trkpt lat="31.7964195" lon="35.0787437">
<ele>550.109985</ele>
<time>2018-03-13T18:12:43.000Z</time>
</trkpt>
<trkpt lat="31.7963635" lon="35.0786462">
<ele>550.419983</ele>
<time>2018-03-13T18:12:47.000Z</time>
</trkpt>
<trkpt lat="31.7962778" lon="35.0785677">
<ele>551.450012</ele>
<time>2018-03-13T18:12:52.000Z</time>
</trkpt>
<trkpt lat="31.7961891" lon="35.0785065">
<ele>552.929993</ele>
<time>2018-03-13T18:12:57.000Z</time>
</trkpt>
<trkpt lat="31.7961111" lon="35.0784308">
<ele>553.159973</ele>
<time>2018-03-13T18:13:02.000Z</time>
</trkpt>
<trkpt lat="31.7960281" lon="35.0783690">
<ele>553.700012</ele>
<time>2018-03-13T18:13:07.000Z</time>
</trkpt>
<trkpt lat="31.7959401" lon="35.0783054">
<ele>554.200012</ele>
<time>2018-03-13T18:13:14.000Z</time>
</trkpt>
<trkpt lat="31.7958536" lon="35.0782367">
<ele>555.450012</ele>
<time>2018-03-13T18:13:21.000Z</time>
</trkpt>
<trkpt lat="31.7957599" lon="35.0781893">
<ele>555.280029</ele>
<time>2018-03-13T18:13:27.000Z</time>
</trkpt>
<trkpt lat="31.7956565" lon="35.0781500">
<ele>555.929993</ele>
<time>2018-03-13T18:13:32.000Z</time>
</trkpt>
<trkpt lat="31.7955528" lon="35.0781163">
<ele>555.299988</ele>
<time>2018-03-13T18:13:36.000Z</time>
</trkpt>
<trkpt lat="31.7954538" lon="35.0780926">
<ele>555.539978</ele>
<time>2018-03-13T18:13:40.000Z</time>
</trkpt>
<trkpt lat="31.7953466" lon="35.0780492">
<ele>556.459961</ele>
<time>2018-03-13T18:13:45.000Z</time>
</trkpt>
<trkpt lat="31.7952587" lon="35.0780158">
<ele>557.269958</ele>
<time>2018-03-13T18:13:49.000Z</time>
</trkpt>
<trkpt lat="31.7951681" lon="35.0779854">
<ele>557.700012</ele>
<time>2018-03-13T18:13:53.000Z</time>
</trkpt>
<trkpt lat="31.7950688" lon="35.0779596">
<ele>558.929993</ele>
<time>2018-03-13T18:13:57.000Z</time>
</trkpt>
<trkpt lat="31.7949623" lon="35.0779358">
<ele>559.190002</ele>
<time>2018-03-13T18:14:01.000Z</time>
</trkpt>
<trkpt lat="31.7948658" lon="35.0779177">
<ele>559.619995</ele>
<time>2018-03-13T18:14:05.000Z</time>
</trkpt>
<trkpt lat="31.7947612" lon="35.0779006">
<ele>558.739990</ele>
<time>2018-03-13T18:14:08.000Z</time>
</trkpt>
<trkpt lat="31.7946353" lon="35.0778686">
<ele>557.959961</ele>
<time>2018-03-13T18:14:11.000Z</time>
</trkpt>
<trkpt lat="31.7945295" lon="35.0778290">
<ele>558.479980</ele>
<time>2018-03-13T18:14:14.000Z</time>
</trkpt>
<trkpt lat="31.7944276" lon="35.0777918">
<ele>558.400024</ele>
<time>2018-03-13T18:14:17.000Z</time>
</trkpt>
<trkpt lat="31.7943203" lon="35.0777578">
<ele>558.469971</ele>
<time>2018-03-13T18:14:20.000Z</time>
</trkpt>
<trkpt lat="31.7942097" lon="35.0777330">
<ele>558.510010</ele>
<time>2018-03-13T18:14:23.000Z</time>
</trkpt>
<trkpt lat="31.7940950" lon="35.0777166">
<ele>558.280029</ele>
<time>2018-03-13T18:14:26.000Z</time>
</trkpt>
<trkpt lat="31.7939749" lon="35.0777006">
<ele>558.429993</ele>
<time>2018-03-13T18:14:29.000Z</time>
</trkpt>
<trkpt lat="31.7938587" lon="35.0776915">
<ele>558.710022</ele>
<time>2018-03-13T18:14:32.000Z</time>
</trkpt>
<trkpt lat="31.7937316" lon="35.0776779">
<ele>558.270020</ele>
<time>2018-03-13T18:14:35.000Z</time>
</trkpt>
<trkpt lat="31.7936442" lon="35.0776681">
<ele>557.770020</ele>
<time>2018-03-13T18:14:37.000Z</time>
</trkpt>
<trkpt lat="31.7935169" lon="35.0776421">
<ele>557.609985</ele>
<time>2018-03-13T18:14:40.000Z</time>
</trkpt>
<trkpt lat="31.7934037" lon="35.0776211">
<ele>557.919983</ele>
<time>2018-03-13T18:14:43.000Z</time>
</trkpt>
<trkpt lat="31.7932940" lon="35.0775687">
<ele>557.799988</ele>
<time>2018-03-13T18:14:46.000Z</time>
</trkpt>
<trkpt lat="31.7931862" lon="35.0774993">
<ele>557.260010</ele>
<time>2018-03-13T18:14:49.000Z</time>
</trkpt>
<trkpt lat="31.7930862" lon="35.0774220">
<ele>557.419983</ele>
<time>2018-03-13T18:14:52.000Z</time>
</trkpt>
<trkpt lat="31.7929913" lon="35.0773475">
<ele>557.399963</ele>
<time>2018-03-13T18:14:55.000Z</time>
</trkpt>
<trkpt lat="31.7929023" lon="35.0772636">
<ele>557.039978</ele>
<time>2018-03-13T18:14:58.000Z</time>
</trkpt>
<trkpt lat="31.7928191" lon="35.0771632">
<ele>556.130005</ele>
<time>2018-03-13T18:15:01.000Z</time>
</trkpt>
<trkpt lat="31.7927393" lon="35.0770289">
<ele>555.210022</ele>
<time>2018-03-13T18:15:04.000Z</time>
</trkpt>
<trkpt lat="31.7927039" lon="35.0769182">
<ele>554.630005</ele>
<time>2018-03-13T18:15:06.000Z</time>
</trkpt>
<trkpt lat="31.7926905" lon="35.0767960">
<ele>553.630005</ele>
<time>2018-03-13T18:15:08.000Z</time>
</trkpt>
<trkpt lat="31.7926890" lon="35.0766821">
<ele>553.589966</ele>
<time>2018-03-13T18:15:10.000Z</time>
</trkpt>
<trkpt lat="31.7927019" lon="35.0765720">
<ele>552.850037</ele>
<time>2018-03-13T18:15:12.000Z</time>
</trkpt>
<trkpt lat="31.7927239" lon="35.0764627">
<ele>553.080017</ele>
<time>2018-03-13T18:15:14.000Z</time>
</trkpt>
<trkpt lat="31.7927508" lon="35.0763545">
<ele>552.150024</ele>
<time>2018-03-13T18:15:16.000Z</time>
</trkpt>
<trkpt lat="31.7927865" lon="35.0762451">
<ele>552.330017</ele>
<time>2018-03-13T18:15:18.000Z</time>
</trkpt>
<trkpt lat="31.7928299" lon="35.0761348">
<ele>551.480042</ele>
<time>2018-03-13T18:15:20.000Z</time>
</trkpt>
<trkpt lat="31.7928744" lon="35.0760178">
<ele>550.909973</ele>
<time>2018-03-13T18:15:22.000Z</time>
</trkpt>
<trkpt lat="31.7929243" lon="35.0758885">
<ele>549.600037</ele>
<time>2018-03-13T18:15:24.000Z</time>
</trkpt>
<trkpt lat="31.7929820" lon="35.0757562">
<ele>549.070007</ele>
<time>2018-03-13T18:15:26.000Z</time>
</trkpt>
<trkpt lat="31.7930336" lon="35.0756376">
<ele>548.780029</ele>
<time>2018-03-13T18:15:28.000Z</time>
</trkpt>
<trkpt lat="31.7930842" lon="35.0755236">
<ele>548.520020</ele>
<time>2018-03-13T18:15:30.000Z</time>
</trkpt>
<trkpt lat="31.7931251" lon="35.0754034">
<ele>547.890015</ele>
<time>2018-03-13T18:15:32.000Z</time>
</trkpt>
<trkpt lat="31.7931542" lon="35.0752867">
<ele>547.369995</ele>
<time>2018-03-13T18:15:34.000Z</time>
</trkpt>
<trkpt lat="31.7931563" lon="35.0751437">
<ele>546.969971</ele>
<time>2018-03-13T18:15:37.000Z</time>
</trkpt>
<trkpt lat="31.7931228" lon="35.0750380">
<ele>545.799988</ele>
<time>2018-03-13T18:15:40.000Z</time>
</trkpt>
<trkpt lat="31.7930535" lon="35.0749183">
<ele>544.979980</ele>
<time>2018-03-13T18:15:44.000Z</time>
</trkpt>
<trkpt lat="31.7929815" lon="35.0748122">
<ele>543.739990</ele>
<time>2018-03-13T18:15:47.000Z</time>
</trkpt>
<trkpt lat="31.7928866" lon="35.0746930">
<ele>541.539978</ele>
<time>2018-03-13T18:15:50.000Z</time>
</trkpt>
<trkpt lat="31.7928105" lon="35.0746046">
<ele>540.429993</ele>
<time>2018-03-13T18:15:52.000Z</time>
</trkpt>
<trkpt lat="31.7927368" lon="35.0745062">
<ele>540.070007</ele>
<time>2018-03-13T18:15:54.000Z</time>
</trkpt>
<trkpt lat="31.7926684" lon="35.0743950">
<ele>539.010010</ele>
<time>2018-03-13T18:15:56.000Z</time>
</trkpt>
<trkpt lat="31.7925961" lon="35.0742779">
<ele>537.950012</ele>
<time>2018-03-13T18:15:58.000Z</time>
</trkpt>
<trkpt lat="31.7925250" lon="35.0741563">
<ele>536.859985</ele>
<time>2018-03-13T18:16:00.000Z</time>
</trkpt>
<trkpt lat="31.7924475" lon="35.0740310">
<ele>535.330017</ele>
<time>2018-03-13T18:16:02.000Z</time>
</trkpt>
<trkpt lat="31.7923581" lon="35.0739070">
<ele>535.119995</ele>
<time>2018-03-13T18:16:04.000Z</time>
</trkpt>
<trkpt lat="31.7922623" lon="35.0737874">
<ele>534.190002</ele>
<time>2018-03-13T18:16:06.000Z</time>
</trkpt>
<trkpt lat="31.7921582" lon="35.0736860">
<ele>533.710022</ele>
<time>2018-03-13T18:16:08.000Z</time>
</trkpt>
<trkpt lat="31.7920524" lon="35.0735891">
<ele>533.140015</ele>
<time>2018-03-13T18:16:10.000Z</time>
</trkpt>
<trkpt lat="31.7919529" lon="35.0734959">
<ele>532.510010</ele>
<time>2018-03-13T18:16:12.000Z</time>
</trkpt>
<trkpt lat="31.7918522" lon="35.0734203">
<ele>533.030029</ele>
<time>2018-03-13T18:16:14.000Z</time>
</trkpt>
<trkpt lat="31.7917665" lon="35.0733432">
<ele>532.859985</ele>
<time>2018-03-13T18:16:16.000Z</time>
</trkpt>
<trkpt lat="31.7916956" lon="35.0732701">
<ele>532.330017</ele>
<time>2018-03-13T18:16:18.000Z</time>
</trkpt>
<trkpt lat="31.7916063" lon="35.0731616">
<ele>533.659973</ele>
<time>2018-03-13T18:16:21.000Z</time>
</trkpt>
<trkpt lat="31.7915220" lon="35.0730553">
<ele>533.890015</ele>
<time>2018-03-13T18:16:24.000Z</time>
</trkpt>
<trkpt lat="31.7914487" lon="35.0729437">
<ele>534.049988</ele>
<time>2018-03-13T18:16:27.000Z</time>
</trkpt>
<trkpt lat="31.7913851" lon="35.0728341">
<ele>534.929993</ele>
<time>2018-03-13T18:16:30.000Z</time>
</trkpt>
<trkpt lat="31.7913297" lon="35.0727237">
<ele>534.669983</ele>
<time>2018-03-13T18:16:33.000Z</time>
</trkpt>
<trkpt lat="31.7912723" lon="35.0726303">
<ele>535.659973</ele>
<time>2018-03-13T18:16:36.000Z</time>
</trkpt>
<trkpt lat="31.7912184" lon="35.0725282">
<ele>536.559998</ele>
<time>2018-03-13T18:16:39.000Z</time>
</trkpt>
<trkpt lat="31.7911638" lon="35.0724348">
<ele>537.029968</ele>
<time>2018-03-13T18:16:42.000Z</time>
</trkpt>
<trkpt lat="31.7911099" lon="35.0723458">
<ele>537.309998</ele>
<time>2018-03-13T18:16:45.000Z</time>
</trkpt>
<trkpt lat="31.7910448" lon="35.0722364">
<ele>537.959961</ele>
<time>2018-03-13T18:16:49.000Z</time>
</trkpt>
<trkpt lat="31.7909902" lon="35.0721353">
<ele>538.720032</ele>
<time>2018-03-13T18:16:53.000Z</time>
</trkpt>
<trkpt lat="31.7909134" lon="35.0720493">
<ele>539.150024</ele>
<time>2018-03-13T18:16:57.000Z</time>
</trkpt>
<trkpt lat="31.7908359" lon="35.0719515">
<ele>539.260010</ele>
<time>2018-03-13T18:17:01.000Z</time>
</trkpt>
<trkpt lat="31.7907803" lon="35.0718538">
<ele>539.710022</ele>
<time>2018-03-13T18:17:05.000Z</time>
</trkpt>
<trkpt lat="31.7907386" lon="35.0717510">
<ele>540.019958</ele>
<time>2018-03-13T18:17:09.000Z</time>
</trkpt>
<trkpt lat="31.7906672" lon="35.0716565">
<ele>540.619995</ele>
<time>2018-03-13T18:17:13.000Z</time>
</trkpt>
<trkpt lat="31.7906037" lon="35.0715553">
<ele>539.940002</ele>
<time>2018-03-13T18:17:17.000Z</time>
</trkpt>
<trkpt lat="31.7905439" lon="35.0714517">
<ele>541.270020</ele>
<time>2018-03-13T18:17:22.000Z</time>
</trkpt>
<trkpt lat="31.7905022" lon="35.0713444">
<ele>542.390015</ele>
<time>2018-03-13T18:17:28.000Z</time>
</trkpt>
<trkpt lat="31.7904695" lon="35.0712465">
<ele>543.169983</ele>
<time>2018-03-13T18:17:33.000Z</time>
</trkpt>
<trkpt lat="31.7904619" lon="35.0711221">
<ele>543.630005</ele>
<time>2018-03-13T18:17:39.000Z</time>
</trkpt>
<trkpt lat="31.7904591" lon="35.0710084">
<ele>544.010010</ele>
<time>2018-03-13T18:17:44.000Z</time>
</trkpt>
<trkpt lat="31.7904897" lon="35.0709034">
<ele>544.140015</ele>
<time>2018-03-13T18:17:49.000Z</time>
</trkpt>
<trkpt lat="31.7905118" lon="35.0707800">
<ele>544.970032</ele>
<time>2018-03-13T18:17:55.000Z</time>
</trkpt>
<trkpt lat="31.7905256" lon="35.0706675">
<ele>545.690002</ele>
<time>2018-03-13T18:18:00.000Z</time>
</trkpt>
<trkpt lat="31.7905308" lon="35.0705583">
<ele>546.030029</ele>
<time>2018-03-13T18:18:05.000Z</time>
</trkpt>
<trkpt lat="31.7905449" lon="35.0704501">
<ele>546.580017</ele>
<time>2018-03-13T18:18:09.000Z</time>
</trkpt>
<trkpt lat="31.7905481" lon="35.0703402">
<ele>547.020020</ele>
<time>2018-03-13T18:18:13.000Z</time>
</trkpt>
<trkpt lat="31.7905368" lon="35.0702103">
<ele>547.099976</ele>
<time>2018-03-13T18:18:17.000Z</time>
</trkpt>
<trkpt lat="31.7905108" lon="35.0700767">
<ele>547.109985</ele>
<time>2018-03-13T18:18:21.000Z</time>
</trkpt>
<trkpt lat="31.7904821" lon="35.0699514">
<ele>547.609985</ele>
<time>2018-03-13T18:18:25.000Z</time>
</trkpt>
<trkpt lat="31.7904423" lon="35.0698367">
<ele>547.940002</ele>
<time>2018-03-13T18:18:29.000Z</time>
</trkpt>
<trkpt lat="31.7904007" lon="35.0697239">
<ele>548.539978</ele>
<time>2018-03-13T18:18:33.000Z</time>
</trkpt>
<trkpt lat="31.7903528" lon="35.0696150">
<ele>548.729980</ele>
<time>2018-03-13T18:18:37.000Z</time>
</trkpt>
<trkpt lat="31.7902850" lon="35.0694986">
<ele>549.340027</ele>
<time>2018-03-13T18:18:41.000Z</time>
</trkpt>
<trkpt lat="31.7902173" lon="35.0694152">
<ele>549.260010</ele>
<time>2018-03-13T18:18:44.000Z</time>
</trkpt>
<trkpt lat="31.7901533" lon="35.0693355">
<ele>549.720032</ele>
<time>2018-03-13T18:18:47.000Z</time>
</trkpt>
<trkpt lat="31.7900693" lon="35.0692361">
<ele>549.909973</ele>
<time>2018-03-13T18:18:51.000Z</time>
</trkpt>
<trkpt lat="31.7899836" lon="35.0691418">
<ele>550.169983</ele>
<time>2018-03-13T18:18:55.000Z</time>
</trkpt>
<trkpt lat="31.7898920" lon="35.0690489">
<ele>550.380005</ele>
<time>2018-03-13T18:18:59.000Z</time>
</trkpt>
<trkpt lat="31.7898048" lon="35.0689681">
<ele>551.409973</ele>
<time>2018-03-13T18:19:03.000Z</time>
</trkpt>
<trkpt lat="31.7897340" lon="35.0688844">
<ele>551.320007</ele>
<time>2018-03-13T18:19:07.000Z</time>
</trkpt>
<trkpt lat="31.7896684" lon="35.0687988">
<ele>552.040039</ele>
<time>2018-03-13T18:19:11.000Z</time>
</trkpt>
<trkpt lat="31.7895782" lon="35.0687537">
<ele>552.500000</ele>
<time>2018-03-13T18:19:16.000Z</time>
</trkpt>
<trkpt lat="31.7895129" lon="35.0686799">
<ele>553.080017</ele>
<time>2018-03-13T18:19:21.000Z</time>
</trkpt>
<trkpt lat="31.7894389" lon="35.0685816">
<ele>553.289978</ele>
<time>2018-03-13T18:19:26.000Z</time>
</trkpt>
<trkpt lat="31.7893680" lon="35.0684967">
<ele>553.630005</ele>
<time>2018-03-13T18:19:30.000Z</time>
</trkpt>
<trkpt lat="31.7893005" lon="35.0684133">
<ele>553.589966</ele>
<time>2018-03-13T18:19:34.000Z</time>
</trkpt>
<trkpt lat="31.7892283" lon="35.0683144">
<ele>553.869995</ele>
<time>2018-03-13T18:19:38.000Z</time>
</trkpt>
<trkpt lat="31.7891689" lon="35.0682155">
<ele>554.640015</ele>
<time>2018-03-13T18:19:42.000Z</time>
</trkpt>
<trkpt lat="31.7891298" lon="35.0681148">
<ele>555.710022</ele>
<time>2018-03-13T18:19:46.000Z</time>
</trkpt>
<trkpt lat="31.7891034" lon="35.0680109">
<ele>556.179993</ele>
<time>2018-03-13T18:19:51.000Z</time>
</trkpt>
<trkpt lat="31.7891032" lon="35.0678889">
<ele>556.849976</ele>
<time>2018-03-13T18:19:56.000Z</time>
</trkpt>
<trkpt lat="31.7891230" lon="35.0677791">
<ele>556.890015</ele>
<time>2018-03-13T18:20:01.000Z</time>
</trkpt>
<trkpt lat="31.7891641" lon="35.0676661">
<ele>557.969971</ele>
<time>2018-03-13T18:20:07.000Z</time>
</trkpt>
<trkpt lat="31.7892221" lon="35.0675690">
<ele>558.929993</ele>
<time>2018-03-13T18:20:14.000Z</time>
</trkpt>
<trkpt lat="31.7892646" lon="35.0674712">
<ele>560.210022</ele>
<time>2018-03-13T18:20:20.000Z</time>
</trkpt>
<trkpt lat="31.7893127" lon="35.0673618">
<ele>561.239990</ele>
<time>2018-03-13T18:20:26.000Z</time>
</trkpt>
<trkpt lat="31.7893715" lon="35.0672681">
<ele>561.929993</ele>
<time>2018-03-13T18:20:32.000Z</time>
</trkpt>
<trkpt lat="31.7894211" lon="35.0671703">
<ele>562.270020</ele>
<time>2018-03-13T18:20:37.000Z</time>
</trkpt>
<trkpt lat="31.7894760" lon="35.0670702">
<ele>563.130005</ele>
<time>2018-03-13T18:20:42.000Z</time>
</trkpt>
<trkpt lat="31.7895144" lon="35.0669799">
<ele>563.649963</ele>
<time>2018-03-13T18:20:47.000Z</time>
</trkpt>
<trkpt lat="31.7895705" lon="35.0668889">
<ele>564.280029</ele>
<time>2018-03-13T18:20:52.000Z</time>
</trkpt>
<trkpt lat="31.7896188" lon="35.0667869">
<ele>564.670044</ele>
<time>2018-03-13T18:20:57.000Z</time>
</trkpt>
<trkpt lat="31.7896639" lon="35.0666659">
<ele>565.700012</ele>
<time>2018-03-13T18:21:03.000Z</time>
</trkpt>
<trkpt lat="31.7897098" lon="35.0665521">
<ele>566.419983</ele>
<time>2018-03-13T18:21:09.000Z</time>
</trkpt>
<trkpt lat="31.7897640" lon="35.0664537">
<ele>567.440002</ele>
<time>2018-03-13T18:21:14.000Z</time>
</trkpt>
<trkpt lat="31.7898083" lon="35.0663440">
<ele>567.630005</ele>
<time>2018-03-13T18:21:20.000Z</time>
</trkpt>
<trkpt lat="31.7898668" lon="35.0662372">
<ele>568.739990</ele>
<time>2018-03-13T18:21:26.000Z</time>
</trkpt>
<trkpt lat="31.7898999" lon="35.0661216">
<ele>570.359985</ele>
<time>2018-03-13T18:21:32.000Z</time>
</trkpt>
<trkpt lat="31.7899456" lon="35.0660133">
<ele>571.500000</ele>
<time>2018-03-13T18:21:38.000Z</time>
</trkpt>
<trkpt lat="31.7899807" lon="35.0659132">
<ele>571.900024</ele>
<time>2018-03-13T18:21:44.000Z</time>
</trkpt>
<trkpt lat="31.7899911" lon="35.0658139">
<ele>572.359985</ele>
<time>2018-03-13T18:21:49.000Z</time>
</trkpt>
<trkpt lat="31.7899941" lon="35.0656786">
<ele>571.979980</ele>
<time>2018-03-13T18:21:54.000Z</time>
</trkpt>
<trkpt lat="31.7900078" lon="35.0655667">
<ele>572.960022</ele>
<time>2018-03-13T18:21:58.000Z</time>
</trkpt>
<trkpt lat="31.7900158" lon="35.0654412">
<ele>573.330017</ele>
<time>2018-03-13T18:22:03.000Z</time>
</trkpt>
<trkpt lat="31.7900110" lon="35.0653264">
<ele>573.429993</ele>
<time>2018-03-13T18:22:07.000Z</time>
</trkpt>
<trkpt lat="31.7900139" lon="35.0651789">
<ele>573.289978</ele>
<time>2018-03-13T18:22:11.000Z</time>
</trkpt>
<trkpt lat="31.7900184" lon="35.0650460">
<ele>574.089966</ele>
<time>2018-03-13T18:22:15.000Z</time>
</trkpt>
<trkpt lat="31.7900038" lon="35.0649223">
<ele>573.690002</ele>
<time>2018-03-13T18:22:19.000Z</time>
</trkpt>
<trkpt lat="31.7899969" lon="35.0647794">
<ele>573.780029</ele>
<time>2018-03-13T18:22:23.000Z</time>
</trkpt>
<trkpt lat="31.7899893" lon="35.0646616">
<ele>573.940002</ele>
<time>2018-03-13T18:22:26.000Z</time>
</trkpt>
<trkpt lat="31.7899846" lon="35.0645454">
<ele>574.200012</ele>
<time>2018-03-13T18:22:29.000Z</time>
</trkpt>
<trkpt lat="31.7899873" lon="35.0644250">
<ele>574.040039</ele>
<time>2018-03-13T18:22:32.000Z</time>
</trkpt>
<trkpt lat="31.7899979" lon="35.0643026">
<ele>574.840027</ele>
<time>2018-03-13T18:22:35.000Z</time>
</trkpt>
<trkpt lat="31.7900085" lon="35.0641857">
<ele>575.099976</ele>
<time>2018-03-13T18:22:38.000Z</time>
</trkpt>
<trkpt lat="31.7900204" lon="35.0640740">
<ele>574.850037</ele>
<time>2018-03-13T18:22:41.000Z</time>
</trkpt>
<trkpt lat="31.7900355" lon="35.0639604">
<ele>575.239990</ele>
<time>2018-03-13T18:22:44.000Z</time>
</trkpt>
<trkpt lat="31.7900613" lon="35.0638273">
<ele>576.539978</ele>
<time>2018-03-13T18:22:48.000Z</time>
</trkpt>
<trkpt lat="31.7900911" lon="35.0637147">
<ele>577.140015</ele>
<time>2018-03-13T18:22:52.000Z</time>
</trkpt>
<trkpt lat="31.7901362" lon="35.0635922">
<ele>578.029968</ele>
<time>2018-03-13T18:22:57.000Z</time>
</trkpt>
<trkpt lat="31.7901695" lon="35.0634910">
<ele>578.159973</ele>
<time>2018-03-13T18:23:01.000Z</time>
</trkpt>
<trkpt lat="31.7901918" lon="35.0633740">
<ele>578.820007</ele>
<time>2018-03-13T18:23:05.000Z</time>
</trkpt>
<trkpt lat="31.7902065" lon="35.0632652">
<ele>578.929993</ele>
<time>2018-03-13T18:23:09.000Z</time>
</trkpt>
<trkpt lat="31.7902343" lon="35.0631688">
<ele>578.710022</ele>
<time>2018-03-13T18:23:13.000Z</time>
</trkpt>
<trkpt lat="31.7902492" lon="35.0630461">
<ele>579.979980</ele>
<time>2018-03-13T18:23:18.000Z</time>
</trkpt>
<trkpt lat="31.7902395" lon="35.0629291">
<ele>580.570007</ele>
<time>2018-03-13T18:23:22.000Z</time>
</trkpt>
<trkpt lat="31.7902269" lon="35.0628224">
<ele>580.690002</ele>
<time>2018-03-13T18:23:26.000Z</time>
</trkpt>
<trkpt lat="31.7901900" lon="35.0627272">
<ele>581.510010</ele>
<time>2018-03-13T18:23:30.000Z</time>
</trkpt>
<trkpt lat="31.7901669" lon="35.0626192">
<ele>581.390015</ele>
<time>2018-03-13T18:23:34.000Z</time>
</trkpt>
<trkpt lat="31.7901450" lon="35.0625063">
<ele>581.750000</ele>
<time>2018-03-13T18:23:38.000Z</time>
</trkpt>
<trkpt lat="31.7901320" lon="35.0624002">
<ele>582.320007</ele>
<time>2018-03-13T18:23:42.000Z</time>
</trkpt>
<trkpt lat="31.7901013" lon="35.0623001">
<ele>582.169983</ele>
<time>2018-03-13T18:23:46.000Z</time>
</trkpt>
<trkpt lat="31.7900653" lon="35.0621951">
<ele>583.410034</ele>
<time>2018-03-13T18:23:51.000Z</time>
</trkpt>
<trkpt lat="31.7900266" lon="35.0620818">
<ele>583.549988</ele>
<time>2018-03-13T18:23:56.000Z</time>
</trkpt>
<trkpt lat="31.7900006" lon="35.0619765">
<ele>584.000000</ele>
<time>2018-03-13T18:24:00.000Z</time>
</trkpt>
<trkpt lat="31.7899904" lon="35.0618651">
<ele>584.020020</ele>
<time>2018-03-13T18:24:04.000Z</time>
</trkpt>
<trkpt lat="31.7899742" lon="35.0617559">
<ele>584.429993</ele>
<time>2018-03-13T18:24:08.000Z</time>
</trkpt>
<trkpt lat="31.7899569" lon="35.0616244">
<ele>584.780029</ele>
<time>2018-03-13T18:24:13.000Z</time>
</trkpt>
<trkpt lat="31.7899358" lon="35.0615172">
<ele>585.380005</ele>
<time>2018-03-13T18:24:17.000Z</time>
</trkpt>
<trkpt lat="31.7899156" lon="35.0614057">
<ele>585.600037</ele>
<time>2018-03-13T18:24:21.000Z</time>
</trkpt>
<trkpt lat="31.7899059" lon="35.0612895">
<ele>586.079956</ele>
<time>2018-03-13T18:24:25.000Z</time>
</trkpt>
<trkpt lat="31.7898945" lon="35.0611637">
<ele>585.659973</ele>
<time>2018-03-13T18:24:29.000Z</time>
</trkpt>
<trkpt lat="31.7898729" lon="35.0610348">
<ele>586.460022</ele>
<time>2018-03-13T18:24:33.000Z</time>
</trkpt>
<trkpt lat="31.7898526" lon="35.0609103">
<ele>586.489990</ele>
<time>2018-03-13T18:24:37.000Z</time>
</trkpt>
<trkpt lat="31.7898365" lon="35.0607857">
<ele>587.210022</ele>
<time>2018-03-13T18:24:41.000Z</time>
</trkpt>
<trkpt lat="31.7898179" lon="35.0606506">
<ele>586.710022</ele>
<time>2018-03-13T18:24:45.000Z</time>
</trkpt>
<trkpt lat="31.7897943" lon="35.0605429">
<ele>586.270020</ele>
<time>2018-03-13T18:24:48.000Z</time>
</trkpt>
<trkpt lat="31.7897638" lon="35.0604442">
<ele>586.690002</ele>
<time>2018-03-13T18:24:51.000Z</time>
</trkpt>
<trkpt lat="31.7897314" lon="35.0603414">
<ele>586.729980</ele>
<time>2018-03-13T18:24:54.000Z</time>
</trkpt>
<trkpt lat="31.7896979" lon="35.0602314">
<ele>586.670044</ele>
<time>2018-03-13T18:24:57.000Z</time>
</trkpt>
<trkpt lat="31.7896572" lon="35.0601325">
<ele>586.059998</ele>
<time>2018-03-13T18:25:01.000Z</time>
</trkpt>
<trkpt lat="31.7895994" lon="35.0600219">
<ele>586.150024</ele>
<time>2018-03-13T18:25:36.000Z</time>
</trkpt>
<trkpt lat="31.7895469" lon="35.0599109">
<ele>586.250000</ele>
<time>2018-03-13T18:25:40.000Z</time>
</trkpt>
<trkpt lat="31.7894806" lon="35.0598211">
<ele>585.510010</ele>
<time>2018-03-13T18:25:43.000Z</time>
</trkpt>
<trkpt lat="31.7893983" lon="35.0597280">
<ele>585.289978</ele>
<time>2018-03-13T18:25:46.000Z</time>
</trkpt>
<trkpt lat="31.7893028" lon="35.0596266">
<ele>584.890015</ele>
<time>2018-03-13T18:25:49.000Z</time>
</trkpt>
<trkpt lat="31.7892335" lon="35.0595547">
<ele>584.520020</ele>
<time>2018-03-13T18:25:51.000Z</time>
</trkpt>
<trkpt lat="31.7891543" lon="35.0594865">
<ele>583.880005</ele>
<time>2018-03-13T18:25:53.000Z</time>
</trkpt>
<trkpt lat="31.7890733" lon="35.0594150">
<ele>583.390015</ele>
<time>2018-03-13T18:25:55.000Z</time>
</trkpt>
<trkpt lat="31.7889982" lon="35.0593332">
<ele>583.179993</ele>
<time>2018-03-13T18:25:57.000Z</time>
</trkpt>
<trkpt lat="31.7889270" lon="35.0592488">
<ele>583.779968</ele>
<time>2018-03-13T18:25:59.000Z</time>
</trkpt>
<trkpt lat="31.7888517" lon="35.0591767">
<ele>583.559998</ele>
<time>2018-03-13T18:26:01.000Z</time>
</trkpt>
<trkpt lat="31.7887794" lon="35.0590949">
<ele>583.909973</ele>
<time>2018-03-13T18:26:03.000Z</time>
</trkpt>
<trkpt lat="31.7887142" lon="35.0590068">
<ele>583.299988</ele>
<time>2018-03-13T18:26:05.000Z</time>
</trkpt>
<trkpt lat="31.7886523" lon="35.0589144">
<ele>582.630005</ele>
<time>2018-03-13T18:26:07.000Z</time>
</trkpt>
<trkpt lat="31.7886087" lon="35.0588039">
<ele>582.869995</ele>
<time>2018-03-13T18:26:09.000Z</time>
</trkpt>
<trkpt lat="31.7885586" lon="35.0586939">
<ele>582.760010</ele>
<time>2018-03-13T18:26:11.000Z</time>
</trkpt>
<trkpt lat="31.7885123" lon="35.0585812">
<ele>582.570007</ele>
<time>2018-03-13T18:26:13.000Z</time>
</trkpt>
<trkpt lat="31.7884705" lon="35.0584653">
<ele>581.700012</ele>
<time>2018-03-13T18:26:15.000Z</time>
</trkpt>
<trkpt lat="31.7884399" lon="35.0583476">
<ele>580.609985</ele>
<time>2018-03-13T18:26:17.000Z</time>
</trkpt>
<trkpt lat="31.7884013" lon="35.0582267">
<ele>580.820007</ele>
<time>2018-03-13T18:26:19.000Z</time>
</trkpt>
<trkpt lat="31.7883578" lon="35.0581018">
<ele>579.669983</ele>
<time>2018-03-13T18:26:21.000Z</time>
</trkpt>
<trkpt lat="31.7883205" lon="35.0579743">
<ele>579.619995</ele>
<time>2018-03-13T18:26:23.000Z</time>
</trkpt>
<trkpt lat="31.7883027" lon="35.0578420">
<ele>579.200012</ele>
<time>2018-03-13T18:26:25.000Z</time>
</trkpt>
<trkpt lat="31.7882901" lon="35.0577105">
<ele>578.670044</ele>
<time>2018-03-13T18:26:27.000Z</time>
</trkpt>
<trkpt lat="31.7882731" lon="35.0575797">
<ele>578.710022</ele>
<time>2018-03-13T18:26:29.000Z</time>
</trkpt>
<trkpt lat="31.7882601" lon="35.0574477">
<ele>577.970032</ele>
<time>2018-03-13T18:26:31.000Z</time>
</trkpt>
<trkpt lat="31.7882509" lon="35.0573154">
<ele>577.140015</ele>
<time>2018-03-13T18:26:33.000Z</time>
</trkpt>
<trkpt lat="31.7882477" lon="35.0571936">
<ele>576.230042</ele>
<time>2018-03-13T18:26:35.000Z</time>
</trkpt>
<trkpt lat="31.7882338" lon="35.0570803">
<ele>575.799988</ele>
<time>2018-03-13T18:26:37.000Z</time>
</trkpt>
<trkpt lat="31.7882183" lon="35.0569564">
<ele>575.899963</ele>
<time>2018-03-13T18:26:39.000Z</time>
</trkpt>
<trkpt lat="31.7882039" lon="35.0568390">
<ele>574.649963</ele>
<time>2018-03-13T18:26:41.000Z</time>
</trkpt>
<trkpt lat="31.7881937" lon="35.0567361">
<ele>574.460022</ele>
<time>2018-03-13T18:26:43.000Z</time>
</trkpt>
<trkpt lat="31.7881838" lon="35.0566044">
<ele>573.330017</ele>
<time>2018-03-13T18:26:46.000Z</time>
</trkpt>
<trkpt lat="31.7881929" lon="35.0564600">
<ele>572.570007</ele>
<time>2018-03-13T18:26:49.000Z</time>
</trkpt>
<trkpt lat="31.7882240" lon="35.0563500">
<ele>571.809998</ele>
<time>2018-03-13T18:26:51.000Z</time>
</trkpt>
<trkpt lat="31.7882687" lon="35.0562412">
<ele>571.619995</ele>
<time>2018-03-13T18:26:53.000Z</time>
</trkpt>
<trkpt lat="31.7883125" lon="35.0561293">
<ele>571.030029</ele>
<time>2018-03-13T18:26:55.000Z</time>
</trkpt>
<trkpt lat="31.7883592" lon="35.0560183">
<ele>571.489990</ele>
<time>2018-03-13T18:26:57.000Z</time>
</trkpt>
<trkpt lat="31.7883889" lon="35.0558981">
<ele>569.669983</ele>
<time>2018-03-13T18:26:59.000Z</time>
</trkpt>
<trkpt lat="31.7884014" lon="35.0557651">
<ele>569.460022</ele>
<time>2018-03-13T18:27:01.000Z</time>
</trkpt>
<trkpt lat="31.7884039" lon="35.0556569">
<ele>567.799988</ele>
<time>2018-03-13T18:27:03.000Z</time>
</trkpt>
<trkpt lat="31.7884090" lon="35.0555149">
<ele>567.130005</ele>
<time>2018-03-13T18:27:06.000Z</time>
</trkpt>
<trkpt lat="31.7884414" lon="35.0554170">
<ele>566.099976</ele>
<time>2018-03-13T18:27:08.000Z</time>
</trkpt>
<trkpt lat="31.7885165" lon="35.0553326">
<ele>566.070007</ele>
<time>2018-03-13T18:27:10.000Z</time>
</trkpt>
<trkpt lat="31.7886062" lon="35.0552610">
<ele>565.880005</ele>
<time>2018-03-13T18:27:12.000Z</time>
</trkpt>
<trkpt lat="31.7887067" lon="35.0552210">
<ele>565.969971</ele>
<time>2018-03-13T18:27:14.000Z</time>
</trkpt>
<trkpt lat="31.7888087" lon="35.0551990">
<ele>566.450012</ele>
<time>2018-03-13T18:27:16.000Z</time>
</trkpt>
<trkpt lat="31.7889049" lon="35.0551896">
<ele>566.700012</ele>
<time>2018-03-13T18:27:18.000Z</time>
</trkpt>
<trkpt lat="31.7889978" lon="35.0551943">
<ele>567.049988</ele>
<time>2018-03-13T18:27:20.000Z</time>
</trkpt>
<trkpt lat="31.7890911" lon="35.0552011">
<ele>566.919983</ele>
<time>2018-03-13T18:27:22.000Z</time>
</trkpt>
<trkpt lat="31.7891833" lon="35.0552141">
<ele>567.219971</ele>
<time>2018-03-13T18:27:24.000Z</time>
</trkpt>
<trkpt lat="31.7892745" lon="35.0552285">
<ele>566.960022</ele>
<time>2018-03-13T18:27:26.000Z</time>
</trkpt>
<trkpt lat="31.7893658" lon="35.0552488">
<ele>567.400024</ele>
<time>2018-03-13T18:27:28.000Z</time>
</trkpt>
<trkpt lat="31.7894596" lon="35.0552757">
<ele>567.580017</ele>
<time>2018-03-13T18:27:30.000Z</time>
</trkpt>
<trkpt lat="31.7895552" lon="35.0553029">
<ele>567.070007</ele>
<time>2018-03-13T18:27:32.000Z</time>
</trkpt>
<trkpt lat="31.7896500" lon="35.0553274">
<ele>567.239990</ele>
<time>2018-03-13T18:27:34.000Z</time>
</trkpt>
<trkpt lat="31.7897467" lon="35.0553531">
<ele>566.929993</ele>
<time>2018-03-13T18:27:36.000Z</time>
</trkpt>
<trkpt lat="31.7898482" lon="35.0553651">
<ele>566.609985</ele>
<time>2018-03-13T18:27:38.000Z</time>
</trkpt>
<trkpt lat="31.7899488" lon="35.0553772">
<ele>566.529968</ele>
<time>2018-03-13T18:27:40.000Z</time>
</trkpt>
<trkpt lat="31.7900483" lon="35.0554010">
<ele>565.839966</ele>
<time>2018-03-13T18:27:42.000Z</time>
</trkpt>
<trkpt lat="31.7901490" lon="35.0554170">
<ele>565.289978</ele>
<time>2018-03-13T18:27:44.000Z</time>
</trkpt>
<trkpt lat="31.7902714" lon="35.0554059">
<ele>564.159973</ele>
<time>2018-03-13T18:27:47.000Z</time>
</trkpt>
<trkpt lat="31.7903374" lon="35.0553238">
<ele>564.400024</ele>
<time>2018-03-13T18:27:51.000Z</time>
</trkpt>
<trkpt lat="31.7902967" lon="35.0552177">
<ele>564.369995</ele>
<time>2018-03-13T18:27:54.000Z</time>
</trkpt>
<trkpt lat="31.7902201" lon="35.0551072">
<ele>564.609985</ele>
<time>2018-03-13T18:27:57.000Z</time>
</trkpt>
<trkpt lat="31.7901220" lon="35.0549970">
<ele>563.779968</ele>
<time>2018-03-13T18:28:00.000Z</time>
</trkpt>
<trkpt lat="31.7900578" lon="35.0549042">
<ele>561.979980</ele>
<time>2018-03-13T18:28:02.000Z</time>
</trkpt>
<trkpt lat="31.7899867" lon="35.0548030">
<ele>561.700012</ele>
<time>2018-03-13T18:28:04.000Z</time>
</trkpt>
<trkpt lat="31.7899181" lon="35.0546903">
<ele>561.099976</ele>
<time>2018-03-13T18:28:06.000Z</time>
</trkpt>
<trkpt lat="31.7898596" lon="35.0545659">
<ele>560.669983</ele>
<time>2018-03-13T18:28:08.000Z</time>
</trkpt>
<trkpt lat="31.7897934" lon="35.0544504">
<ele>560.720032</ele>
<time>2018-03-13T18:28:10.000Z</time>
</trkpt>
<trkpt lat="31.7897091" lon="35.0543444">
<ele>559.859985</ele>
<time>2018-03-13T18:28:12.000Z</time>
</trkpt>
<trkpt lat="31.7896241" lon="35.0542531">
<ele>559.419983</ele>
<time>2018-03-13T18:28:14.000Z</time>
</trkpt>
<trkpt lat="31.7895620" lon="35.0541552">
<ele>559.830017</ele>
<time>2018-03-13T18:28:16.000Z</time>
</trkpt>
<trkpt lat="31.7895168" lon="35.0540539">
<ele>559.510010</ele>
<time>2018-03-13T18:28:18.000Z</time>
</trkpt>
<trkpt lat="31.7894698" lon="35.0539573">
<ele>559.429993</ele>
<time>2018-03-13T18:28:20.000Z</time>
</trkpt>
<trkpt lat="31.7894095" lon="35.0538496">
<ele>559.799988</ele>
<time>2018-03-13T18:28:22.000Z</time>
</trkpt>
<trkpt lat="31.7893461" lon="35.0537273">
<ele>559.169983</ele>
<time>2018-03-13T18:28:24.000Z</time>
</trkpt>
<trkpt lat="31.7892822" lon="35.0535937">
<ele>558.540039</ele>
<time>2018-03-13T18:28:26.000Z</time>
</trkpt>
<trkpt lat="31.7892318" lon="35.0534475">
<ele>558.369995</ele>
<time>2018-03-13T18:28:28.000Z</time>
</trkpt>
<trkpt lat="31.7891959" lon="35.0532971">
<ele>558.229980</ele>
<time>2018-03-13T18:28:30.000Z</time>
</trkpt>
<trkpt lat="31.7891921" lon="35.0531476">
<ele>557.799988</ele>
<time>2018-03-13T18:28:32.000Z</time>
</trkpt>
<trkpt lat="31.7892247" lon="35.0530059">
<ele>557.580017</ele>
<time>2018-03-13T18:28:34.000Z</time>
</trkpt>
<trkpt lat="31.7892707" lon="35.0528726">
<ele>557.229980</ele>
<time>2018-03-13T18:28:36.000Z</time>
</trkpt>
<trkpt lat="31.7893363" lon="35.0527624">
<ele>556.869995</ele>
<time>2018-03-13T18:28:38.000Z</time>
</trkpt>
<trkpt lat="31.7894350" lon="35.0526892">
<ele>557.179993</ele>
<time>2018-03-13T18:28:40.000Z</time>
</trkpt>
<trkpt lat="31.7895357" lon="35.0526229">
<ele>556.700012</ele>
<time>2018-03-13T18:28:42.000Z</time>
</trkpt>
<trkpt lat="31.7896341" lon="35.0525795">
<ele>557.609985</ele>
<time>2018-03-13T18:28:44.000Z</time>
</trkpt>
<trkpt lat="31.7897400" lon="35.0525353">
<ele>557.510010</ele>
<time>2018-03-13T18:28:46.000Z</time>
</trkpt>
<trkpt lat="31.7898425" lon="35.0525001">
<ele>557.330017</ele>
<time>2018-03-13T18:28:48.000Z</time>
</trkpt>
<trkpt lat="31.7899459" lon="35.0524602">
<ele>558.059998</ele>
<time>2018-03-13T18:28:50.000Z</time>
</trkpt>
<trkpt lat="31.7900538" lon="35.0524170">
<ele>557.130005</ele>
<time>2018-03-13T18:28:52.000Z</time>
</trkpt>
<trkpt lat="31.7901647" lon="35.0523757">
<ele>556.910034</ele>
<time>2018-03-13T18:28:54.000Z</time>
</trkpt>
<trkpt lat="31.7902765" lon="35.0523344">
<ele>557.139954</ele>
<time>2018-03-13T18:28:56.000Z</time>
</trkpt>
<trkpt lat="31.7903833" lon="35.0522934">
<ele>557.000000</ele>
<time>2018-03-13T18:28:58.000Z</time>
</trkpt>
<trkpt lat="31.7904823" lon="35.0522485">
<ele>556.220032</ele>
<time>2018-03-13T18:29:00.000Z</time>
</trkpt>
<trkpt lat="31.7905705" lon="35.0521977">
<ele>556.849976</ele>
<time>2018-03-13T18:29:02.000Z</time>
</trkpt>
<trkpt lat="31.7906442" lon="35.0520728">
<ele>557.000000</ele>
<time>2018-03-13T18:29:05.000Z</time>
</trkpt>
<trkpt lat="31.7906088" lon="35.0519341">
<ele>555.960022</ele>
<time>2018-03-13T18:29:08.000Z</time>
</trkpt>
<trkpt lat="31.7905550" lon="35.0518452">
<ele>555.290039</ele>
<time>2018-03-13T18:29:10.000Z</time>
</trkpt>
<trkpt lat="31.7904903" lon="35.0517516">
<ele>555.580017</ele>
<time>2018-03-13T18:29:12.000Z</time>
</trkpt>
<trkpt lat="31.7904369" lon="35.0516526">
<ele>555.710022</ele>
<time>2018-03-13T18:29:14.000Z</time>
</trkpt>
<trkpt lat="31.7903999" lon="35.0515446">
<ele>556.000000</ele>
<time>2018-03-13T18:29:16.000Z</time>
</trkpt>
<trkpt lat="31.7903574" lon="35.0514425">
<ele>555.909973</ele>
<time>2018-03-13T18:29:18.000Z</time>
</trkpt>
<trkpt lat="31.7903170" lon="35.0513423">
<ele>555.840027</ele>
<time>2018-03-13T18:29:20.000Z</time>
</trkpt>
<trkpt lat="31.7902776" lon="35.0512362">
<ele>555.160034</ele>
<time>2018-03-13T18:29:22.000Z</time>
</trkpt>
<trkpt lat="31.7902414" lon="35.0511283">
<ele>555.690002</ele>
<time>2018-03-13T18:29:24.000Z</time>
</trkpt>
<trkpt lat="31.7901869" lon="35.0510289">
<ele>555.339966</ele>
<time>2018-03-13T18:29:26.000Z</time>
</trkpt>
<trkpt lat="31.7901002" lon="35.0509399">
<ele>554.130005</ele>
<time>2018-03-13T18:29:28.000Z</time>
</trkpt>
<trkpt lat="31.7900012" lon="35.0508776">
<ele>554.190002</ele>
<time>2018-03-13T18:29:30.000Z</time>
</trkpt>
<trkpt lat="31.7898857" lon="35.0508381">
<ele>553.609985</ele>
<time>2018-03-13T18:29:32.000Z</time>
</trkpt>
<trkpt lat="31.7897716" lon="35.0508205">
<ele>553.250000</ele>
<time>2018-03-13T18:29:34.000Z</time>
</trkpt>
<trkpt lat="31.7896615" lon="35.0507798">
<ele>552.080017</ele>
<time>2018-03-13T18:29:36.000Z</time>
</trkpt>
<trkpt lat="31.7895437" lon="35.0507319">
<ele>552.210022</ele>
<time>2018-03-13T18:29:38.000Z</time>
</trkpt>
<trkpt lat="31.7894276" lon="35.0506752">
<ele>551.309998</ele>
<time>2018-03-13T18:29:40.000Z</time>
</trkpt>
<trkpt lat="31.7893197" lon="35.0506016">
<ele>550.219971</ele>
<time>2018-03-13T18:29:42.000Z</time>
</trkpt>
<trkpt lat="31.7892298" lon="35.0505183">
<ele>549.590027</ele>
<time>2018-03-13T18:29:44.000Z</time>
</trkpt>
<trkpt lat="31.7891636" lon="35.0504283">
<ele>549.200012</ele>
<time>2018-03-13T18:29:46.000Z</time>
</trkpt>
<trkpt lat="31.7891144" lon="35.0503343">
<ele>549.219971</ele>
<time>2018-03-13T18:29:48.000Z</time>
</trkpt>
<trkpt lat="31.7890409" lon="35.0501906">
<ele>549.590027</ele>
<time>2018-03-13T18:29:51.000Z</time>
</trkpt>
<trkpt lat="31.7890051" lon="35.0500748">
<ele>549.380005</ele>
<time>2018-03-13T18:29:53.000Z</time>
</trkpt>
<trkpt lat="31.7889678" lon="35.0499489">
<ele>549.690002</ele>
<time>2018-03-13T18:29:55.000Z</time>
</trkpt>
<trkpt lat="31.7889431" lon="35.0498257">
<ele>549.279968</ele>
<time>2018-03-13T18:29:57.000Z</time>
</trkpt>
<trkpt lat="31.7889513" lon="35.0497013">
<ele>548.789978</ele>
<time>2018-03-13T18:29:59.000Z</time>
</trkpt>
<trkpt lat="31.7889880" lon="35.0495749">
<ele>548.910034</ele>
<time>2018-03-13T18:30:01.000Z</time>
</trkpt>
<trkpt lat="31.7890254" lon="35.0494561">
<ele>549.150024</ele>
<time>2018-03-13T18:30:03.000Z</time>
</trkpt>
<trkpt lat="31.7890556" lon="35.0493349">
<ele>549.150024</ele>
<time>2018-03-13T18:30:05.000Z</time>
</trkpt>
<trkpt lat="31.7890999" lon="35.0492175">
<ele>549.010010</ele>
<time>2018-03-13T18:30:07.000Z</time>
</trkpt>
<trkpt lat="31.7891499" lon="35.0491063">
<ele>548.660034</ele>
<time>2018-03-13T18:30:09.000Z</time>
</trkpt>
<trkpt lat="31.7891838" lon="35.0489969">
<ele>548.960022</ele>
<time>2018-03-13T18:30:11.000Z</time>
</trkpt>
<trkpt lat="31.7892180" lon="35.0488850">
<ele>548.500000</ele>
<time>2018-03-13T18:30:13.000Z</time>
</trkpt>
<trkpt lat="31.7892560" lon="35.0487649">
<ele>548.489990</ele>
<time>2018-03-13T18:30:15.000Z</time>
</trkpt>
<trkpt lat="31.7893063" lon="35.0486492">
<ele>548.419983</ele>
<time>2018-03-13T18:30:17.000Z</time>
</trkpt>
<trkpt lat="31.7893620" lon="35.0485551">
<ele>548.799988</ele>
<time>2018-03-13T18:30:19.000Z</time>
</trkpt>
<trkpt lat="31.7894053" lon="35.0484547">
<ele>548.260010</ele>
<time>2018-03-13T18:30:21.000Z</time>
</trkpt>
<trkpt lat="31.7894483" lon="35.0483575">
<ele>548.849976</ele>
<time>2018-03-13T18:30:23.000Z</time>
</trkpt>
<trkpt lat="31.7894837" lon="35.0482571">
<ele>548.369995</ele>
<time>2018-03-13T18:30:25.000Z</time>
</trkpt>
<trkpt lat="31.7895183" lon="35.0481004">
<ele>548.109985</ele>
<time>2018-03-13T18:30:28.000Z</time>
</trkpt>
<trkpt lat="31.7895503" lon="35.0479623">
<ele>548.910034</ele>
<time>2018-03-13T18:30:31.000Z</time>
</trkpt>
<trkpt lat="31.7895556" lon="35.0478152">
<ele>548.479980</ele>
<time>2018-03-13T18:30:34.000Z</time>
</trkpt>
<trkpt lat="31.7895032" lon="35.0476700">
<ele>548.690002</ele>
<time>2018-03-13T18:30:37.000Z</time>
</trkpt>
<trkpt lat="31.7894301" lon="35.0475301">
<ele>548.350037</ele>
<time>2018-03-13T18:30:40.000Z</time>
</trkpt>
<trkpt lat="31.7893462" lon="35.0474055">
<ele>548.559998</ele>
<time>2018-03-13T18:30:43.000Z</time>
</trkpt>
<trkpt lat="31.7892617" lon="35.0472902">
<ele>549.200012</ele>
<time>2018-03-13T18:30:46.000Z</time>
</trkpt>
<trkpt lat="31.7891629" lon="35.0471748">
<ele>548.559998</ele>
<time>2018-03-13T18:30:49.000Z</time>
</trkpt>
<trkpt lat="31.7890488" lon="35.0470703">
<ele>548.510010</ele>
<time>2018-03-13T18:30:52.000Z</time>
</trkpt>
<trkpt lat="31.7889452" lon="35.0469636">
<ele>548.929993</ele>
<time>2018-03-13T18:30:55.000Z</time>
</trkpt>
<trkpt lat="31.7888435" lon="35.0468611">
<ele>548.750000</ele>
<time>2018-03-13T18:30:58.000Z</time>
</trkpt>
<trkpt lat="31.7887316" lon="35.0467601">
<ele>547.940002</ele>
<time>2018-03-13T18:31:01.000Z</time>
</trkpt>
<trkpt lat="31.7886445" lon="35.0466887">
<ele>547.760010</ele>
<time>2018-03-13T18:31:03.000Z</time>
</trkpt>
<trkpt lat="31.7885590" lon="35.0466130">
<ele>548.010010</ele>
<time>2018-03-13T18:31:05.000Z</time>
</trkpt>
<trkpt lat="31.7884840" lon="35.0465319">
<ele>547.799988</ele>
<time>2018-03-13T18:31:07.000Z</time>
</trkpt>
<trkpt lat="31.7884249" lon="35.0464060">
<ele>549.279968</ele>
<time>2018-03-13T18:31:10.000Z</time>
</trkpt>
<trkpt lat="31.7884316" lon="35.0462924">
<ele>550.549988</ele>
<time>2018-03-13T18:31:13.000Z</time>
</trkpt>
<trkpt lat="31.7884744" lon="35.0461518">
<ele>550.369995</ele>
<time>2018-03-13T18:31:17.000Z</time>
</trkpt>
<trkpt lat="31.7885246" lon="35.0460162">
<ele>549.570007</ele>
<time>2018-03-13T18:31:20.000Z</time>
</trkpt>
<trkpt lat="31.7885797" lon="35.0458731">
<ele>549.229980</ele>
<time>2018-03-13T18:31:23.000Z</time>
</trkpt>
<trkpt lat="31.7886440" lon="35.0457318">
<ele>548.230042</ele>
<time>2018-03-13T18:31:26.000Z</time>
</trkpt>
<trkpt lat="31.7887358" lon="35.0456349">
<ele>548.719971</ele>
<time>2018-03-13T18:31:29.000Z</time>
</trkpt>
<trkpt lat="31.7888034" lon="35.0455665">
<ele>548.619995</ele>
<time>2018-03-13T18:31:31.000Z</time>
</trkpt>
<trkpt lat="31.7888786" lon="35.0454949">
<ele>548.630005</ele>
<time>2018-03-13T18:31:33.000Z</time>
</trkpt>
<trkpt lat="31.7889777" lon="35.0453890">
<ele>549.070007</ele>
<time>2018-03-13T18:31:36.000Z</time>
</trkpt>
<trkpt lat="31.7890472" lon="35.0452904">
<ele>548.630005</ele>
<time>2018-03-13T18:31:39.000Z</time>
</trkpt>
<trkpt lat="31.7891038" lon="35.0452009">
<ele>548.940002</ele>
<time>2018-03-13T18:31:42.000Z</time>
</trkpt>
<trkpt lat="31.7891747" lon="35.0450772">
<ele>548.700012</ele>
<time>2018-03-13T18:31:46.000Z</time>
</trkpt>
<trkpt lat="31.7892389" lon="35.0449538">
<ele>548.619995</ele>
<time>2018-03-13T18:31:49.000Z</time>
</trkpt>
<trkpt lat="31.7892936" lon="35.0448118">
<ele>548.419983</ele>
<time>2018-03-13T18:31:52.000Z</time>
</trkpt>
<trkpt lat="31.7893325" lon="35.0446553">
<ele>548.179993</ele>
<time>2018-03-13T18:31:55.000Z</time>
</trkpt>
<trkpt lat="31.7893598" lon="35.0444967">
<ele>548.049988</ele>
<time>2018-03-13T18:31:58.000Z</time>
</trkpt>
<trkpt lat="31.7894029" lon="35.0443456">
<ele>547.929993</ele>
<time>2018-03-13T18:32:01.000Z</time>
</trkpt>
<trkpt lat="31.7894326" lon="35.0442408">
<ele>547.469971</ele>
<time>2018-03-13T18:32:03.000Z</time>
</trkpt>
<trkpt lat="31.7894662" lon="35.0440845">
<ele>547.419983</ele>
<time>2018-03-13T18:32:06.000Z</time>
</trkpt>
<trkpt lat="31.7894946" lon="35.0439751">
<ele>548.100037</ele>
<time>2018-03-13T18:32:08.000Z</time>
</trkpt>
<trkpt lat="31.7895447" lon="35.0438303">
<ele>548.159973</ele>
<time>2018-03-13T18:32:11.000Z</time>
</trkpt>
<trkpt lat="31.7895799" lon="35.0437198">
<ele>549.150024</ele>
<time>2018-03-13T18:32:14.000Z</time>
</trkpt>
<trkpt lat="31.7896088" lon="35.0435991">
<ele>548.549988</ele>
<time>2018-03-13T18:32:18.000Z</time>
</trkpt>
<trkpt lat="31.7895853" lon="35.0434712">
<ele>547.250000</ele>
<time>2018-03-13T18:32:21.000Z</time>
</trkpt>
<trkpt lat="31.7895501" lon="35.0433560">
<ele>546.890015</ele>
<time>2018-03-13T18:32:23.000Z</time>
</trkpt>
<trkpt lat="31.7895039" lon="35.0432514">
<ele>547.039978</ele>
<time>2018-03-13T18:32:25.000Z</time>
</trkpt>
<trkpt lat="31.7894322" lon="35.0431559">
<ele>546.419983</ele>
<time>2018-03-13T18:32:27.000Z</time>
</trkpt>
<trkpt lat="31.7893447" lon="35.0430818">
<ele>545.070007</ele>
<time>2018-03-13T18:32:29.000Z</time>
</trkpt>
<trkpt lat="31.7892506" lon="35.0430117">
<ele>545.109985</ele>
<time>2018-03-13T18:32:31.000Z</time>
</trkpt>
<trkpt lat="31.7891558" lon="35.0429643">
<ele>544.679993</ele>
<time>2018-03-13T18:32:33.000Z</time>
</trkpt>
<trkpt lat="31.7890658" lon="35.0429190">
<ele>544.559998</ele>
<time>2018-03-13T18:32:35.000Z</time>
</trkpt>
<trkpt lat="31.7889749" lon="35.0428797">
<ele>543.919983</ele>
<time>2018-03-13T18:32:37.000Z</time>
</trkpt>
<trkpt lat="31.7888850" lon="35.0428377">
<ele>543.539978</ele>
<time>2018-03-13T18:32:39.000Z</time>
</trkpt>
<trkpt lat="31.7887964" lon="35.0427882">
<ele>543.580017</ele>
<time>2018-03-13T18:32:41.000Z</time>
</trkpt>
<trkpt lat="31.7887067" lon="35.0427586">
<ele>542.859985</ele>
<time>2018-03-13T18:32:43.000Z</time>
</trkpt>
<trkpt lat="31.7885809" lon="35.0427152">
<ele>543.029968</ele>
<time>2018-03-13T18:32:46.000Z</time>
</trkpt>
<trkpt lat="31.7884672" lon="35.0426362">
<ele>542.369995</ele>
<time>2018-03-13T18:32:49.000Z</time>
</trkpt>
<trkpt lat="31.7883878" lon="35.0425672">
<ele>542.169983</ele>
<time>2018-03-13T18:32:51.000Z</time>
</trkpt>
<trkpt lat="31.7882933" lon="35.0424754">
<ele>541.270020</ele>
<time>2018-03-13T18:32:53.000Z</time>
</trkpt>
<trkpt lat="31.7882016" lon="35.0424083">
<ele>540.600037</ele>
<time>2018-03-13T18:32:55.000Z</time>
</trkpt>
<trkpt lat="31.7881113" lon="35.0423440">
<ele>539.039978</ele>
<time>2018-03-13T18:32:57.000Z</time>
</trkpt>
<trkpt lat="31.7880252" lon="35.0422334">
<ele>539.059998</ele>
<time>2018-03-13T18:32:59.000Z</time>
</trkpt>
<trkpt lat="31.7879582" lon="35.0421145">
<ele>538.500000</ele>
<time>2018-03-13T18:33:01.000Z</time>
</trkpt>
<trkpt lat="31.7879095" lon="35.0419938">
<ele>539.150024</ele>
<time>2018-03-13T18:33:03.000Z</time>
</trkpt>
<trkpt lat="31.7878650" lon="35.0418821">
<ele>539.320007</ele>
<time>2018-03-13T18:33:05.000Z</time>
</trkpt>
<trkpt lat="31.7878274" lon="35.0417718">
<ele>538.929993</ele>
<time>2018-03-13T18:33:07.000Z</time>
</trkpt>
<trkpt lat="31.7878104" lon="35.0416556">
<ele>538.770020</ele>
<time>2018-03-13T18:33:09.000Z</time>
</trkpt>
<trkpt lat="31.7878035" lon="35.0415368">
<ele>538.330017</ele>
<time>2018-03-13T18:33:11.000Z</time>
</trkpt>
<trkpt lat="31.7878018" lon="35.0414106">
<ele>538.760010</ele>
<time>2018-03-13T18:33:13.000Z</time>
</trkpt>
<trkpt lat="31.7878065" lon="35.0412800">
<ele>538.089966</ele>
<time>2018-03-13T18:33:15.000Z</time>
</trkpt>
<trkpt lat="31.7878001" lon="35.0411463">
<ele>537.419983</ele>
<time>2018-03-13T18:33:17.000Z</time>
</trkpt>
<trkpt lat="31.7877819" lon="35.0410097">
<ele>536.799988</ele>
<time>2018-03-13T18:33:19.000Z</time>
</trkpt>
<trkpt lat="31.7877547" lon="35.0408558">
<ele>534.849976</ele>
<time>2018-03-13T18:33:21.000Z</time>
</trkpt>
<trkpt lat="31.7877293" lon="35.0406964">
<ele>534.039978</ele>
<time>2018-03-13T18:33:23.000Z</time>
</trkpt>
<trkpt lat="31.7877039" lon="35.0405415">
<ele>532.890015</ele>
<time>2018-03-13T18:33:25.000Z</time>
</trkpt>
<trkpt lat="31.7876786" lon="35.0403880">
<ele>532.399963</ele>
<time>2018-03-13T18:33:27.000Z</time>
</trkpt>
<trkpt lat="31.7876588" lon="35.0402339">
<ele>531.690002</ele>
<time>2018-03-13T18:33:29.000Z</time>
</trkpt>
<trkpt lat="31.7876372" lon="35.0400787">
<ele>531.349976</ele>
<time>2018-03-13T18:33:31.000Z</time>
</trkpt>
<trkpt lat="31.7876178" lon="35.0399274">
<ele>531.220032</ele>
<time>2018-03-13T18:33:33.000Z</time>
</trkpt>
<trkpt lat="31.7875881" lon="35.0397861">
<ele>530.089966</ele>
<time>2018-03-13T18:33:35.000Z</time>
</trkpt>
<trkpt lat="31.7875531" lon="35.0396537">
<ele>529.989990</ele>
<time>2018-03-13T18:33:37.000Z</time>
</trkpt>
<trkpt lat="31.7875033" lon="35.0395298">
<ele>530.210022</ele>
<time>2018-03-13T18:33:39.000Z</time>
</trkpt>
<trkpt lat="31.7874487" lon="35.0394115">
<ele>529.859985</ele>
<time>2018-03-13T18:33:41.000Z</time>
</trkpt>
<trkpt lat="31.7873976" lon="35.0392866">
<ele>529.220032</ele>
<time>2018-03-13T18:33:43.000Z</time>
</trkpt>
<trkpt lat="31.7873337" lon="35.0391776">
<ele>528.380005</ele>
<time>2018-03-13T18:33:45.000Z</time>
</trkpt>
<trkpt lat="31.7872629" lon="35.0390740">
<ele>528.780029</ele>
<time>2018-03-13T18:33:47.000Z</time>
</trkpt>
<trkpt lat="31.7871817" lon="35.0389744">
<ele>528.450012</ele>
<time>2018-03-13T18:33:49.000Z</time>
</trkpt>
<trkpt lat="31.7870947" lon="35.0388836">
<ele>528.059998</ele>
<time>2018-03-13T18:33:51.000Z</time>
</trkpt>
<trkpt lat="31.7870072" lon="35.0387910">
<ele>527.739990</ele>
<time>2018-03-13T18:33:53.000Z</time>
</trkpt>
<trkpt lat="31.7869372" lon="35.0387060">
<ele>528.729980</ele>
<time>2018-03-13T18:33:55.000Z</time>
</trkpt>
<trkpt lat="31.7868715" lon="35.0386271">
<ele>527.500000</ele>
<time>2018-03-13T18:33:57.000Z</time>
</trkpt>
<trkpt lat="31.7868006" lon="35.0385462">
<ele>528.479980</ele>
<time>2018-03-13T18:33:59.000Z</time>
</trkpt>
<trkpt lat="31.7867311" lon="35.0384655">
<ele>528.080017</ele>
<time>2018-03-13T18:34:01.000Z</time>
</trkpt>
<trkpt lat="31.7866259" lon="35.0383538">
<ele>528.200012</ele>
<time>2018-03-13T18:34:04.000Z</time>
</trkpt>
<trkpt lat="31.7865372" lon="35.0382906">
<ele>528.609985</ele>
<time>2018-03-13T18:34:06.000Z</time>
</trkpt>
<trkpt lat="31.7864398" lon="35.0382275">
<ele>527.470032</ele>
<time>2018-03-13T18:34:08.000Z</time>
</trkpt>
<trkpt lat="31.7863306" lon="35.0381538">
<ele>527.020020</ele>
<time>2018-03-13T18:34:10.000Z</time>
</trkpt>
<trkpt lat="31.7862183" lon="35.0380767">
<ele>526.619995</ele>
<time>2018-03-13T18:34:12.000Z</time>
</trkpt>
<trkpt lat="31.7861084" lon="35.0379972">
<ele>526.460022</ele>
<time>2018-03-13T18:34:14.000Z</time>
</trkpt>
<trkpt lat="31.7859973" lon="35.0379300">
<ele>526.429993</ele>
<time>2018-03-13T18:34:16.000Z</time>
</trkpt>
<trkpt lat="31.7858776" lon="35.0378694">
<ele>525.410034</ele>
<time>2018-03-13T18:34:18.000Z</time>
</trkpt>
<trkpt lat="31.7857582" lon="35.0377989">
<ele>524.630005</ele>
<time>2018-03-13T18:34:20.000Z</time>
</trkpt>
<trkpt lat="31.7856406" lon="35.0377239">
<ele>524.460022</ele>
<time>2018-03-13T18:34:22.000Z</time>
</trkpt>
<trkpt lat="31.7855428" lon="35.0376709">
<ele>525.309998</ele>
<time>2018-03-13T18:34:24.000Z</time>
</trkpt>
<trkpt lat="31.7854501" lon="35.0376206">
<ele>525.010010</ele>
<time>2018-03-13T18:34:26.000Z</time>
</trkpt>
<trkpt lat="31.7853495" lon="35.0375716">
<ele>524.190002</ele>
<time>2018-03-13T18:34:28.000Z</time>
</trkpt>
<trkpt lat="31.7852542" lon="35.0375300">
<ele>524.869995</ele>
<time>2018-03-13T18:34:30.000Z</time>
</trkpt>
<trkpt lat="31.7851681" lon="35.0374920">
<ele>524.900024</ele>
<time>2018-03-13T18:34:32.000Z</time>
</trkpt>
<trkpt lat="31.7850756" lon="35.0374542">
<ele>524.119995</ele>
<time>2018-03-13T18:34:34.000Z</time>
</trkpt>
<trkpt lat="31.7849781" lon="35.0374276">
<ele>523.419983</ele>
<time>2018-03-13T18:34:36.000Z</time>
</trkpt>
<trkpt lat="31.7848745" lon="35.0374143">
<ele>523.650024</ele>
<time>2018-03-13T18:34:38.000Z</time>
</trkpt>
<trkpt lat="31.7847709" lon="35.0373960">
<ele>523.470032</ele>
<time>2018-03-13T18:34:40.000Z</time>
</trkpt>
<trkpt lat="31.7846662" lon="35.0373751">
<ele>523.460022</ele>
<time>2018-03-13T18:34:42.000Z</time>
</trkpt>
<trkpt lat="31.7845382" lon="35.0373680">
<ele>523.599976</ele>
<time>2018-03-13T18:34:45.000Z</time>
</trkpt>
<trkpt lat="31.7844411" lon="35.0373709">
<ele>523.589966</ele>
<time>2018-03-13T18:34:47.000Z</time>
</trkpt>
<trkpt lat="31.7843413" lon="35.0373769">
<ele>523.179993</ele>
<time>2018-03-13T18:34:49.000Z</time>
</trkpt>
<trkpt lat="31.7842429" lon="35.0373820">
<ele>523.130005</ele>
<time>2018-03-13T18:34:51.000Z</time>
</trkpt>
<trkpt lat="31.7841144" lon="35.0373794">
<ele>524.470032</ele>
<time>2018-03-13T18:34:54.000Z</time>
</trkpt>
<trkpt lat="31.7839977" lon="35.0373659">
<ele>524.760010</ele>
<time>2018-03-13T18:34:57.000Z</time>
</trkpt>
<trkpt lat="31.7838861" lon="35.0373615">
<ele>523.739990</ele>
<time>2018-03-13T18:35:00.000Z</time>
</trkpt>
<trkpt lat="31.7837929" lon="35.0373534">
<ele>523.479980</ele>
<time>2018-03-13T18:35:02.000Z</time>
</trkpt>
<trkpt lat="31.7836943" lon="35.0373273">
<ele>523.279968</ele>
<time>2018-03-13T18:35:04.000Z</time>
</trkpt>
<trkpt lat="31.7835874" lon="35.0372804">
<ele>521.450012</ele>
<time>2018-03-13T18:35:06.000Z</time>
</trkpt>
<trkpt lat="31.7834712" lon="35.0372047">
<ele>520.900024</ele>
<time>2018-03-13T18:35:08.000Z</time>
</trkpt>
<trkpt lat="31.7833513" lon="35.0371066">
<ele>520.159973</ele>
<time>2018-03-13T18:35:10.000Z</time>
</trkpt>
<trkpt lat="31.7832360" lon="35.0370013">
<ele>519.280029</ele>
<time>2018-03-13T18:35:12.000Z</time>
</trkpt>
<trkpt lat="31.7831196" lon="35.0369030">
<ele>519.089966</ele>
<time>2018-03-13T18:35:14.000Z</time>
</trkpt>
<trkpt lat="31.7830055" lon="35.0368180">
<ele>519.080017</ele>
<time>2018-03-13T18:35:16.000Z</time>
</trkpt>
<trkpt lat="31.7829101" lon="35.0367407">
<ele>519.020020</ele>
<time>2018-03-13T18:35:18.000Z</time>
</trkpt>
<trkpt lat="31.7828519" lon="35.0366492">
<ele>519.190002</ele>
<time>2018-03-13T18:35:20.000Z</time>
</trkpt>
<trkpt lat="31.7828307" lon="35.0365360">
<ele>519.169983</ele>
<time>2018-03-13T18:35:22.000Z</time>
</trkpt>
<trkpt lat="31.7828352" lon="35.0364147">
<ele>519.369995</ele>
<time>2018-03-13T18:35:24.000Z</time>
</trkpt>
<trkpt lat="31.7828575" lon="35.0362931">
<ele>519.510010</ele>
<time>2018-03-13T18:35:26.000Z</time>
</trkpt>
<trkpt lat="31.7828927" lon="35.0361687">
<ele>519.109985</ele>
<time>2018-03-13T18:35:28.000Z</time>
</trkpt>
<trkpt lat="31.7829362" lon="35.0360385">
<ele>518.450012</ele>
<time>2018-03-13T18:35:30.000Z</time>
</trkpt>
<trkpt lat="31.7829772" lon="35.0359054">
<ele>518.909973</ele>
<time>2018-03-13T18:35:32.000Z</time>
</trkpt>
<trkpt lat="31.7830236" lon="35.0357831">
<ele>518.510010</ele>
<time>2018-03-13T18:35:34.000Z</time>
</trkpt>
<trkpt lat="31.7830671" lon="35.0356698">
<ele>518.650024</ele>
<time>2018-03-13T18:35:36.000Z</time>
</trkpt>
<trkpt lat="31.7830914" lon="35.0355498">
<ele>518.220032</ele>
<time>2018-03-13T18:35:38.000Z</time>
</trkpt>
<trkpt lat="31.7831051" lon="35.0354297">
<ele>518.239990</ele>
<time>2018-03-13T18:35:40.000Z</time>
</trkpt>
<trkpt lat="31.7831235" lon="35.0353122">
<ele>518.049988</ele>
<time>2018-03-13T18:35:42.000Z</time>
</trkpt>
<trkpt lat="31.7831412" lon="35.0351962">
<ele>517.570007</ele>
<time>2018-03-13T18:35:44.000Z</time>
</trkpt>
<trkpt lat="31.7831505" lon="35.0350788">
<ele>516.020020</ele>
<time>2018-03-13T18:35:46.000Z</time>
</trkpt>
<trkpt lat="31.7831323" lon="35.0349495">
<ele>515.529968</ele>
<time>2018-03-13T18:35:48.000Z</time>
</trkpt>
<trkpt lat="31.7830946" lon="35.0348258">
<ele>514.500000</ele>
<time>2018-03-13T18:35:50.000Z</time>
</trkpt>
<trkpt lat="31.7830511" lon="35.0346860">
<ele>513.349976</ele>
<time>2018-03-13T18:35:52.000Z</time>
</trkpt>
<trkpt lat="31.7829951" lon="35.0345542">
<ele>512.260010</ele>
<time>2018-03-13T18:35:54.000Z</time>
</trkpt>
<trkpt lat="31.7829335" lon="35.0344210">
<ele>510.380005</ele>
<time>2018-03-13T18:35:56.000Z</time>
</trkpt>
<trkpt lat="31.7828724" lon="35.0342841">
<ele>510.239990</ele>
<time>2018-03-13T18:35:58.000Z</time>
</trkpt>
<trkpt lat="31.7828201" lon="35.0341318">
<ele>509.109985</ele>
<time>2018-03-13T18:36:00.000Z</time>
</trkpt>
<trkpt lat="31.7827790" lon="35.0339823">
<ele>508.529999</ele>
<time>2018-03-13T18:36:02.000Z</time>
</trkpt>
<trkpt lat="31.7827424" lon="35.0338285">
<ele>507.579987</ele>
<time>2018-03-13T18:36:04.000Z</time>
</trkpt>
<trkpt lat="31.7826973" lon="35.0336801">
<ele>507.650024</ele>
<time>2018-03-13T18:36:06.000Z</time>
</trkpt>
<trkpt lat="31.7826502" lon="35.0335468">
<ele>508.580017</ele>
<time>2018-03-13T18:36:08.000Z</time>
</trkpt>
<trkpt lat="31.7825957" lon="35.0334300">
<ele>507.869995</ele>
<time>2018-03-13T18:36:10.000Z</time>
</trkpt>
<trkpt lat="31.7825349" lon="35.0333198">
<ele>507.309998</ele>
<time>2018-03-13T18:36:12.000Z</time>
</trkpt>
<trkpt lat="31.7824543" lon="35.0332193">
<ele>506.639984</ele>
<time>2018-03-13T18:36:14.000Z</time>
</trkpt>
<trkpt lat="31.7823547" lon="35.0331274">
<ele>506.190002</ele>
<time>2018-03-13T18:36:16.000Z</time>
</trkpt>
<trkpt lat="31.7822432" lon="35.0330352">
<ele>504.900024</ele>
<time>2018-03-13T18:36:18.000Z</time>
</trkpt>
<trkpt lat="31.7821252" lon="35.0329432">
<ele>504.109985</ele>
<time>2018-03-13T18:36:20.000Z</time>
</trkpt>
<trkpt lat="31.7820032" lon="35.0328539">
<ele>503.669983</ele>
<time>2018-03-13T18:36:22.000Z</time>
</trkpt>
<trkpt lat="31.7818960" lon="35.0327713">
<ele>503.660004</ele>
<time>2018-03-13T18:36:24.000Z</time>
</trkpt>
<trkpt lat="31.7818018" lon="35.0326962">
<ele>503.859985</ele>
<time>2018-03-13T18:36:26.000Z</time>
</trkpt>
<trkpt lat="31.7817179" lon="35.0326282">
<ele>504.090027</ele>
<time>2018-03-13T18:36:28.000Z</time>
</trkpt>
<trkpt lat="31.7816260" lon="35.0325731">
<ele>503.600006</ele>
<time>2018-03-13T18:36:30.000Z</time>
</trkpt>
<trkpt lat="31.7815379" lon="35.0325005">
<ele>503.410004</ele>
<time>2018-03-13T18:36:32.000Z</time>
</trkpt>
<trkpt lat="31.7814758" lon="35.0323951">
<ele>502.200012</ele>
<time>2018-03-13T18:36:34.000Z</time>
</trkpt>
<trkpt lat="31.7814386" lon="35.0322653">
<ele>501.980011</ele>
<time>2018-03-13T18:36:36.000Z</time>
</trkpt>
<trkpt lat="31.7814235" lon="35.0321339">
<ele>502.139984</ele>
<time>2018-03-13T18:36:38.000Z</time>
</trkpt>
<trkpt lat="31.7814178" lon="35.0320124">
<ele>501.760010</ele>
<time>2018-03-13T18:36:40.000Z</time>
</trkpt>
<trkpt lat="31.7814178" lon="35.0318943">
<ele>501.520020</ele>
<time>2018-03-13T18:36:42.000Z</time>
</trkpt>
<trkpt lat="31.7814203" lon="35.0317699">
<ele>500.570007</ele>
<time>2018-03-13T18:36:44.000Z</time>
</trkpt>
<trkpt lat="31.7814137" lon="35.0316522">
<ele>500.209991</ele>
<time>2018-03-13T18:36:46.000Z</time>
</trkpt>
<trkpt lat="31.7814047" lon="35.0315286">
<ele>500.039978</ele>
<time>2018-03-13T18:36:48.000Z</time>
</trkpt>
<trkpt lat="31.7813839" lon="35.0313809">
<ele>498.899994</ele>
<time>2018-03-13T18:36:50.000Z</time>
</trkpt>
<trkpt lat="31.7813670" lon="35.0312147">
<ele>498.050018</ele>
<time>2018-03-13T18:36:52.000Z</time>
</trkpt>
<trkpt lat="31.7813833" lon="35.0310695">
<ele>498.040009</ele>
<time>2018-03-13T18:36:54.000Z</time>
</trkpt>
<trkpt lat="31.7814494" lon="35.0309876">
<ele>498.500000</ele>
<time>2018-03-13T18:36:56.000Z</time>
</trkpt>
<trkpt lat="31.7815785" lon="35.0309678">
<ele>499.210022</ele>
<time>2018-03-13T18:36:59.000Z</time>
</trkpt>
<trkpt lat="31.7816863" lon="35.0310056">
<ele>500.269989</ele>
<time>2018-03-13T18:37:02.000Z</time>
</trkpt>
<trkpt lat="31.7817949" lon="35.0310421">
<ele>500.159973</ele>
<time>2018-03-13T18:37:05.000Z</time>
</trkpt>
<trkpt lat="31.7819084" lon="35.0310526">
<ele>500.399994</ele>
<time>2018-03-13T18:37:08.000Z</time>
</trkpt>
<trkpt lat="31.7820314" lon="35.0310541">
<ele>500.500031</ele>
<time>2018-03-13T18:37:11.000Z</time>
</trkpt>
<trkpt lat="31.7821675" lon="35.0310579">
<ele>499.850006</ele>
<time>2018-03-13T18:37:14.000Z</time>
</trkpt>
<trkpt lat="31.7822923" lon="35.0310348">
<ele>499.559967</ele>
<time>2018-03-13T18:37:17.000Z</time>
</trkpt>
<trkpt lat="31.7823803" lon="35.0310001">
<ele>499.900024</ele>
<time>2018-03-13T18:37:19.000Z</time>
</trkpt>
<trkpt lat="31.7824723" lon="35.0309593">
<ele>499.919983</ele>
<time>2018-03-13T18:37:21.000Z</time>
</trkpt>
<trkpt lat="31.7825658" lon="35.0309050">
<ele>499.770020</ele>
<time>2018-03-13T18:37:23.000Z</time>
</trkpt>
<trkpt lat="31.7826596" lon="35.0308289">
<ele>497.989990</ele>
<time>2018-03-13T18:37:25.000Z</time>
</trkpt>
<trkpt lat="31.7827315" lon="35.0307370">
<ele>498.350006</ele>
<time>2018-03-13T18:37:27.000Z</time>
</trkpt>
<trkpt lat="31.7827961" lon="35.0305882">
<ele>498.130005</ele>
<time>2018-03-13T18:37:30.000Z</time>
</trkpt>
<trkpt lat="31.7828252" lon="35.0304726">
<ele>497.790009</ele>
<time>2018-03-13T18:37:32.000Z</time>
</trkpt>
<trkpt lat="31.7828372" lon="35.0303501">
<ele>497.889984</ele>
<time>2018-03-13T18:37:34.000Z</time>
</trkpt>
<trkpt lat="31.7828448" lon="35.0302213">
<ele>497.160004</ele>
<time>2018-03-13T18:37:36.000Z</time>
</trkpt>
<trkpt lat="31.7828419" lon="35.0300834">
<ele>496.990021</ele>
<time>2018-03-13T18:37:38.000Z</time>
</trkpt>
<trkpt lat="31.7828362" lon="35.0299329">
<ele>495.429993</ele>
<time>2018-03-13T18:37:40.000Z</time>
</trkpt>
<trkpt lat="31.7828090" lon="35.0297817">
<ele>496.070007</ele>
<time>2018-03-13T18:37:42.000Z</time>
</trkpt>
<trkpt lat="31.7827814" lon="35.0296340">
<ele>495.429993</ele>
<time>2018-03-13T18:37:44.000Z</time>
</trkpt>
<trkpt lat="31.7827514" lon="35.0294844">
<ele>494.420013</ele>
<time>2018-03-13T18:37:46.000Z</time>
</trkpt>
<trkpt lat="31.7827227" lon="35.0293372">
<ele>493.829987</ele>
<time>2018-03-13T18:37:48.000Z</time>
</trkpt>
<trkpt lat="31.7826946" lon="35.0291920">
<ele>493.229980</ele>
<time>2018-03-13T18:37:50.000Z</time>
</trkpt>
<trkpt lat="31.7826658" lon="35.0290550">
<ele>493.279999</ele>
<time>2018-03-13T18:37:52.000Z</time>
</trkpt>
<trkpt lat="31.7826631" lon="35.0289260">
<ele>492.730011</ele>
<time>2018-03-13T18:37:54.000Z</time>
</trkpt>
<trkpt lat="31.7827085" lon="35.0288003">
<ele>491.059998</ele>
<time>2018-03-13T18:37:56.000Z</time>
</trkpt>
<trkpt lat="31.7827931" lon="35.0286973">
<ele>490.760010</ele>
<time>2018-03-13T18:37:58.000Z</time>
</trkpt>
<trkpt lat="31.7828822" lon="35.0285915">
<ele>490.459991</ele>
<time>2018-03-13T18:38:00.000Z</time>
</trkpt>
<trkpt lat="31.7829848" lon="35.0284828">
<ele>488.920013</ele>
<time>2018-03-13T18:38:02.000Z</time>
</trkpt>
<trkpt lat="31.7830888" lon="35.0283722">
<ele>487.929993</ele>
<time>2018-03-13T18:38:04.000Z</time>
</trkpt>
<trkpt lat="31.7831887" lon="35.0282537">
<ele>487.300018</ele>
<time>2018-03-13T18:38:06.000Z</time>
</trkpt>
<trkpt lat="31.7832823" lon="35.0281754">
<ele>487.050018</ele>
<time>2018-03-13T18:38:08.000Z</time>
</trkpt>
<trkpt lat="31.7833831" lon="35.0281658">
<ele>486.470001</ele>
<time>2018-03-13T18:38:10.000Z</time>
</trkpt>
<trkpt lat="31.7834882" lon="35.0282173">
<ele>485.739990</ele>
<time>2018-03-13T18:38:12.000Z</time>
</trkpt>
<trkpt lat="31.7835981" lon="35.0282988">
<ele>484.610016</ele>
<time>2018-03-13T18:38:14.000Z</time>
</trkpt>
<trkpt lat="31.7837015" lon="35.0283940">
<ele>483.440002</ele>
<time>2018-03-13T18:38:16.000Z</time>
</trkpt>
<trkpt lat="31.7838025" lon="35.0284683">
<ele>482.019989</ele>
<time>2018-03-13T18:38:18.000Z</time>
</trkpt>
<trkpt lat="31.7839105" lon="35.0285032">
<ele>481.660004</ele>
<time>2018-03-13T18:38:20.000Z</time>
</trkpt>
<trkpt lat="31.7840317" lon="35.0285095">
<ele>481.570007</ele>
<time>2018-03-13T18:38:22.000Z</time>
</trkpt>
<trkpt lat="31.7841513" lon="35.0285419">
<ele>481.130005</ele>
<time>2018-03-13T18:38:24.000Z</time>
</trkpt>
<trkpt lat="31.7842616" lon="35.0286136">
<ele>480.630005</ele>
<time>2018-03-13T18:38:26.000Z</time>
</trkpt>
<trkpt lat="31.7843566" lon="35.0287066">
<ele>480.269989</ele>
<time>2018-03-13T18:38:28.000Z</time>
</trkpt>
<trkpt lat="31.7844354" lon="35.0288088">
<ele>480.450012</ele>
<time>2018-03-13T18:38:30.000Z</time>
</trkpt>
<trkpt lat="31.7845101" lon="35.0289075">
<ele>480.000000</ele>
<time>2018-03-13T18:38:32.000Z</time>
</trkpt>
<trkpt lat="31.7845927" lon="35.0290042">
<ele>479.410004</ele>
<time>2018-03-13T18:38:34.000Z</time>
</trkpt>
<trkpt lat="31.7846864" lon="35.0290824">
<ele>478.849976</ele>
<time>2018-03-13T18:38:36.000Z</time>
</trkpt>
<trkpt lat="31.7847865" lon="35.0291253">
<ele>477.980011</ele>
<time>2018-03-13T18:38:38.000Z</time>
</trkpt>
<trkpt lat="31.7848968" lon="35.0291479">
<ele>477.630005</ele>
<time>2018-03-13T18:38:40.000Z</time>
</trkpt>
<trkpt lat="31.7850078" lon="35.0291323">
<ele>476.809998</ele>
<time>2018-03-13T18:38:42.000Z</time>
</trkpt>
<trkpt lat="31.7851271" lon="35.0290878">
<ele>475.739990</ele>
<time>2018-03-13T18:38:44.000Z</time>
</trkpt>
<trkpt lat="31.7852458" lon="35.0290234">
<ele>475.429993</ele>
<time>2018-03-13T18:38:46.000Z</time>
</trkpt>
<trkpt lat="31.7853638" lon="35.0289447">
<ele>474.989990</ele>
<time>2018-03-13T18:38:48.000Z</time>
</trkpt>
<trkpt lat="31.7854918" lon="35.0288763">
<ele>473.390015</ele>
<time>2018-03-13T18:38:50.000Z</time>
</trkpt>
<trkpt lat="31.7856291" lon="35.0288074">
<ele>474.279999</ele>
<time>2018-03-13T18:38:52.000Z</time>
</trkpt>
<trkpt lat="31.7857584" lon="35.0287600">
<ele>472.679993</ele>
<time>2018-03-13T18:38:54.000Z</time>
</trkpt>
<trkpt lat="31.7858716" lon="35.0287457">
<ele>471.690033</ele>
<time>2018-03-13T18:38:56.000Z</time>
</trkpt>
<trkpt lat="31.7859847" lon="35.0287464">
<ele>469.989990</ele>
<time>2018-03-13T18:38:58.000Z</time>
</trkpt>
<trkpt lat="31.7860997" lon="35.0287605">
<ele>468.609985</ele>
<time>2018-03-13T18:39:00.000Z</time>
</trkpt>
<trkpt lat="31.7862161" lon="35.0287645">
<ele>467.480011</ele>
<time>2018-03-13T18:39:02.000Z</time>
</trkpt>
<trkpt lat="31.7863375" lon="35.0287691">
<ele>466.259979</ele>
<time>2018-03-13T18:39:04.000Z</time>
</trkpt>
<trkpt lat="31.7864558" lon="35.0287697">
<ele>465.489990</ele>
<time>2018-03-13T18:39:06.000Z</time>
</trkpt>
<trkpt lat="31.7865662" lon="35.0287890">
<ele>465.559998</ele>
<time>2018-03-13T18:39:08.000Z</time>
</trkpt>
<trkpt lat="31.7866643" lon="35.0288416">
<ele>464.910004</ele>
<time>2018-03-13T18:39:10.000Z</time>
</trkpt>
<trkpt lat="31.7867683" lon="35.0289147">
<ele>464.950012</ele>
<time>2018-03-13T18:39:12.000Z</time>
</trkpt>
<trkpt lat="31.7868756" lon="35.0289924">
<ele>463.890015</ele>
<time>2018-03-13T18:39:14.000Z</time>
</trkpt>
<trkpt lat="31.7869802" lon="35.0290797">
<ele>463.259979</ele>
<time>2018-03-13T18:39:16.000Z</time>
</trkpt>
<trkpt lat="31.7870902" lon="35.0291644">
<ele>462.799988</ele>
<time>2018-03-13T18:39:18.000Z</time>
</trkpt>
<trkpt lat="31.7872003" lon="35.0292399">
<ele>462.610016</ele>
<time>2018-03-13T18:39:20.000Z</time>
</trkpt>
<trkpt lat="31.7873146" lon="35.0293158">
<ele>462.130005</ele>
<time>2018-03-13T18:39:22.000Z</time>
</trkpt>
<trkpt lat="31.7874326" lon="35.0293861">
<ele>462.130005</ele>
<time>2018-03-13T18:39:24.000Z</time>
</trkpt>
<trkpt lat="31.7875519" lon="35.0294580">
<ele>461.119995</ele>
<time>2018-03-13T18:39:26.000Z</time>
</trkpt>
<trkpt lat="31.7876686" lon="35.0295211">
<ele>459.940002</ele>
<time>2018-03-13T18:39:28.000Z</time>
</trkpt>
<trkpt lat="31.7877709" lon="35.0295749">
<ele>459.459991</ele>
<time>2018-03-13T18:39:30.000Z</time>
</trkpt>
<trkpt lat="31.7878743" lon="35.0296289">
<ele>458.649994</ele>
<time>2018-03-13T18:39:32.000Z</time>
</trkpt>
<trkpt lat="31.7879815" lon="35.0296906">
<ele>457.510010</ele>
<time>2018-03-13T18:39:34.000Z</time>
</trkpt>
<trkpt lat="31.7880865" lon="35.0297710">
<ele>457.730011</ele>
<time>2018-03-13T18:39:36.000Z</time>
</trkpt>
<trkpt lat="31.7881919" lon="35.0298626">
<ele>456.669983</ele>
<time>2018-03-13T18:39:38.000Z</time>
</trkpt>
<trkpt lat="31.7882866" lon="35.0299482">
<ele>456.899994</ele>
<time>2018-03-13T18:39:40.000Z</time>
</trkpt>
<trkpt lat="31.7883723" lon="35.0300286">
<ele>456.160004</ele>
<time>2018-03-13T18:39:42.000Z</time>
</trkpt>
<trkpt lat="31.7884554" lon="35.0301083">
<ele>455.910004</ele>
<time>2018-03-13T18:39:44.000Z</time>
</trkpt>
<trkpt lat="31.7885363" lon="35.0301922">
<ele>455.839996</ele>
<time>2018-03-13T18:39:46.000Z</time>
</trkpt>
<trkpt lat="31.7886080" lon="35.0302894">
<ele>455.839996</ele>
<time>2018-03-13T18:39:48.000Z</time>
</trkpt>
<trkpt lat="31.7886613" lon="35.0303839">
<ele>454.799988</ele>
<time>2018-03-13T18:39:50.000Z</time>
</trkpt>
<trkpt lat="31.7887193" lon="35.0304790">
<ele>454.760010</ele>
<time>2018-03-13T18:39:52.000Z</time>
</trkpt>
<trkpt lat="31.7887790" lon="35.0305676">
<ele>454.420013</ele>
<time>2018-03-13T18:39:54.000Z</time>
</trkpt>
<trkpt lat="31.7888854" lon="35.0305940">
<ele>452.640015</ele>
<time>2018-03-13T18:39:57.000Z</time>
</trkpt>
<trkpt lat="31.7889766" lon="35.0304790">
<ele>452.949982</ele>
<time>2018-03-13T18:40:00.000Z</time>
</trkpt>
<trkpt lat="31.7890174" lon="35.0303209">
<ele>453.629974</ele>
<time>2018-03-13T18:40:03.000Z</time>
</trkpt>
<trkpt lat="31.7890276" lon="35.0302012">
<ele>453.000000</ele>
<time>2018-03-13T18:40:05.000Z</time>
</trkpt>
<trkpt lat="31.7890309" lon="35.0300816">
<ele>453.440002</ele>
<time>2018-03-13T18:40:07.000Z</time>
</trkpt>
<trkpt lat="31.7890227" lon="35.0299719">
<ele>454.489990</ele>
<time>2018-03-13T18:40:09.000Z</time>
</trkpt>
<trkpt lat="31.7889884" lon="35.0298090">
<ele>454.589996</ele>
<time>2018-03-13T18:40:12.000Z</time>
</trkpt>
<trkpt lat="31.7889533" lon="35.0296891">
<ele>454.350006</ele>
<time>2018-03-13T18:40:14.000Z</time>
</trkpt>
<trkpt lat="31.7889209" lon="35.0295741">
<ele>454.630005</ele>
<time>2018-03-13T18:40:16.000Z</time>
</trkpt>
<trkpt lat="31.7888916" lon="35.0294628">
<ele>454.329987</ele>
<time>2018-03-13T18:40:18.000Z</time>
</trkpt>
<trkpt lat="31.7888581" lon="35.0293559">
<ele>453.910004</ele>
<time>2018-03-13T18:40:20.000Z</time>
</trkpt>
<trkpt lat="31.7888079" lon="35.0292445">
<ele>453.790009</ele>
<time>2018-03-13T18:40:22.000Z</time>
</trkpt>
<trkpt lat="31.7887575" lon="35.0291288">
<ele>453.240021</ele>
<time>2018-03-13T18:40:24.000Z</time>
</trkpt>
<trkpt lat="31.7887068" lon="35.0290104">
<ele>453.240021</ele>
<time>2018-03-13T18:40:26.000Z</time>
</trkpt>
<trkpt lat="31.7886618" lon="35.0288949">
<ele>452.940033</ele>
<time>2018-03-13T18:40:28.000Z</time>
</trkpt>
<trkpt lat="31.7886146" lon="35.0287843">
<ele>453.280029</ele>
<time>2018-03-13T18:40:30.000Z</time>
</trkpt>
<trkpt lat="31.7885667" lon="35.0286761">
<ele>452.920013</ele>
<time>2018-03-13T18:40:32.000Z</time>
</trkpt>
<trkpt lat="31.7885053" lon="35.0285847">
<ele>452.210022</ele>
<time>2018-03-13T18:40:34.000Z</time>
</trkpt>
<trkpt lat="31.7884419" lon="35.0284992">
<ele>451.539978</ele>
<time>2018-03-13T18:40:36.000Z</time>
</trkpt>
<trkpt lat="31.7883690" lon="35.0284114">
<ele>451.380005</ele>
<time>2018-03-13T18:40:38.000Z</time>
</trkpt>
<trkpt lat="31.7882954" lon="35.0283145">
<ele>451.260010</ele>
<time>2018-03-13T18:40:40.000Z</time>
</trkpt>
<trkpt lat="31.7882228" lon="35.0282235">
<ele>451.160004</ele>
<time>2018-03-13T18:40:42.000Z</time>
</trkpt>
<trkpt lat="31.7881463" lon="35.0281262">
<ele>450.379974</ele>
<time>2018-03-13T18:40:44.000Z</time>
</trkpt>
<trkpt lat="31.7880767" lon="35.0280184">
<ele>449.910004</ele>
<time>2018-03-13T18:40:46.000Z</time>
</trkpt>
<trkpt lat="31.7880010" lon="35.0279111">
<ele>449.500000</ele>
<time>2018-03-13T18:40:48.000Z</time>
</trkpt>
<trkpt lat="31.7879255" lon="35.0278094">
<ele>449.819977</ele>
<time>2018-03-13T18:40:50.000Z</time>
</trkpt>
<trkpt lat="31.7878544" lon="35.0277070">
<ele>449.689972</ele>
<time>2018-03-13T18:40:52.000Z</time>
</trkpt>
<trkpt lat="31.7877806" lon="35.0276040">
<ele>449.179993</ele>
<time>2018-03-13T18:40:54.000Z</time>
</trkpt>
<trkpt lat="31.7877051" lon="35.0275003">
<ele>449.359985</ele>
<time>2018-03-13T18:40:56.000Z</time>
</trkpt>
<trkpt lat="31.7876137" lon="35.0274184">
<ele>448.199982</ele>
<time>2018-03-13T18:40:58.000Z</time>
</trkpt>
<trkpt lat="31.7875118" lon="35.0273451">
<ele>448.199982</ele>
<time>2018-03-13T18:41:00.000Z</time>
</trkpt>
<trkpt lat="31.7874148" lon="35.0272608">
<ele>447.979980</ele>
<time>2018-03-13T18:41:02.000Z</time>
</trkpt>
<trkpt lat="31.7873116" lon="35.0271752">
<ele>447.800018</ele>
<time>2018-03-13T18:41:04.000Z</time>
</trkpt>
<trkpt lat="31.7872091" lon="35.0270804">
<ele>446.589996</ele>
<time>2018-03-13T18:41:06.000Z</time>
</trkpt>
<trkpt lat="31.7871145" lon="35.0269854">
<ele>446.130005</ele>
<time>2018-03-13T18:41:08.000Z</time>
</trkpt>
<trkpt lat="31.7870091" lon="35.0269026">
<ele>445.339996</ele>
<time>2018-03-13T18:41:10.000Z</time>
</trkpt>
<trkpt lat="31.7869150" lon="35.0268299">
<ele>444.670013</ele>
<time>2018-03-13T18:41:12.000Z</time>
</trkpt>
<trkpt lat="31.7868330" lon="35.0267519">
<ele>443.229980</ele>
<time>2018-03-13T18:41:14.000Z</time>
</trkpt>
<trkpt lat="31.7867542" lon="35.0266774">
<ele>442.220001</ele>
<time>2018-03-13T18:41:16.000Z</time>
</trkpt>
<trkpt lat="31.7866745" lon="35.0265975">
<ele>441.479980</ele>
<time>2018-03-13T18:41:18.000Z</time>
</trkpt>
<trkpt lat="31.7865975" lon="35.0265185">
<ele>441.190002</ele>
<time>2018-03-13T18:41:20.000Z</time>
</trkpt>
<trkpt lat="31.7865080" lon="35.0264450">
<ele>439.929993</ele>
<time>2018-03-13T18:41:22.000Z</time>
</trkpt>
<trkpt lat="31.7864146" lon="35.0263719">
<ele>440.229980</ele>
<time>2018-03-13T18:41:24.000Z</time>
</trkpt>
<trkpt lat="31.7863187" lon="35.0262945">
<ele>438.850006</ele>
<time>2018-03-13T18:41:26.000Z</time>
</trkpt>
<trkpt lat="31.7862195" lon="35.0262208">
<ele>438.699982</ele>
<time>2018-03-13T18:41:28.000Z</time>
</trkpt>
<trkpt lat="31.7861279" lon="35.0261437">
<ele>437.650024</ele>
<time>2018-03-13T18:41:30.000Z</time>
</trkpt>
<trkpt lat="31.7860343" lon="35.0260583">
<ele>436.630005</ele>
<time>2018-03-13T18:41:32.000Z</time>
</trkpt>
<trkpt lat="31.7859312" lon="35.0259808">
<ele>436.690002</ele>
<time>2018-03-13T18:41:34.000Z</time>
</trkpt>
<trkpt lat="31.7858379" lon="35.0258942">
<ele>435.800018</ele>
<time>2018-03-13T18:41:36.000Z</time>
</trkpt>
<trkpt lat="31.7857623" lon="35.0257888">
<ele>435.640015</ele>
<time>2018-03-13T18:41:38.000Z</time>
</trkpt>
<trkpt lat="31.7857018" lon="35.0256747">
<ele>436.049988</ele>
<time>2018-03-13T18:41:40.000Z</time>
</trkpt>
<trkpt lat="31.7856582" lon="35.0255465">
<ele>434.640015</ele>
<time>2018-03-13T18:41:42.000Z</time>
</trkpt>
<trkpt lat="31.7856265" lon="35.0254098">
<ele>435.279999</ele>
<time>2018-03-13T18:41:44.000Z</time>
</trkpt>
<trkpt lat="31.7855900" lon="35.0252695">
<ele>434.649994</ele>
<time>2018-03-13T18:41:46.000Z</time>
</trkpt>
<trkpt lat="31.7855562" lon="35.0251217">
<ele>434.380005</ele>
<time>2018-03-13T18:41:48.000Z</time>
</trkpt>
<trkpt lat="31.7855292" lon="35.0249694">
<ele>434.309998</ele>
<time>2018-03-13T18:41:50.000Z</time>
</trkpt>
<trkpt lat="31.7855032" lon="35.0248185">
<ele>434.160004</ele>
<time>2018-03-13T18:41:52.000Z</time>
</trkpt>
<trkpt lat="31.7854769" lon="35.0246694">
<ele>433.370026</ele>
<time>2018-03-13T18:41:54.000Z</time>
</trkpt>
<trkpt lat="31.7854484" lon="35.0245255">
<ele>432.850006</ele>
<time>2018-03-13T18:41:56.000Z</time>
</trkpt>
<trkpt lat="31.7854190" lon="35.0243833">
<ele>432.149994</ele>
<time>2018-03-13T18:41:58.000Z</time>
</trkpt>
<trkpt lat="31.7853872" lon="35.0242464">
<ele>431.600006</ele>
<time>2018-03-13T18:42:00.000Z</time>
</trkpt>
<trkpt lat="31.7853559" lon="35.0241129">
<ele>431.989990</ele>
<time>2018-03-13T18:42:02.000Z</time>
</trkpt>
<trkpt lat="31.7853336" lon="35.0239960">
<ele>431.409973</ele>
<time>2018-03-13T18:42:04.000Z</time>
</trkpt>
<trkpt lat="31.7853031" lon="35.0238754">
<ele>431.069977</ele>
<time>2018-03-13T18:42:06.000Z</time>
</trkpt>
<trkpt lat="31.7852490" lon="35.0237602">
<ele>430.899994</ele>
<time>2018-03-13T18:42:08.000Z</time>
</trkpt>
<trkpt lat="31.7851900" lon="35.0236517">
<ele>430.910004</ele>
<time>2018-03-13T18:42:10.000Z</time>
</trkpt>
<trkpt lat="31.7851231" lon="35.0235495">
<ele>430.690002</ele>
<time>2018-03-13T18:42:12.000Z</time>
</trkpt>
<trkpt lat="31.7850474" lon="35.0234489">
<ele>430.120026</ele>
<time>2018-03-13T18:42:14.000Z</time>
</trkpt>
<trkpt lat="31.7849556" lon="35.0233558">
<ele>429.809998</ele>
<time>2018-03-13T18:42:16.000Z</time>
</trkpt>
<trkpt lat="31.7848614" lon="35.0232795">
<ele>430.100006</ele>
<time>2018-03-13T18:42:18.000Z</time>
</trkpt>
<trkpt lat="31.7847891" lon="35.0231976">
<ele>429.699982</ele>
<time>2018-03-13T18:42:20.000Z</time>
</trkpt>
<trkpt lat="31.7847201" lon="35.0231290">
<ele>430.220001</ele>
<time>2018-03-13T18:42:22.000Z</time>
</trkpt>
<trkpt lat="31.7846102" lon="35.0230278">
<ele>429.990021</ele>
<time>2018-03-13T18:42:25.000Z</time>
</trkpt>
<trkpt lat="31.7845139" lon="35.0229272">
<ele>431.100006</ele>
<time>2018-03-13T18:42:28.000Z</time>
</trkpt>
<trkpt lat="31.7844097" lon="35.0228237">
<ele>431.140015</ele>
<time>2018-03-13T18:42:31.000Z</time>
</trkpt>
<trkpt lat="31.7843338" lon="35.0227404">
<ele>430.169983</ele>
<time>2018-03-13T18:42:33.000Z</time>
</trkpt>
<trkpt lat="31.7842648" lon="35.0226281">
<ele>430.179993</ele>
<time>2018-03-13T18:42:35.000Z</time>
</trkpt>
<trkpt lat="31.7842373" lon="35.0225162">
<ele>430.000000</ele>
<time>2018-03-13T18:42:37.000Z</time>
</trkpt>
<trkpt lat="31.7842589" lon="35.0224102">
<ele>428.450012</ele>
<time>2018-03-13T18:42:39.000Z</time>
</trkpt>
<trkpt lat="31.7843038" lon="35.0223119">
<ele>428.629974</ele>
<time>2018-03-13T18:42:41.000Z</time>
</trkpt>
<trkpt lat="31.7843653" lon="35.0222278">
<ele>428.979980</ele>
<time>2018-03-13T18:42:43.000Z</time>
</trkpt>
<trkpt lat="31.7844357" lon="35.0221365">
<ele>428.549988</ele>
<time>2018-03-13T18:42:45.000Z</time>
</trkpt>
<trkpt lat="31.7845059" lon="35.0220544">
<ele>429.190002</ele>
<time>2018-03-13T18:42:47.000Z</time>
</trkpt>
<trkpt lat="31.7845833" lon="35.0219905">
<ele>429.410004</ele>
<time>2018-03-13T18:42:49.000Z</time>
</trkpt>
<trkpt lat="31.7846617" lon="35.0219379">
<ele>429.410004</ele>
<time>2018-03-13T18:42:51.000Z</time>
</trkpt>
<trkpt lat="31.7847504" lon="35.0218864">
<ele>429.300018</ele>
<time>2018-03-13T18:42:54.000Z</time>
</trkpt>
<trkpt lat="31.7848439" lon="35.0218435">
<ele>430.410004</ele>
<time>2018-03-13T18:42:58.000Z</time>
</trkpt>
<trkpt lat="31.7849517" lon="35.0218003">
<ele>430.330017</ele>
<time>2018-03-13T18:43:02.000Z</time>
</trkpt>
<trkpt lat="31.7850609" lon="35.0217734">
<ele>430.540009</ele>
<time>2018-03-13T18:43:05.000Z</time>
</trkpt>
<trkpt lat="31.7851612" lon="35.0217414">
<ele>431.130005</ele>
<time>2018-03-13T18:43:08.000Z</time>
</trkpt>
<trkpt lat="31.7852585" lon="35.0217095">
<ele>430.970001</ele>
<time>2018-03-13T18:43:11.000Z</time>
</trkpt>
<trkpt lat="31.7853615" lon="35.0216558">
<ele>430.619995</ele>
<time>2018-03-13T18:43:14.000Z</time>
</trkpt>
<trkpt lat="31.7854697" lon="35.0215892">
<ele>430.509979</ele>
<time>2018-03-13T18:43:17.000Z</time>
</trkpt>
<trkpt lat="31.7855510" lon="35.0215553">
<ele>430.299988</ele>
<time>2018-03-13T18:43:19.000Z</time>
</trkpt>
<trkpt lat="31.7856660" lon="35.0215181">
<ele>430.619995</ele>
<time>2018-03-13T18:43:22.000Z</time>
</trkpt>
<trkpt lat="31.7857608" lon="35.0214589">
<ele>429.730011</ele>
<time>2018-03-13T18:43:25.000Z</time>
</trkpt>
<trkpt lat="31.7858562" lon="35.0213678">
<ele>429.500000</ele>
<time>2018-03-13T18:43:28.000Z</time>
</trkpt>
<trkpt lat="31.7859353" lon="35.0213027">
<ele>429.010010</ele>
<time>2018-03-13T18:43:30.000Z</time>
</trkpt>
<trkpt lat="31.7860359" lon="35.0212009">
<ele>428.280029</ele>
<time>2018-03-13T18:43:33.000Z</time>
</trkpt>
<trkpt lat="31.7861348" lon="35.0210817">
<ele>427.649994</ele>
<time>2018-03-13T18:43:36.000Z</time>
</trkpt>
<trkpt lat="31.7862065" lon="35.0210140">
<ele>427.340027</ele>
<time>2018-03-13T18:43:38.000Z</time>
</trkpt>
<trkpt lat="31.7862895" lon="35.0208790">
<ele>426.839996</ele>
<time>2018-03-13T18:43:41.000Z</time>
</trkpt>
<trkpt lat="31.7863472" lon="35.0207775">
<ele>426.449982</ele>
<time>2018-03-13T18:43:43.000Z</time>
</trkpt>
<trkpt lat="31.7864135" lon="35.0206914">
<ele>425.889984</ele>
<time>2018-03-13T18:43:45.000Z</time>
</trkpt>
<trkpt lat="31.7865160" lon="35.0206021">
<ele>424.420013</ele>
<time>2018-03-13T18:43:48.000Z</time>
</trkpt>
<trkpt lat="31.7865914" lon="35.0205316">
<ele>423.740021</ele>
<time>2018-03-13T18:43:50.000Z</time>
</trkpt>
<trkpt lat="31.7866720" lon="35.0204468">
<ele>422.899994</ele>
<time>2018-03-13T18:43:52.000Z</time>
</trkpt>
<trkpt lat="31.7867785" lon="35.0203846">
<ele>421.630005</ele>
<time>2018-03-13T18:43:54.000Z</time>
</trkpt>
<trkpt lat="31.7868890" lon="35.0203307">
<ele>421.279999</ele>
<time>2018-03-13T18:43:56.000Z</time>
</trkpt>
<trkpt lat="31.7869796" lon="35.0203115">
<ele>421.040009</ele>
<time>2018-03-13T18:43:58.000Z</time>
</trkpt>
<trkpt lat="31.7871093" lon="35.0203473">
<ele>418.860016</ele>
<time>2018-03-13T18:44:01.000Z</time>
</trkpt>
<trkpt lat="31.7871915" lon="35.0204068">
<ele>418.470001</ele>
<time>2018-03-13T18:44:03.000Z</time>
</trkpt>
<trkpt lat="31.7872682" lon="35.0204930">
<ele>417.239990</ele>
<time>2018-03-13T18:44:05.000Z</time>
</trkpt>
<trkpt lat="31.7873367" lon="35.0205790">
<ele>417.250000</ele>
<time>2018-03-13T18:44:07.000Z</time>
</trkpt>
<trkpt lat="31.7874178" lon="35.0206677">
<ele>416.070007</ele>
<time>2018-03-13T18:44:09.000Z</time>
</trkpt>
<trkpt lat="31.7875173" lon="35.0207474">
<ele>415.459991</ele>
<time>2018-03-13T18:44:11.000Z</time>
</trkpt>
<trkpt lat="31.7876237" lon="35.0208157">
<ele>415.010010</ele>
<time>2018-03-13T18:44:13.000Z</time>
</trkpt>
<trkpt lat="31.7877297" lon="35.0208647">
<ele>414.289978</ele>
<time>2018-03-13T18:44:15.000Z</time>
</trkpt>
<trkpt lat="31.7878520" lon="35.0209044">
<ele>413.720001</ele>
<time>2018-03-13T18:44:17.000Z</time>
</trkpt>
<trkpt lat="31.7879754" lon="35.0209295">
<ele>413.110016</ele>
<time>2018-03-13T18:44:19.000Z</time>
</trkpt>
<trkpt lat="31.7880856" lon="35.0209490">
<ele>413.220001</ele>
<time>2018-03-13T18:44:21.000Z</time>
</trkpt>
<trkpt lat="31.7881949" lon="35.0209634">
<ele>412.980011</ele>
<time>2018-03-13T18:44:23.000Z</time>
</trkpt>
<trkpt lat="31.7883082" lon="35.0209586">
<ele>411.970032</ele>
<time>2018-03-13T18:44:25.000Z</time>
</trkpt>
<trkpt lat="31.7884140" lon="35.0209119">
<ele>412.040009</ele>
<time>2018-03-13T18:44:27.000Z</time>
</trkpt>
<trkpt lat="31.7885078" lon="35.0208340">
<ele>411.509979</ele>
<time>2018-03-13T18:44:29.000Z</time>
</trkpt>
<trkpt lat="31.7885806" lon="35.0207197">
<ele>410.540009</ele>
<time>2018-03-13T18:44:31.000Z</time>
</trkpt>
<trkpt lat="31.7886321" lon="35.0205765">
<ele>409.380005</ele>
<time>2018-03-13T18:44:33.000Z</time>
</trkpt>
<trkpt lat="31.7886648" lon="35.0204182">
<ele>409.570007</ele>
<time>2018-03-13T18:44:35.000Z</time>
</trkpt>
<trkpt lat="31.7886923" lon="35.0202484">
<ele>407.860016</ele>
<time>2018-03-13T18:44:37.000Z</time>
</trkpt>
<trkpt lat="31.7887354" lon="35.0200678">
<ele>406.289978</ele>
<time>2018-03-13T18:44:39.000Z</time>
</trkpt>
<trkpt lat="31.7887936" lon="35.0198962">
<ele>405.469971</ele>
<time>2018-03-13T18:44:41.000Z</time>
</trkpt>
<trkpt lat="31.7888585" lon="35.0197537">
<ele>404.699982</ele>
<time>2018-03-13T18:44:43.000Z</time>
</trkpt>
<trkpt lat="31.7889460" lon="35.0196599">
<ele>403.820007</ele>
<time>2018-03-13T18:44:45.000Z</time>
</trkpt>
<trkpt lat="31.7890658" lon="35.0195853">
<ele>401.940002</ele>
<time>2018-03-13T18:44:47.000Z</time>
</trkpt>
<trkpt lat="31.7892128" lon="35.0195220">
<ele>401.520020</ele>
<time>2018-03-13T18:44:49.000Z</time>
</trkpt>
<trkpt lat="31.7893758" lon="35.0194631">
<ele>399.739990</ele>
<time>2018-03-13T18:44:51.000Z</time>
</trkpt>
<trkpt lat="31.7895397" lon="35.0194047">
<ele>399.619995</ele>
<time>2018-03-13T18:44:53.000Z</time>
</trkpt>
<trkpt lat="31.7897031" lon="35.0193391">
<ele>398.539978</ele>
<time>2018-03-13T18:44:55.000Z</time>
</trkpt>
<trkpt lat="31.7898643" lon="35.0192784">
<ele>396.660004</ele>
<time>2018-03-13T18:44:57.000Z</time>
</trkpt>
<trkpt lat="31.7900147" lon="35.0192137">
<ele>395.209991</ele>
<time>2018-03-13T18:44:59.000Z</time>
</trkpt>
<trkpt lat="31.7901539" lon="35.0191636">
<ele>393.399994</ele>
<time>2018-03-13T18:45:01.000Z</time>
</trkpt>
<trkpt lat="31.7902980" lon="35.0191427">
<ele>391.880005</ele>
<time>2018-03-13T18:45:03.000Z</time>
</trkpt>
<trkpt lat="31.7904623" lon="35.0191550">
<ele>390.099976</ele>
<time>2018-03-13T18:45:05.000Z</time>
</trkpt>
<trkpt lat="31.7906371" lon="35.0192056">
<ele>387.889984</ele>
<time>2018-03-13T18:45:07.000Z</time>
</trkpt>
<trkpt lat="31.7907983" lon="35.0192696">
<ele>386.140015</ele>
<time>2018-03-13T18:45:09.000Z</time>
</trkpt>
<trkpt lat="31.7909445" lon="35.0193239">
<ele>385.779999</ele>
<time>2018-03-13T18:45:11.000Z</time>
</trkpt>
<trkpt lat="31.7910834" lon="35.0193497">
<ele>384.300018</ele>
<time>2018-03-13T18:45:13.000Z</time>
</trkpt>
<trkpt lat="31.7912312" lon="35.0193667">
<ele>382.540009</ele>
<time>2018-03-13T18:45:15.000Z</time>
</trkpt>
<trkpt lat="31.7913758" lon="35.0193730">
<ele>381.830017</ele>
<time>2018-03-13T18:45:17.000Z</time>
</trkpt>
<trkpt lat="31.7915226" lon="35.0193751">
<ele>381.629974</ele>
<time>2018-03-13T18:45:19.000Z</time>
</trkpt>
<trkpt lat="31.7916693" lon="35.0193755">
<ele>380.820007</ele>
<time>2018-03-13T18:45:21.000Z</time>
</trkpt>
<trkpt lat="31.7918210" lon="35.0193701">
<ele>380.230011</ele>
<time>2018-03-13T18:45:23.000Z</time>
</trkpt>
<trkpt lat="31.7919769" lon="35.0193729">
<ele>379.210022</ele>
<time>2018-03-13T18:45:25.000Z</time>
</trkpt>
<trkpt lat="31.7921142" lon="35.0193788">
<ele>378.119995</ele>
<time>2018-03-13T18:45:27.000Z</time>
</trkpt>
<trkpt lat="31.7922285" lon="35.0193520">
<ele>377.599976</ele>
<time>2018-03-13T18:45:29.000Z</time>
</trkpt>
<trkpt lat="31.7923500" lon="35.0192937">
<ele>377.160004</ele>
<time>2018-03-13T18:45:31.000Z</time>
</trkpt>
<trkpt lat="31.7924745" lon="35.0192138">
<ele>375.280029</ele>
<time>2018-03-13T18:45:33.000Z</time>
</trkpt>
<trkpt lat="31.7925755" lon="35.0191162">
<ele>373.480011</ele>
<time>2018-03-13T18:45:35.000Z</time>
</trkpt>
<trkpt lat="31.7926371" lon="35.0189983">
<ele>372.779999</ele>
<time>2018-03-13T18:45:37.000Z</time>
</trkpt>
<trkpt lat="31.7926480" lon="35.0188564">
<ele>371.529999</ele>
<time>2018-03-13T18:45:39.000Z</time>
</trkpt>
<trkpt lat="31.7925945" lon="35.0187099">
<ele>371.269989</ele>
<time>2018-03-13T18:45:41.000Z</time>
</trkpt>
<trkpt lat="31.7925215" lon="35.0185585">
<ele>370.209991</ele>
<time>2018-03-13T18:45:43.000Z</time>
</trkpt>
<trkpt lat="31.7924617" lon="35.0183902">
<ele>368.439972</ele>
<time>2018-03-13T18:45:45.000Z</time>
</trkpt>
<trkpt lat="31.7924037" lon="35.0182245">
<ele>367.350006</ele>
<time>2018-03-13T18:45:47.000Z</time>
</trkpt>
<trkpt lat="31.7923457" lon="35.0180539">
<ele>365.869995</ele>
<time>2018-03-13T18:45:49.000Z</time>
</trkpt>
<trkpt lat="31.7922813" lon="35.0178771">
<ele>363.859985</ele>
<time>2018-03-13T18:45:51.000Z</time>
</trkpt>
<trkpt lat="31.7921993" lon="35.0177150">
<ele>362.679993</ele>
<time>2018-03-13T18:45:53.000Z</time>
</trkpt>
<trkpt lat="31.7921487" lon="35.0175717">
<ele>361.859985</ele>
<time>2018-03-13T18:45:55.000Z</time>
</trkpt>
<trkpt lat="31.7921356" lon="35.0174231">
<ele>361.049988</ele>
<time>2018-03-13T18:45:57.000Z</time>
</trkpt>
<trkpt lat="31.7921282" lon="35.0172511">
<ele>359.369995</ele>
<time>2018-03-13T18:45:59.000Z</time>
</trkpt>
<trkpt lat="31.7921227" lon="35.0170615">
<ele>358.519989</ele>
<time>2018-03-13T18:46:01.000Z</time>
</trkpt>
<trkpt lat="31.7921100" lon="35.0168617">
<ele>357.369995</ele>
<time>2018-03-13T18:46:03.000Z</time>
</trkpt>
<trkpt lat="31.7921048" lon="35.0166841">
<ele>355.869995</ele>
<time>2018-03-13T18:46:05.000Z</time>
</trkpt>
<trkpt lat="31.7921100" lon="35.0165241">
<ele>355.160004</ele>
<time>2018-03-13T18:46:07.000Z</time>
</trkpt>
<trkpt lat="31.7921246" lon="35.0163621">
<ele>354.660004</ele>
<time>2018-03-13T18:46:09.000Z</time>
</trkpt>
<trkpt lat="31.7921449" lon="35.0162083">
<ele>354.019989</ele>
<time>2018-03-13T18:46:11.000Z</time>
</trkpt>
<trkpt lat="31.7921810" lon="35.0160618">
<ele>352.179993</ele>
<time>2018-03-13T18:46:13.000Z</time>
</trkpt>
<trkpt lat="31.7922463" lon="35.0159312">
<ele>351.350006</ele>
<time>2018-03-13T18:46:15.000Z</time>
</trkpt>
<trkpt lat="31.7923306" lon="35.0158058">
<ele>349.229980</ele>
<time>2018-03-13T18:46:17.000Z</time>
</trkpt>
<trkpt lat="31.7924155" lon="35.0157046">
<ele>348.390015</ele>
<time>2018-03-13T18:46:19.000Z</time>
</trkpt>
<trkpt lat="31.7925154" lon="35.0156455">
<ele>347.490021</ele>
<time>2018-03-13T18:46:21.000Z</time>
</trkpt>
<trkpt lat="31.7926176" lon="35.0156103">
<ele>347.110016</ele>
<time>2018-03-13T18:46:23.000Z</time>
</trkpt>
<trkpt lat="31.7927192" lon="35.0155521">
<ele>344.979980</ele>
<time>2018-03-13T18:46:26.000Z</time>
</trkpt>
<trkpt lat="31.7927571" lon="35.0154547">
<ele>343.860016</ele>
<time>2018-03-13T18:46:30.000Z</time>
</trkpt>
<trkpt lat="31.7926990" lon="35.0153645">
<ele>342.270020</ele>
<time>2018-03-13T18:47:02.000Z</time>
</trkpt>
<trkpt lat="31.7926115" lon="35.0153008">
<ele>339.929993</ele>
<time>2018-03-13T18:47:05.000Z</time>
</trkpt>
<trkpt lat="31.7925286" lon="35.0152434">
<ele>338.640015</ele>
<time>2018-03-13T18:47:07.000Z</time>
</trkpt>
<trkpt lat="31.7924381" lon="35.0151951">
<ele>336.429993</ele>
<time>2018-03-13T18:47:09.000Z</time>
</trkpt>
<trkpt lat="31.7923248" lon="35.0151307">
<ele>334.959991</ele>
<time>2018-03-13T18:47:12.000Z</time>
</trkpt>
<trkpt lat="31.7922355" lon="35.0150299">
<ele>331.490021</ele>
<time>2018-03-13T18:47:15.000Z</time>
</trkpt>
<trkpt lat="31.7921204" lon="35.0149276">
<ele>329.059998</ele>
<time>2018-03-13T18:47:18.000Z</time>
</trkpt>
<trkpt lat="31.7920173" lon="35.0148671">
<ele>326.300018</ele>
<time>2018-03-13T18:47:20.000Z</time>
</trkpt>
<trkpt lat="31.7918913" lon="35.0148232">
<ele>324.630005</ele>
<time>2018-03-13T18:47:22.000Z</time>
</trkpt>
<trkpt lat="31.7917649" lon="35.0147917">
<ele>321.450012</ele>
<time>2018-03-13T18:47:24.000Z</time>
</trkpt>
<trkpt lat="31.7916317" lon="35.0147539">
<ele>320.069977</ele>
<time>2018-03-13T18:47:26.000Z</time>
</trkpt>
<trkpt lat="31.7914657" lon="35.0147308">
<ele>317.649994</ele>
<time>2018-03-13T18:47:28.000Z</time>
</trkpt>
<trkpt lat="31.7913254" lon="35.0147170">
<ele>315.359985</ele>
<time>2018-03-13T18:47:30.000Z</time>
</trkpt>
<trkpt lat="31.7912391" lon="35.0146740">
<ele>315.459991</ele>
<time>2018-03-13T18:47:32.000Z</time>
</trkpt>
<trkpt lat="31.7911678" lon="35.0146040">
<ele>315.220001</ele>
<time>2018-03-13T18:47:34.000Z</time>
</trkpt>
<trkpt lat="31.7910904" lon="35.0145288">
<ele>315.500000</ele>
<time>2018-03-13T18:47:36.000Z</time>
</trkpt>
<trkpt lat="31.7909936" lon="35.0144793">
<ele>315.180023</ele>
<time>2018-03-13T18:47:38.000Z</time>
</trkpt>
<trkpt lat="31.7908852" lon="35.0144495">
<ele>315.459991</ele>
<time>2018-03-13T18:47:40.000Z</time>
</trkpt>
<trkpt lat="31.7907850" lon="35.0144234">
<ele>316.089996</ele>
<time>2018-03-13T18:47:42.000Z</time>
</trkpt>
<trkpt lat="31.7906972" lon="35.0144014">
<ele>316.769989</ele>
<time>2018-03-13T18:47:44.000Z</time>
</trkpt>
<trkpt lat="31.7905695" lon="35.0143686">
<ele>317.529999</ele>
<time>2018-03-13T18:47:47.000Z</time>
</trkpt>
<trkpt lat="31.7904560" lon="35.0143483">
<ele>318.990021</ele>
<time>2018-03-13T18:47:50.000Z</time>
</trkpt>
<trkpt lat="31.7903556" lon="35.0143617">
<ele>319.529999</ele>
<time>2018-03-13T18:47:53.000Z</time>
</trkpt>
<trkpt lat="31.7902581" lon="35.0143814">
<ele>320.669983</ele>
<time>2018-03-13T18:47:57.000Z</time>
</trkpt>
<trkpt lat="31.7901684" lon="35.0143844">
<ele>321.019989</ele>
<time>2018-03-13T18:48:02.000Z</time>
</trkpt>
<trkpt lat="31.7900784" lon="35.0143874">
<ele>320.559998</ele>
<time>2018-03-13T18:48:06.000Z</time>
</trkpt>
<trkpt lat="31.7899778" lon="35.0143854">
<ele>320.640015</ele>
<time>2018-03-13T18:48:09.000Z</time>
</trkpt>
<trkpt lat="31.7898480" lon="35.0143661">
<ele>319.529999</ele>
<time>2018-03-13T18:48:12.000Z</time>
</trkpt>
<trkpt lat="31.7897483" lon="35.0143308">
<ele>318.589996</ele>
<time>2018-03-13T18:48:14.000Z</time>
</trkpt>
<trkpt lat="31.7896416" lon="35.0142825">
<ele>316.729980</ele>
<time>2018-03-13T18:48:16.000Z</time>
</trkpt>
<trkpt lat="31.7895405" lon="35.0142475">
<ele>314.649994</ele>
<time>2018-03-13T18:48:18.000Z</time>
</trkpt>
<trkpt lat="31.7894313" lon="35.0142196">
<ele>312.679993</ele>
<time>2018-03-13T18:48:20.000Z</time>
</trkpt>
<trkpt lat="31.7893160" lon="35.0141976">
<ele>310.520020</ele>
<time>2018-03-13T18:48:22.000Z</time>
</trkpt>
<trkpt lat="31.7891903" lon="35.0141824">
<ele>308.739990</ele>
<time>2018-03-13T18:48:24.000Z</time>
</trkpt>
<trkpt lat="31.7890282" lon="35.0141693">
<ele>305.820007</ele>
<time>2018-03-13T18:48:26.000Z</time>
</trkpt>
<trkpt lat="31.7889360" lon="35.0141570">
<ele>304.660004</ele>
<time>2018-03-13T18:48:27.000Z</time>
</trkpt>
<trkpt lat="31.7887513" lon="35.0141238">
<ele>303.679993</ele>
<time>2018-03-13T18:48:29.000Z</time>
</trkpt>
<trkpt lat="31.7886611" lon="35.0141104">
<ele>303.330017</ele>
<time>2018-03-13T18:48:30.000Z</time>
</trkpt>
<trkpt lat="31.7885026" lon="35.0140990">
<ele>303.610016</ele>
<time>2018-03-13T18:48:32.000Z</time>
</trkpt>
<trkpt lat="31.7883847" lon="35.0141063">
<ele>304.750000</ele>
<time>2018-03-13T18:48:34.000Z</time>
</trkpt>
<trkpt lat="31.7882886" lon="35.0141088">
<ele>305.410004</ele>
<time>2018-03-13T18:48:36.000Z</time>
</trkpt>
<trkpt lat="31.7881633" lon="35.0141037">
<ele>306.050018</ele>
<time>2018-03-13T18:48:39.000Z</time>
</trkpt>
<trkpt lat="31.7880692" lon="35.0140917">
<ele>306.649994</ele>
<time>2018-03-13T18:48:41.000Z</time>
</trkpt>
<trkpt lat="31.7879589" lon="35.0140865">
<ele>305.790009</ele>
<time>2018-03-13T18:48:43.000Z</time>
</trkpt>
<trkpt lat="31.7878423" lon="35.0140830">
<ele>304.940002</ele>
<time>2018-03-13T18:48:45.000Z</time>
</trkpt>
<trkpt lat="31.7877209" lon="35.0140802">
<ele>304.250000</ele>
<time>2018-03-13T18:48:47.000Z</time>
</trkpt>
<trkpt lat="31.7875866" lon="35.0140867">
<ele>303.440002</ele>
<time>2018-03-13T18:48:49.000Z</time>
</trkpt>
<trkpt lat="31.7874518" lon="35.0141007">
<ele>303.529999</ele>
<time>2018-03-13T18:48:51.000Z</time>
</trkpt>
<trkpt lat="31.7873164" lon="35.0141107">
<ele>302.279999</ele>
<time>2018-03-13T18:48:53.000Z</time>
</trkpt>
<trkpt lat="31.7871765" lon="35.0141033">
<ele>301.559998</ele>
<time>2018-03-13T18:48:55.000Z</time>
</trkpt>
<trkpt lat="31.7870352" lon="35.0140979">
<ele>300.179993</ele>
<time>2018-03-13T18:48:57.000Z</time>
</trkpt>
<trkpt lat="31.7868893" lon="35.0141046">
<ele>298.799988</ele>
<time>2018-03-13T18:48:59.000Z</time>
</trkpt>
<trkpt lat="31.7867531" lon="35.0141294">
<ele>297.919983</ele>
<time>2018-03-13T18:49:01.000Z</time>
</trkpt>
<trkpt lat="31.7866329" lon="35.0141600">
<ele>296.070007</ele>
<time>2018-03-13T18:49:03.000Z</time>
</trkpt>
<trkpt lat="31.7865128" lon="35.0141883">
<ele>294.209991</ele>
<time>2018-03-13T18:49:05.000Z</time>
</trkpt>
<trkpt lat="31.7863850" lon="35.0142225">
<ele>292.089996</ele>
<time>2018-03-13T18:49:07.000Z</time>
</trkpt>
<trkpt lat="31.7862200" lon="35.0142549">
<ele>289.190002</ele>
<time>2018-03-13T18:49:09.000Z</time>
</trkpt>
<trkpt lat="31.7860387" lon="35.0142870">
<ele>288.269989</ele>
<time>2018-03-13T18:49:11.000Z</time>
</trkpt>
<trkpt lat="31.7858680" lon="35.0143254">
<ele>287.949982</ele>
<time>2018-03-13T18:49:13.000Z</time>
</trkpt>
<trkpt lat="31.7857159" lon="35.0143520">
<ele>288.050018</ele>
<time>2018-03-13T18:49:15.000Z</time>
</trkpt>
<trkpt lat="31.7855788" lon="35.0143717">
<ele>288.350006</ele>
<time>2018-03-13T18:49:17.000Z</time>
</trkpt>
<trkpt lat="31.7854614" lon="35.0143891">
<ele>288.730011</ele>
<time>2018-03-13T18:49:19.000Z</time>
</trkpt>
<trkpt lat="31.7853557" lon="35.0143943">
<ele>289.130005</ele>
<time>2018-03-13T18:49:21.000Z</time>
</trkpt>
<trkpt lat="31.7852617" lon="35.0143892">
<ele>289.839996</ele>
<time>2018-03-13T18:49:23.000Z</time>
</trkpt>
<trkpt lat="31.7851722" lon="35.0143868">
<ele>289.899994</ele>
<time>2018-03-13T18:49:25.000Z</time>
</trkpt>
<trkpt lat="31.7850822" lon="35.0143987">
<ele>289.529999</ele>
<time>2018-03-13T18:49:27.000Z</time>
</trkpt>
<trkpt lat="31.7849853" lon="35.0144257">
<ele>289.220001</ele>
<time>2018-03-13T18:49:29.000Z</time>
</trkpt>
<trkpt lat="31.7848683" lon="35.0144579">
<ele>287.179993</ele>
<time>2018-03-13T18:49:31.000Z</time>
</trkpt>
<trkpt lat="31.7847304" lon="35.0144905">
<ele>286.550018</ele>
<time>2018-03-13T18:49:33.000Z</time>
</trkpt>
<trkpt lat="31.7845741" lon="35.0145289">
<ele>285.410004</ele>
<time>2018-03-13T18:49:35.000Z</time>
</trkpt>
<trkpt lat="31.7844045" lon="35.0145553">
<ele>285.019989</ele>
<time>2018-03-13T18:49:37.000Z</time>
</trkpt>
<trkpt lat="31.7842339" lon="35.0145668">
<ele>283.880005</ele>
<time>2018-03-13T18:49:39.000Z</time>
</trkpt>
<trkpt lat="31.7840565" lon="35.0145739">
<ele>282.330017</ele>
<time>2018-03-13T18:49:41.000Z</time>
</trkpt>
<trkpt lat="31.7839623" lon="35.0145777">
<ele>281.660004</ele>
<time>2018-03-13T18:49:42.000Z</time>
</trkpt>
<trkpt lat="31.7838638" lon="35.0145807">
<ele>280.619995</ele>
<time>2018-03-13T18:49:43.000Z</time>
</trkpt>
<trkpt lat="31.7837640" lon="35.0145833">
<ele>279.440002</ele>
<time>2018-03-13T18:49:44.000Z</time>
</trkpt>
<trkpt lat="31.7836619" lon="35.0145852">
<ele>278.979980</ele>
<time>2018-03-13T18:49:45.000Z</time>
</trkpt>
<trkpt lat="31.7835593" lon="35.0145875">
<ele>278.569977</ele>
<time>2018-03-13T18:49:46.000Z</time>
</trkpt>
<trkpt lat="31.7834572" lon="35.0145927">
<ele>277.630005</ele>
<time>2018-03-13T18:49:47.000Z</time>
</trkpt>
<trkpt lat="31.7833574" lon="35.0146001">
<ele>277.269989</ele>
<time>2018-03-13T18:49:48.000Z</time>
</trkpt>
<trkpt lat="31.7832603" lon="35.0146088">
<ele>277.589996</ele>
<time>2018-03-13T18:49:49.000Z</time>
</trkpt>
<trkpt lat="31.7831648" lon="35.0146185">
<ele>276.690002</ele>
<time>2018-03-13T18:49:50.000Z</time>
</trkpt>
<trkpt lat="31.7830718" lon="35.0146275">
<ele>276.910004</ele>
<time>2018-03-13T18:49:51.000Z</time>
</trkpt>
<trkpt lat="31.7828941" lon="35.0146322">
<ele>276.709991</ele>
<time>2018-03-13T18:49:53.000Z</time>
</trkpt>
<trkpt lat="31.7827316" lon="35.0146176">
<ele>276.920013</ele>
<time>2018-03-13T18:49:55.000Z</time>
</trkpt>
<trkpt lat="31.7825746" lon="35.0145980">
<ele>276.269989</ele>
<time>2018-03-13T18:49:57.000Z</time>
</trkpt>
<trkpt lat="31.7824156" lon="35.0145826">
<ele>275.880005</ele>
<time>2018-03-13T18:49:59.000Z</time>
</trkpt>
<trkpt lat="31.7822456" lon="35.0145764">
<ele>274.920013</ele>
<time>2018-03-13T18:50:01.000Z</time>
</trkpt>
<trkpt lat="31.7820764" lon="35.0145848">
<ele>274.619995</ele>
<time>2018-03-13T18:50:03.000Z</time>
</trkpt>
<trkpt lat="31.7819096" lon="35.0145908">
<ele>273.859985</ele>
<time>2018-03-13T18:50:05.000Z</time>
</trkpt>
<trkpt lat="31.7817459" lon="35.0145942">
<ele>273.300018</ele>
<time>2018-03-13T18:50:07.000Z</time>
</trkpt>
<trkpt lat="31.7815820" lon="35.0145967">
<ele>272.910004</ele>
<time>2018-03-13T18:50:09.000Z</time>
</trkpt>
<trkpt lat="31.7814202" lon="35.0145964">
<ele>271.720001</ele>
<time>2018-03-13T18:50:11.000Z</time>
</trkpt>
<trkpt lat="31.7812645" lon="35.0146101">
<ele>271.670013</ele>
<time>2018-03-13T18:50:13.000Z</time>
</trkpt>
<trkpt lat="31.7811093" lon="35.0146188">
<ele>271.079987</ele>
<time>2018-03-13T18:50:15.000Z</time>
</trkpt>
<trkpt lat="31.7809559" lon="35.0146080">
<ele>270.100006</ele>
<time>2018-03-13T18:50:17.000Z</time>
</trkpt>
<trkpt lat="31.7808039" lon="35.0145866">
<ele>270.279999</ele>
<time>2018-03-13T18:50:19.000Z</time>
</trkpt>
<trkpt lat="31.7806522" lon="35.0145493">
<ele>268.649994</ele>
<time>2018-03-13T18:50:21.000Z</time>
</trkpt>
<trkpt lat="31.7804981" lon="35.0144926">
<ele>268.449982</ele>
<time>2018-03-13T18:50:23.000Z</time>
</trkpt>
<trkpt lat="31.7803424" lon="35.0144323">
<ele>267.639984</ele>
<time>2018-03-13T18:50:25.000Z</time>
</trkpt>
<trkpt lat="31.7801880" lon="35.0143714">
<ele>266.839996</ele>
<time>2018-03-13T18:50:27.000Z</time>
</trkpt>
<trkpt lat="31.7800341" lon="35.0143096">
<ele>266.630005</ele>
<time>2018-03-13T18:50:29.000Z</time>
</trkpt>
<trkpt lat="31.7798857" lon="35.0142572">
<ele>266.149994</ele>
<time>2018-03-13T18:50:31.000Z</time>
</trkpt>
<trkpt lat="31.7797435" lon="35.0142410">
<ele>266.580017</ele>
<time>2018-03-13T18:50:33.000Z</time>
</trkpt>
<trkpt lat="31.7796175" lon="35.0142806">
<ele>266.519989</ele>
<time>2018-03-13T18:50:35.000Z</time>
</trkpt>
<trkpt lat="31.7795272" lon="35.0143757">
<ele>266.580017</ele>
<time>2018-03-13T18:50:37.000Z</time>
</trkpt>
<trkpt lat="31.7794569" lon="35.0144956">
<ele>266.459991</ele>
<time>2018-03-13T18:50:39.000Z</time>
</trkpt>
<trkpt lat="31.7794118" lon="35.0146272">
<ele>266.570007</ele>
<time>2018-03-13T18:50:41.000Z</time>
</trkpt>
<trkpt lat="31.7793825" lon="35.0147571">
<ele>267.369995</ele>
<time>2018-03-13T18:50:43.000Z</time>
</trkpt>
<trkpt lat="31.7793582" lon="35.0148853">
<ele>267.899994</ele>
<time>2018-03-13T18:50:45.000Z</time>
</trkpt>
<trkpt lat="31.7793390" lon="35.0150069">
<ele>268.100006</ele>
<time>2018-03-13T18:50:47.000Z</time>
</trkpt>
<trkpt lat="31.7793123" lon="35.0151202">
<ele>267.970001</ele>
<time>2018-03-13T18:50:49.000Z</time>
</trkpt>
<trkpt lat="31.7792927" lon="35.0152277">
<ele>268.299988</ele>
<time>2018-03-13T18:50:51.000Z</time>
</trkpt>
<trkpt lat="31.7792716" lon="35.0153811">
<ele>268.579987</ele>
<time>2018-03-13T18:50:54.000Z</time>
</trkpt>
<trkpt lat="31.7792516" lon="35.0155341">
<ele>269.519989</ele>
<time>2018-03-13T18:50:57.000Z</time>
</trkpt>
<trkpt lat="31.7792427" lon="35.0156405">
<ele>269.329987</ele>
<time>2018-03-13T18:50:59.000Z</time>
</trkpt>
<trkpt lat="31.7792135" lon="35.0157909">
<ele>269.500000</ele>
<time>2018-03-13T18:51:02.000Z</time>
</trkpt>
<trkpt lat="31.7791722" lon="35.0159378">
<ele>269.790009</ele>
<time>2018-03-13T18:51:05.000Z</time>
</trkpt>
<trkpt lat="31.7791394" lon="35.0160861">
<ele>270.029999</ele>
<time>2018-03-13T18:51:08.000Z</time>
</trkpt>
<trkpt lat="31.7790978" lon="35.0162407">
<ele>269.549988</ele>
<time>2018-03-13T18:51:11.000Z</time>
</trkpt>
<trkpt lat="31.7790712" lon="35.0163931">
<ele>270.489990</ele>
<time>2018-03-13T18:51:14.000Z</time>
</trkpt>
<trkpt lat="31.7790523" lon="35.0165046">
<ele>269.940002</ele>
<time>2018-03-13T18:51:16.000Z</time>
</trkpt>
<trkpt lat="31.7790334" lon="35.0166222">
<ele>269.799988</ele>
<time>2018-03-13T18:51:18.000Z</time>
</trkpt>
<trkpt lat="31.7790224" lon="35.0167503">
<ele>269.220001</ele>
<time>2018-03-13T18:51:20.000Z</time>
</trkpt>
<trkpt lat="31.7790355" lon="35.0168852">
<ele>268.489990</ele>
<time>2018-03-13T18:51:22.000Z</time>
</trkpt>
<trkpt lat="31.7790679" lon="35.0170216">
<ele>268.339996</ele>
<time>2018-03-13T18:51:24.000Z</time>
</trkpt>
<trkpt lat="31.7791161" lon="35.0171506">
<ele>267.829987</ele>
<time>2018-03-13T18:51:26.000Z</time>
</trkpt>
<trkpt lat="31.7791837" lon="35.0172676">
<ele>267.470001</ele>
<time>2018-03-13T18:51:28.000Z</time>
</trkpt>
<trkpt lat="31.7792682" lon="35.0173703">
<ele>267.759979</ele>
<time>2018-03-13T18:51:30.000Z</time>
</trkpt>
<trkpt lat="31.7793553" lon="35.0174524">
<ele>267.609985</ele>
<time>2018-03-13T18:51:32.000Z</time>
</trkpt>
<trkpt lat="31.7794452" lon="35.0175220">
<ele>267.869995</ele>
<time>2018-03-13T18:51:34.000Z</time>
</trkpt>
<trkpt lat="31.7795317" lon="35.0175894">
<ele>268.550018</ele>
<time>2018-03-13T18:51:36.000Z</time>
</trkpt>
<trkpt lat="31.7796129" lon="35.0176554">
<ele>268.330017</ele>
<time>2018-03-13T18:51:38.000Z</time>
</trkpt>
<trkpt lat="31.7796891" lon="35.0177116">
<ele>268.380005</ele>
<time>2018-03-13T18:51:40.000Z</time>
</trkpt>
<trkpt lat="31.7798045" lon="35.0177929">
<ele>268.820007</ele>
<time>2018-03-13T18:51:43.000Z</time>
</trkpt>
<trkpt lat="31.7798795" lon="35.0178482">
<ele>268.550018</ele>
<time>2018-03-13T18:51:45.000Z</time>
</trkpt>
<trkpt lat="31.7799856" lon="35.0179476">
<ele>269.199982</ele>
<time>2018-03-13T18:51:48.000Z</time>
</trkpt>
<trkpt lat="31.7800483" lon="35.0180426">
<ele>268.000000</ele>
<time>2018-03-13T18:51:50.000Z</time>
</trkpt>
<trkpt lat="31.7800994" lon="35.0181495">
<ele>268.470001</ele>
<time>2018-03-13T18:51:52.000Z</time>
</trkpt>
<trkpt lat="31.7800677" lon="35.0182587">
<ele>267.959991</ele>
<time>2018-03-13T18:51:55.000Z</time>
</trkpt>
<trkpt lat="31.7799331" lon="35.0182286">
<ele>267.779999</ele>
<time>2018-03-13T18:51:58.000Z</time>
</trkpt>
<trkpt lat="31.7798375" lon="35.0181887">
<ele>268.459991</ele>
<time>2018-03-13T18:52:00.000Z</time>
</trkpt>
<trkpt lat="31.7797383" lon="35.0181535">
<ele>268.399994</ele>
<time>2018-03-13T18:52:02.000Z</time>
</trkpt>
<trkpt lat="31.7796089" lon="35.0181219">
<ele>269.100006</ele>
<time>2018-03-13T18:52:05.000Z</time>
</trkpt>
<trkpt lat="31.7795141" lon="35.0180944">
<ele>269.020020</ele>
<time>2018-03-13T18:52:07.000Z</time>
</trkpt>
<trkpt lat="31.7794121" lon="35.0180529">
<ele>268.519989</ele>
<time>2018-03-13T18:52:09.000Z</time>
</trkpt>
<trkpt lat="31.7793062" lon="35.0180117">
<ele>268.489990</ele>
<time>2018-03-13T18:52:11.000Z</time>
</trkpt>
<trkpt lat="31.7792113" lon="35.0179877">
<ele>268.929993</ele>
<time>2018-03-13T18:52:13.000Z</time>
</trkpt>
<trkpt lat="31.7791028" lon="35.0179549">
<ele>269.859985</ele>
<time>2018-03-13T18:52:16.000Z</time>
</trkpt>
<trkpt lat="31.7789956" lon="35.0179204">
<ele>269.929993</ele>
<time>2018-03-13T18:52:19.000Z</time>
</trkpt>
<trkpt lat="31.7788877" lon="35.0178853">
<ele>270.369995</ele>
<time>2018-03-13T18:52:22.000Z</time>
</trkpt>
<trkpt lat="31.7787811" lon="35.0178094">
<ele>271.380005</ele>
<time>2018-03-13T18:52:25.000Z</time>
</trkpt>
<trkpt lat="31.7786906" lon="35.0176970">
<ele>270.479980</ele>
<time>2018-03-13T18:52:28.000Z</time>
</trkpt>
<trkpt lat="31.7786060" lon="35.0175638">
<ele>269.890015</ele>
<time>2018-03-13T18:52:31.000Z</time>
</trkpt>
<trkpt lat="31.7785533" lon="35.0174496">
<ele>269.339996</ele>
<time>2018-03-13T18:52:33.000Z</time>
</trkpt>
<trkpt lat="31.7785053" lon="35.0173226">
<ele>269.259979</ele>
<time>2018-03-13T18:52:35.000Z</time>
</trkpt>
<trkpt lat="31.7784505" lon="35.0172196">
<ele>268.260010</ele>
<time>2018-03-13T18:52:38.000Z</time>
</trkpt>
<trkpt lat="31.7783968" lon="35.0172043">
<ele>268.410004</ele>
<time>2018-03-13T18:55:07.000Z</time>
</trkpt>
<trkpt lat="31.7783923" lon="35.0172337">
<ele>267.970001</ele>
<time>2018-03-13T18:56:31.000Z</time>
</trkpt>
</trkseg>
</trk>
</gpx>
